[[{"header":{"parameterUnit":"m.s-1","parameterCategory":1,"la1":30.6,"la2":28.766,"lo1":-90.7593,"lo2":-88.6598,"dx":0.0162,"dy":0.0183,"nx":116,"ny":114,"refTime":"2022-12-05T06:00:00:Z","depth":0,"parameterNumber":2,"parameterNumberName":"U-component_of_WINDS"},"data":[0.0,0.0,0.0,0.0,0.0,0.0,0.0,0.0,0.0,0.0,0.0,0.0,0.0,0.0,0.0,0.0,0.0,0.0,0.0,0.0,0.0,0.0,0.0,0.0,0.0,0.0,0.0,0.0,0.0,0.0,0.0,0.0,0.0,0.0,0.0,0.0,0.0,0.0,0.0,0.0,0.0,0.0,0.0,0.0,0.0,0.0,0.0,0.0,0.0,0.0,0.0,0.0,0.0,0.0,0.0,0.0,0.0,0.0,0.0,0.0,0.0,0.0,0.0,0.0,0.0,0.0,0.0,0.0,0.0,0.0,0.0,0.0,0.0,0.0,0.0,0.0,0.0,0.0,0.0,0.0,0.0,0.0,0.0,0.0,0.0,0.0,0.0,0.0,0.0,0.0,0.0,0.0,0.0,0.0,0.0,0.0,0.0,0.0,0.0,0.0,0.0,0.0,0.0,0.0,0.0,0.0,0.0,0.0,0.0,0.0,0.0,0.0,0.0,0.0,0.0,0.0,0.0,0.0,0.0,0.0,0.0,0.0,0.0,0.0,0.0,0.0,0.0,0.0,0.0,0.0,0.0,0.0,0.0,0.0,0.0,0.0,0.0,0.0,0.0,0.0,0.0,0.0,0.0,0.0,0.0,0.0,0.0,0.0,0.0,0.0,0.0,0.0,0.0,0.0,0.0,0.0,0.0,0.0,0.0,0.0,0.0,0.0,0.0,0.0,0.0,0.0,0.0,0.0,0.0,0.0,0.0,0.0,0.0,0.0,0.0,0.0,0.0,0.0,0.0,0.0,0.0,0.0,0.0,0.0,0.0,0.0,0.0,0.0,0.0,0.0,0.0,0.0,0.0,0.0,0.0,0.0,0.0,0.0,0.0,0.0,0.0,0.0,0.0,0.0,0.0,0.0,0.0,0.0,0.0,0.0,0.0,0.0,0.0,0.0,0.0,0.0,0.0,0.0,0.0,0.0,0.0,0.0,0.0,0.0,0.0,0.0,0.0,0.0,0.0,0.0,0.0,0.0,0.0,0.0,0.0,0.0,0.0,0.0,0.0,0.0,0.0,0.0,0.0,0.0,0.0,0.0,0.0,0.0,0.0,0.0,0.0,0.0,0.0,0.0,0.0,0.0,0.0,0.0,0.0,0.0,0.0,0.0,0.0,0.0,0.0,0.0,0.0,0.0,0.0,0.0,0.0,0.0,0.0,0.0,0.0,0.0,0.0,0.0,0.0,0.0,0.0,0.0,0.0,0.0,0.0,0.0,0.0,0.0,0.0,0.0,0.0,0.0,0.0,0.0,0.0,0.0,0.0,0.0,0.0,0.0,0.0,0.0,0.0,0.0,0.0,0.0,0.0,0.0,0.0,0.0,0.0,0.0,0.0,0.0,0.0,0.0,0.0,0.0,0.0,0.0,0.0,0.0,0.0,0.0,0.0,0.0,0.0,0.0,0.0,0.0,0.0,0.0,0.0,0.0,0.0,0.0,0.0,0.0,0.0,0.0,0.0,0.0,0.0,0.0,0.0,0.0,0.0,0.0,0.0,0.0,0.0,0.0,0.0,0.0,0.0,0.0,0.0,0.0,0.0,0.0,0.0,0.0,0.0,0.0,0.0,0.0,0.0,0.0,0.0,0.0,0.0,0.0,0.0,0.0,0.0,0.0,0.0,0.0,0.0,0.0,0.0,0.0,0.0,0.0,0.0,0.0,0.0,0.0,0.0,0.0,0.0,0.0,0.0,0.0,0.0,0.0,0.0,0.0,0.0,0.0,0.0,0.0,0.0,0.0,0.0,0.0,0.0,0.0,0.0,0.0,0.0,0.0,0.0,0.0,0.0,0.0,0.0,0.0,0.0,0.0,0.0,0.0,0.0,0.0,0.0,0.0,0.0,0.0,0.0,0.0,0.0,0.0,0.0,0.0,0.0,0.0,0.0,0.0,0.0,0.0,0.0,0.0,0.0,0.0,0.0,0.0,0.0,0.0,0.0,0.0,0.0,0.0,0.0,0.0,0.0,0.0,0.0,0.0,0.0,0.0,0.0,0.0,0.0,0.0,0.0,0.0,0.0,0.0,0.0,0.0,0.0,0.0,0.0,0.0,0.0,0.0,0.0,0.0,0.0,0.0,0.0,0.0,0.0,0.0,0.0,0.0,0.0,0.0,0.0,0.0,0.0,0.0,0.0,0.0,0.0,0.0,0.0,0.0,0.0,0.0,0.0,0.0,0.0,0.0,0.0,0.0,0.0,0.0,0.0,0.0,0.0,0.0,0.0,0.0,0.0,0.0,0.0,0.0,0.0,0.0,0.0,0.0,0.0,0.0,0.0,0.0,0.0,0.0,0.0,0.0,0.0,0.0,0.0,0.0,0.0,0.0,0.0,0.0,0.0,0.0,0.0,0.0,0.0,0.0,0.0,0.0,0.0,0.0,0.0,0.0,0.0,0.0,0.0,0.0,0.0,0.0,0.0,0.0,0.0,0.0,0.0,0.0,0.0,0.0,0.0,0.0,0.0,0.0,0.0,0.0,0.0,0.0,0.0,0.0,0.0,0.0,0.0,0.0,0.0,0.0,0.0,0.0,0.0,0.0,0.0,0.0,0.0,0.0,0.0,0.0,0.0,0.0,0.0,0.0,0.0,0.0,0.0,0.0,0.0,0.0,0.0,0.0,0.0,0.0,0.0,0.0,0.0,0.0,0.0,0.0,0.0,0.0,0.0,0.0,0.0,0.0,0.0,0.0,0.0,0.0,0.0,0.0,0.0,0.0,0.0,0.0,0.0,0.0,0.0,0.0,0.0,0.0,0.0,0.0,0.0,0.0,0.0,0.0,0.0,0.0,0.0,0.0,0.0,0.0,0.0,0.0,0.0,0.0,0.0,0.0,0.0,0.0,0.0,0.0,0.0,0.0,0.0,0.0,0.0,0.0,0.0,0.0,0.0,0.0,0.0,0.0,0.0,0.0,0.0,0.0,0.0,0.0,0.0,0.0,0.0,0.0,0.0,0.0,0.0,0.0,0.0,0.0,0.0,0.0,0.0,0.0,0.0,0.0,0.0,0.0,0.0,0.0,0.0,0.0,0.0,0.0,0.0,0.0,0.0,0.0,0.0,0.0,0.0,0.0,0.0,0.0,0.0,0.0,0.0,0.0,0.0,0.0,0.0,0.0,0.0,0.0,0.0,0.0,0.0,0.0,0.0,0.0,0.0,0.0,0.0,0.0,0.0,0.0,0.0,0.0,0.0,0.0,0.0,0.0,0.0,0.0,0.0,0.0,0.0,0.0,0.0,0.0,0.0,0.0,0.0,0.0,0.0,0.0,0.0,0.0,0.0,0.0,0.0,0.0,0.0,0.0,0.0,0.0,0.0,0.0,0.0,0.0,0.0,0.0,0.0,0.0,0.0,0.0,0.0,0.0,0.0,0.0,0.0,0.0,0.0,0.0,0.0,0.0,0.0,0.0,0.0,0.0,0.0,0.0,0.0,0.0,0.0,0.0,0.0,0.0,0.0,0.0,0.0,0.0,0.0,0.0,0.0,0.0,0.0,0.0,0.0,0.0,0.0,0.0,0.0,0.0,0.0,0.0,0.0,0.0,0.0,0.0,0.0,0.0,0.0,0.0,0.0,0.0,0.0,0.0,0.0,0.0,0.0,0.0,0.0,0.0,0.0,0.0,0.0,0.0,0.0,0.0,0.0,0.0,0.0,0.0,0.0,0.0,0.0,0.0,0.0,0.0,0.0,0.0,0.0,0.0,0.0,0.0,0.0,0.0,0.0,0.0,0.0,0.0,0.0,0.0,0.0,0.0,0.0,0.0,0.0,0.0,0.0,0.0,0.0,0.0,0.0,0.0,0.0,0.0,0.0,0.0,0.0,0.0,0.0,0.0,0.0,0.0,0.0,0.0,0.0,0.0,0.0,0.0,0.0,0.0,0.0,0.0,0.0,0.0,0.0,0.0,0.0,0.0,0.0,0.0,0.0,0.0,0.0,0.0,0.0,0.0,0.0,0.0,0.0,0.0,0.0,0.0,0.0,0.0,0.0,0.0,0.0,0.0,0.0,0.0,0.0,0.0,0.0,0.0,0.0,0.0,0.0,0.0,0.0,0.0,0.0,0.0,0.0,0.0,0.0,0.0,0.0,0.0,0.0,0.0,0.0,0.0,0.0,0.0,0.0,0.0,0.0,0.0,0.0,0.0,0.0,0.0,0.0,0.0,0.0,0.0,0.0,0.0,0.0,0.0,0.0,0.0,0.0,0.0,0.0,0.0,0.0,0.0,0.0,0.0,0.0,0.0,0.0,0.0,0.0,0.0,0.0,0.0,0.0,0.0,0.0,0.0,0.0,0.0,0.0,0.0,0.0,0.0,0.0,0.0,0.0,0.0,0.0,0.0,0.0,0.0,0.0,0.0,0.0,0.0,0.0,0.0,0.0,0.0,0.0,0.0,0.0,0.0,0.0,0.0,0.0,0.0,0.0,0.0,0.0,0.0,0.0,0.0,0.0,0.0,0.0,0.0,0.0,0.0,0.0,0.0,0.0,0.0,0.0,0.0,0.0,0.0,0.0,0.0,0.0,0.0,0.0,0.0,0.0,0.0,0.0,0.0,0.0,0.0,0.0,0.0,0.0,0.0,0.0,0.0,0.0,0.0,0.0,0.0,0.0,0.0,0.0,0.0,0.0,0.0,0.0,0.0,0.0,0.0,0.0,0.0,0.0,0.0,0.0,0.0,0.0,0.0,0.0,0.0,0.0,0.0,0.0,0.0,0.0,0.0,0.0,0.0,0.0,0.0,0.0,0.0,0.0,0.0,0.0,0.0,0.0,0.0,0.0,0.0,0.0,0.0,0.0,0.0,0.0,0.0,0.0,0.0,0.0,0.0,0.0,0.0,0.0,0.0,0.0,0.0,0.0,0.0,0.0,0.0,0.0,0.0,0.0,0.0,0.0,0.0,0.0,0.0,0.0,0.0,0.0,0.0,0.0,0.0,0.0,0.0,0.0,0.0,0.0,0.0,0.0,0.0,0.0,0.0,0.0,0.0,0.0,0.0,0.0,0.0,0.0,0.0,0.0,0.0,0.0,0.0,0.0,0.0,0.0,0.0,0.0,0.0,0.0,0.0,0.0,0.0,0.0,0.0,0.0,0.0,0.0,0.0,0.0,0.0,0.0,0.0,0.0,0.0,0.0,0.0,0.0,0.0,0.0,0.0,0.0,0.0,0.0,0.0,0.0,0.0,0.0,0.0,0.0,0.0,0.0,0.0,0.0,0.0,0.0,0.0,0.0,0.0,0.0,0.0,0.0,0.0,0.0,0.0,0.0,0.0,0.0,0.0,0.0,0.0,0.0,0.0,0.0,0.0,0.0,0.0,0.0,0.0,0.0,0.0,0.0,0.0,0.0,0.0,0.0,0.0,0.0,0.0,0.0,0.0,0.0,0.0,0.0,0.0,0.0,0.0,0.0,0.0,0.0,0.0,0.0,0.0,0.0,0.0,0.0,0.0,0.0,0.0,0.0,0.0,0.0,0.0,0.0,0.0,0.0,0.0,0.0,0.0,0.0,0.0,0.0,0.0,0.0,0.0,0.0,0.0,0.0,0.0,0.0,0.0,0.0,0.0,0.0,0.0,0.0,0.0,0.0,0.0,0.0,0.0,0.0,0.0,0.0,0.0,0.0,0.0,0.0,0.0,0.0,0.0,0.0,0.0,0.0,0.0,0.0,0.0,0.0,0.0,0.0,0.0,0.0,0.0,0.0,0.0,0.0,0.0,0.0,0.0,0.0,0.0,0.0,0.0,0.0,0.0,0.0,0.0,0.0,0.0,0.0,0.0,0.0,0.0,0.0,0.0,0.0,0.0,0.0,0.0,0.0,0.0,0.0,0.0,0.0,0.0,0.0,0.0,0.0,0.0,0.0,0.0,0.0,0.0,0.0,0.0,0.0,0.0,0.0,0.0,0.0,0.0,0.0,0.0,0.0,0.0,0.0,0.0,0.0,0.0,0.0,0.0,0.0,0.0,0.0,0.0,0.0,0.0,0.0,0.0,0.0,0.0,0.0,0.0,0.0,0.0,0.0,0.0,0.0,0.0,0.0,0.0,0.0,0.0,0.0,0.0,0.0,0.0,-2.9414,-2.7345,0.0,0.0,0.0,0.0,0.0,0.0,0.0,0.0,0.0,0.0,0.0,0.0,0.0,0.0,0.0,0.0,0.0,0.0,0.0,0.0,0.0,0.0,0.0,-2.2147,-2.3089,-2.4273,-2.4002,0.0,0.0,0.0,0.0,0.0,0.0,0.0,0.0,0.0,-2.1858,-2.26,-2.2646,-2.3503,-2.5066,-2.3462,-2.2202,-2.1269,0.0,0.0,0.0,0.0,0.0,0.0,0.0,0.0,0.0,0.0,0.0,0.0,0.0,0.0,0.0,0.0,0.0,0.0,0.0,0.0,0.0,0.0,0.0,0.0,0.0,0.0,0.0,0.0,0.0,0.0,0.0,0.0,0.0,0.0,0.0,0.0,0.0,0.0,0.0,0.0,0.0,0.0,0.0,0.0,0.0,0.0,0.0,0.0,0.0,0.0,0.0,0.0,0.0,0.0,0.0,0.0,0.0,0.0,0.0,0.0,0.0,0.0,0.0,0.0,0.0,0.0,0.0,0.0,0.0,0.0,-3.0221,-2.9078,0.0,0.0,0.0,0.0,0.0,0.0,0.0,0.0,0.0,0.0,0.0,0.0,0.0,0.0,0.0,0.0,0.0,0.0,0.0,0.0,0.0,-2.1812,-2.2608,-2.3487,-2.4592,-2.6065,-2.6204,-2.5914,-2.5244,-2.5208,0.0,0.0,0.0,0.0,-2.288,-2.2518,-2.3017,-2.4429,-2.5038,-2.5998,-2.7236,-2.7109,-2.6103,-2.4357,-2.3214,0.0,0.0,0.0,0.0,0.0,0.0,0.0,0.0,0.0,0.0,0.0,0.0,0.0,0.0,0.0,0.0,0.0,0.0,0.0,0.0,0.0,0.0,0.0,0.0,0.0,0.0,0.0,0.0,0.0,0.0,0.0,0.0,0.0,0.0,0.0,0.0,0.0,0.0,0.0,0.0,0.0,0.0,0.0,0.0,0.0,0.0,0.0,0.0,0.0,0.0,0.0,0.0,0.0,0.0,0.0,0.0,0.0,0.0,0.0,0.0,0.0,0.0,0.0,-3.2219,-3.1929,-3.1324,-3.2029,-3.1977,-3.1271,-3.0979,-3.1011,-3.1111,-2.9318,0.0,0.0,0.0,0.0,0.0,0.0,0.0,0.0,0.0,0.0,0.0,0.0,0.0,0.0,0.0,0.0,0.0,0.0,0.0,-2.1812,-2.2608,-2.3976,-2.5208,-2.612,-2.6204,-2.6149,-2.6059,-2.6041,0.0,0.0,0.0,-2.4375,-2.3668,-2.4918,-2.6011,-2.6916,-2.9735,-3.1202,-3.1383,-3.0695,-3.0214,-2.9831,-2.7104,-2.5856,-2.5597,0.0,0.0,0.0,0.0,0.0,0.0,0.0,0.0,0.0,0.0,0.0,0.0,0.0,0.0,0.0,0.0,0.0,0.0,0.0,0.0,0.0,0.0,0.0,0.0,0.0,0.0,0.0,0.0,0.0,0.0,0.0,0.0,0.0,0.0,0.0,0.0,0.0,0.0,0.0,0.0,0.0,-3.1496,-3.1722,0.0,0.0,0.0,0.0,0.0,0.0,0.0,0.0,0.0,0.0,0.0,0.0,0.0,-3.0525,-3.0925,-3.2089,-3.2751,-3.2856,-3.3485,-3.3616,-3.3226,-3.3349,-3.3194,-3.2811,-3.276,0.0,-3.1034,-3.091,0.0,0.0,0.0,0.0,0.0,0.0,0.0,0.0,0.0,0.0,0.0,0.0,0.0,0.0,0.0,0.0,0.0,0.0,0.0,0.0,0.0,-2.6084,-2.7544,-2.8793,-2.8902,-2.8504,-2.7604,-2.755,0.0,0.0,-2.5009,-2.4846,-2.4483,-2.6059,-2.8147,-3.0767,-3.3103,-3.4226,-3.4208,-3.3393,-3.3013,-3.294,-3.1175,-2.9205,-2.7108,-2.562,0.0,0.0,0.0,0.0,0.0,0.0,0.0,0.0,0.0,0.0,0.0,0.0,0.0,0.0,0.0,0.0,0.0,0.0,0.0,0.0,0.0,0.0,0.0,0.0,0.0,0.0,0.0,0.0,0.0,0.0,0.0,0.0,0.0,0.0,0.0,0.0,0.0,0.0,0.0,-3.0869,-3.1924,-3.2055,-3.1007,-2.9952,0.0,0.0,0.0,0.0,0.0,0.0,0.0,0.0,0.0,-3.1282,-3.2094,-3.2905,-3.3749,-3.4461,-3.4582,-3.4185,-3.4515,-3.4354,-3.3743,-3.3382,-3.3142,-3.2984,-3.263,-3.213,-3.1521,-3.0939,-3.0068,-2.8977,0.0,0.0,0.0,0.0,-2.7564,-2.7608,0.0,0.0,0.0,0.0,0.0,0.0,0.0,0.0,0.0,0.0,0.0,0.0,-2.6331,-2.793,-2.9481,-3.0889,-3.0998,-3.0496,-2.9287,-2.8835,-2.7688,-2.5587,-2.5118,-2.4901,-2.4901,-2.7344,-3.0496,-3.4317,-3.553,-3.6109,-3.6091,-3.5279,-3.4899,-3.4878,-3.4081,-3.1996,-2.9053,-2.8318,-2.6254,-2.3339,0.0,0.0,0.0,0.0,0.0,0.0,0.0,0.0,0.0,0.0,0.0,0.0,0.0,0.0,0.0,0.0,0.0,0.0,0.0,0.0,0.0,0.0,0.0,0.0,0.0,0.0,0.0,0.0,0.0,0.0,0.0,0.0,0.0,0.0,0.0,0.0,0.0,-3.1655,-3.2317,-3.2148,-3.1628,-3.0708,0.0,0.0,0.0,0.0,0.0,0.0,-3.0413,-3.1152,-3.2107,-3.3304,-3.3922,-3.4763,-3.5868,-3.5868,-3.5574,-3.504,-3.504,-3.4694,-3.4007,-3.3505,-3.3139,-3.284,-3.2398,-3.2105,-3.1863,-3.1003,-3.0538,-3.0189,-2.8475,-2.769,-2.7604,-2.8413,-2.8518,-2.8559,0.0,0.0,0.0,0.0,0.0,0.0,0.0,0.0,0.0,0.0,0.0,-2.5552,-2.7152,-2.8775,-3.0074,-3.0926,-3.0998,-3.098,-3.0876,-2.945,-2.8083,-2.6949,-2.5439,-2.4623,-2.4623,-2.9449,-3.3556,-3.6814,-3.6904,-3.6941,-3.6922,-3.6127,-3.5731,-3.5695,-3.4914,-3.4009,-3.2955,-3.0654,-2.9137,-2.7851,-2.3174,0.0,0.0,0.0,0.0,0.0,0.0,0.0,0.0,0.0,0.0,0.0,0.0,0.0,0.0,0.0,0.0,0.0,0.0,0.0,0.0,0.0,0.0,0.0,0.0,0.0,0.0,0.0,0.0,0.0,0.0,0.0,0.0,0.0,0.0,0.0,0.0,0.0,0.0,-3.1807,-3.2215,0.0,0.0,0.0,0.0,-3.0959,-3.18,-3.253,-3.3076,-3.3812,-3.4387,-3.4771,-3.4821,-3.4887,-3.4954,-3.4954,-3.4937,-3.4904,-3.4904,-3.4737,-3.4382,-3.4349,-3.3768,-3.2798,-3.2764,-3.2369,-3.1732,-3.1863,-3.1446,-3.0681,-2.9814,-2.9017,-2.8447,-2.9242,-2.9519,-2.9726,0.0,0.0,0.0,-2.5153,-2.3621,-2.2684,-2.3,-2.2603,-2.2554,-2.3306,-2.5244,-2.6952,-2.8057,-3.0079,-3.1673,-3.2469,-3.2542,-3.2408,-3.2038,-3.035,-2.9147,-2.8625,-2.7184,-2.7619,-3.0211,-3.3059,-3.5584,-3.7774,-3.7774,-3.7774,-3.7756,-3.6959,-3.6562,-3.6526,-3.5729,-3.5206,-3.4824,-3.2922,-3.1057,-2.9202,-2.7372,-2.4804,0.0,0.0,0.0,0.0,0.0,0.0,0.0,0.0,0.0,0.0,0.0,0.0,0.0,0.0,0.0,0.0,0.0,0.0,0.0,0.0,0.0,0.0,0.0,0.0,0.0,0.0,0.0,0.0,0.0,0.0,0.0,0.0,0.0,0.0,0.0,0.0,0.0,-3.2431,-3.2531,0.0,-3.0638,-3.1392,-3.2026,-3.2121,-3.3317,-3.4096,-3.4307,-3.4591,-3.4782,-3.4899,-3.4899,-3.4899,-3.4899,-3.4899,-3.4899,-3.4899,-3.4899,-3.4844,-3.4701,-3.4218,-3.3561,-3.2706,-3.2236,-3.1614,-3.0925,-3.1004,-3.1031,-3.095,-3.0393,-3.0005,-2.9784,-3.0073,-3.0349,-3.0643,0.0,0.0,0.0,-2.59,-2.443,-2.3492,-2.3757,-2.3397,-2.3542,-2.4846,-2.6638,-2.831,-2.9668,-3.1492,-3.2814,-3.3357,-3.3493,-3.3277,-3.267,-3.1039,-2.9779,-2.9091,-2.8191,-2.9505,-3.3378,-3.4839,-3.6432,-3.8209,-3.8209,-3.8209,-3.8191,-3.7647,-3.7393,-3.7375,-3.6562,-3.62,-3.6109,-3.4739,-3.3077,-3.1287,-3.0075,-2.77,-2.4722,0.0,0.0,0.0,0.0,0.0,0.0,0.0,0.0,0.0,0.0,0.0,0.0,0.0,0.0,0.0,0.0,0.0,0.0,0.0,0.0,0.0,0.0,0.0,0.0,0.0,0.0,0.0,0.0,0.0,0.0,0.0,0.0,0.0,0.0,-3.2564,-3.3425,-3.2448,-3.2978,-3.2862,-3.1404,-3.258,-3.3448,-3.3448,-3.4336,-3.4899,-3.4899,-3.4899,-3.4899,-3.4899,-3.4899,-3.4899,-3.4899,-3.4899,-3.4899,-3.4899,-3.4899,-3.4899,-3.4883,-3.4386,-3.3756,-3.3033,-3.2299,-3.1548,-3.0853,-3.042,-3.0414,-3.0645,-3.0551,-3.0506,-3.0506,-3.0506,-3.0675,-3.0902,0.0,0.0,-2.715,-2.5926,-2.501,-2.4284,-2.3878,-2.3824,-2.4683,-2.7043,-2.8111,-2.9541,-3.189,-3.2904,-3.3396,-3.3414,-3.3645,-3.3505,-3.2812,-3.1462,-2.9972,-2.8354,-2.8422,-3.0126,-3.3618,-3.4675,-3.6161,-3.8209,-3.8209,-3.8209,-3.8209,-3.8209,-3.8209,-3.8172,-3.7393,-3.7049,-3.6977,-3.6049,-3.5225,-3.4287,-3.1038,-2.9655,-2.916,0.0,0.0,0.0,0.0,0.0,0.0,0.0,0.0,0.0,0.0,0.0,0.0,0.0,0.0,0.0,0.0,0.0,0.0,0.0,0.0,0.0,0.0,0.0,0.0,0.0,0.0,0.0,0.0,0.0,0.0,0.0,0.0,0.0,-3.1687,-3.2867,-3.327,-3.1819,-3.3545,-3.4272,-3.2856,-3.4008,-3.4851,-3.4851,-3.4851,-3.4851,-3.4851,-3.4851,-3.4851,-3.4851,-3.4851,-3.4851,-3.4851,-3.4851,-3.4851,-3.4851,-3.4851,-3.4875,-3.4875,-3.4875,-3.4461,-3.3717,-3.2988,-3.2238,-3.1445,-3.0255,-2.9772,-2.9815,-3.0284,-3.0468,-3.0468,-3.0489,-3.0506,-3.0506,-2.896,-2.848,-2.7724,-2.6128,-2.5448,-2.4864,-2.4122,-2.439,-2.5117,-2.6367,-2.825,-2.9934,-3.1197,-3.256,-3.3524,-3.38,-3.3818,-3.3899,-3.4133,-3.1977,-3.0543,-3.0178,-3.1984,-3.3823,-3.5528,-3.6399,-3.729,-3.8209,-3.8209,-3.8209,-3.8209,-3.8209,-3.8209,-3.8191,-3.7973,-3.7865,-3.7812,-3.688,-3.6328,-3.5902,-3.3791,-3.1572,-2.9321,0.0,0.0,0.0,0.0,0.0,0.0,0.0,0.0,0.0,0.0,0.0,0.0,0.0,0.0,0.0,0.0,0.0,0.0,0.0,0.0,0.0,0.0,0.0,0.0,0.0,0.0,0.0,0.0,0.0,0.0,0.0,-3.042,-3.1406,-3.119,-3.2797,-3.3705,-3.2848,-3.3287,-3.3521,-3.3095,-3.3441,-3.3665,-3.3665,-3.3665,-3.3665,-3.3665,-3.3665,-3.3665,-3.3665,-3.3665,-3.3665,-3.3665,-3.3665,-3.3665,-3.3665,-3.3665,-3.3901,-3.43,-3.3876,-3.3498,-3.3176,-3.2015,-3.1126,-3.0375,-2.9596,-2.928,-2.9325,-2.981,-2.9984,-3.0027,-3.0363,-3.0506,-3.0506,-2.9436,-2.8935,-2.8231,-2.7134,-2.6514,-2.594,-2.5257,-2.5445,-2.6165,-2.7532,-2.8933,-3.0491,-3.2306,-3.3339,-3.4261,-3.5171,-3.4939,-3.4672,-3.4539,-3.2119,-3.1172,-3.2244,-3.3465,-3.4901,-3.6519,-3.6998,-3.7559,-3.8209,-3.8209,-3.8209,-3.8209,-3.8209,-3.8209,-3.8209,-3.8209,-3.8209,-3.8156,-3.7548,-3.7265,-3.7091,-3.5749,-3.3693,-3.1321,-3.049,-2.8816,-2.6853,-2.6198,-2.5966,-2.5977,-2.5954,0.0,0.0,0.0,0.0,0.0,0.0,0.0,0.0,0.0,0.0,0.0,0.0,0.0,0.0,0.0,0.0,0.0,0.0,0.0,0.0,0.0,0.0,0.0,0.0,-3.1031,-3.1742,-3.1277,-3.2656,-3.3578,-3.3251,-3.3182,-3.3182,-3.3182,-3.3182,-3.3182,-3.3182,-3.3182,-3.3182,-3.3182,-3.3182,-3.3182,-3.3182,-3.3182,-3.3182,-3.3182,-3.3182,-3.3182,-3.3182,-3.3182,-3.3381,-3.3697,-3.3355,-3.3159,-3.2999,-3.1663,-3.0851,-3.0369,-2.9218,-2.8756,-2.8803,0.0,0.0,0.0,0.0,-3.0049,-3.0177,-3.0095,-2.9418,-2.8758,-2.8474,-2.7811,-2.7165,-2.67,-2.6691,-2.7519,-2.9647,-3.002,-3.127,-3.4389,-3.4736,-3.5369,-3.6911,-3.6399,-3.559,-3.4584,-3.2604,-3.2349,-3.4381,-3.3895,-3.4662,-3.6923,-3.6978,-3.7376,-3.8209,-3.8209,-3.8209,-3.8209,-3.8209,-3.8209,-3.8209,-3.8209,-3.8209,-3.8192,-3.8054,-3.795,-3.7827,-3.704,-3.5647,-3.4008,-3.3221,-3.2347,-3.1385,-3.0029,-2.953,-2.9319,-2.8025,0.0,0.0,0.0,0.0,0.0,0.0,0.0,0.0,0.0,0.0,0.0,0.0,0.0,0.0,0.0,0.0,0.0,0.0,0.0,0.0,0.0,0.0,0.0,0.0,-3.1824,-3.2652,-3.164,-3.2367,-3.3013,-3.3013,-3.3013,-3.3013,-3.3013,-3.3013,-3.3013,-3.3013,-3.3013,-3.3013,-3.3013,-3.3013,0.0,0.0,0.0,-3.3013,-3.3013,-3.3013,-3.3013,-3.3013,-3.3013,-3.3039,-3.3119,-3.3039,-3.3039,-3.304,-3.1561,-3.0939,-3.0779,-2.898,-2.8231,-2.828,-2.8803,-2.9051,-2.9097,-2.9097,-2.9371,-2.9661,-3.0095,-2.9866,-2.9453,-2.8758,-2.8376,-2.7855,-2.6906,-2.7216,-2.8338,-3.0481,-3.1329,-3.2705,-3.5279,-3.5569,-3.6053,-3.7309,-3.654,-3.5972,-3.5934,-3.6031,-3.613,-3.6222,-3.6049,-3.6387,-3.7359,-3.7377,-3.765,-3.8209,-3.8209,-3.8209,-3.8209,-3.8209,-3.8209,-3.8209,-3.8209,-3.8209,-3.8192,-3.8003,-3.7916,-3.7863,-3.7542,-3.6077,-3.4008,-3.3221,-3.2007,-3.0689,-3.0404,-3.0297,-3.038,-3.0991,-3.0189,-2.9074,-2.9701,-2.8457,0.0,0.0,0.0,0.0,0.0,0.0,0.0,0.0,0.0,0.0,0.0,0.0,0.0,0.0,0.0,0.0,0.0,0.0,0.0,-3.099,-3.1503,-3.1768,-3.1524,-3.1682,-3.1824,-3.1824,-3.1824,-3.1824,-3.1824,-3.1824,-3.1824,-3.1824,-3.1824,-3.1824,-3.1824,-3.1824,-3.1824,-3.1824,-3.1824,-3.1824,-3.1824,-3.1824,-3.1824,-3.1824,-3.1824,0.0,-3.2547,-3.2064,-3.2076,-3.247,-3.0674,-2.9898,-2.9792,-2.8328,-2.7735,-2.777,-2.8255,-2.8709,-2.9097,-2.9097,-2.9143,-2.9212,-3.0095,-2.998,-2.9764,-2.9366,-2.9215,-2.8945,-2.8297,-2.8742,-2.963,-3.0969,-3.2119,-3.3411,-3.5007,-3.5535,-3.6141,-3.7161,-3.688,-3.6474,-3.6028,-3.6537,-3.6755,-3.6553,-3.658,-3.688,-3.745,-3.7487,-3.7739,-3.8209,-3.8209,-3.8209,-3.8209,-3.8209,-3.8209,-3.8209,-3.8209,-3.8209,-3.8192,-3.802,-3.7916,-3.7881,-3.7721,-3.6434,-3.4615,-3.4204,-3.3062,-3.1689,-3.1689,-3.1689,-3.1782,-3.2355,-3.1826,-3.0959,-3.1288,-3.0146,-2.8459,0.0,0.0,0.0,0.0,0.0,0.0,0.0,0.0,0.0,0.0,0.0,0.0,0.0,0.0,-2.9649,0.0,0.0,-3.0903,-3.1316,-3.1443,-3.1511,-3.1511,-3.1511,-3.1511,-3.1511,-3.1511,-3.1511,-3.1511,-3.1511,-3.1511,-3.1511,-3.1511,-3.1511,-3.1511,-3.1511,-3.1511,-3.1511,-3.1511,-3.1511,-3.1511,-3.1511,-3.1511,-3.1511,-3.1511,-3.1668,-3.1938,-3.164,-3.1668,-3.1877,-3.0601,-2.9864,-2.9502,-2.8154,-2.76,-2.7625,-2.787,-2.81,-2.8343,-2.8343,-2.8511,-2.8708,-3.0087,-2.9972,-2.9897,-2.9897,-2.9897,-2.9839,-2.9635,-3.0165,-3.0817,-3.1439,-3.2662,-3.3814,-3.4733,-3.5356,-3.5991,-3.6673,-3.7148,-3.7087,-3.6366,-3.6621,-3.6902,-3.7138,-3.6978,-3.7094,-3.7541,-3.7596,-3.7827,-3.8209,-3.8209,-3.8209,-3.8209,-3.8209,-3.8209,-3.8209,-3.8209,-3.8209,-3.8192,-3.8036,-3.7951,-3.7881,-3.7739,-3.6684,-3.5186,-3.5186,-3.424,-3.29,-3.29,-3.29,-3.29,-3.2802,-3.2505,-3.2109,-3.1714,-3.091,-2.9969,-2.9237,-2.8409,0.0,0.0,0.0,0.0,0.0,0.0,0.0,0.0,0.0,-2.9272,-2.9392,-2.9943,-3.0649,-3.1404,-3.1628,-3.1718,-3.1717,-3.169,-3.1645,-3.1525,-3.1511,-3.1511,-3.1511,-3.1511,-3.1511,-3.1511,-3.1511,-3.1511,-3.1511,-3.1511,-3.1511,-3.1511,-3.1511,-3.1511,-3.1511,-3.1511,-3.1511,-3.1511,-3.1511,-3.1511,-3.1511,-3.1511,-3.1511,-3.1511,-3.1511,-3.1511,-3.1466,-3.0806,-3.0163,-2.9517,-2.8304,-2.7794,-2.7779,-2.7645,-2.76,-2.76,-2.76,-2.7936,-2.8375,-3.0022,-2.9948,-2.9897,-2.9897,-2.9897,-2.9839,-2.9635,-3.0302,-3.1217,-3.2223,-3.3185,-3.4241,-3.5527,-3.575,-3.579,-3.5746,-3.6966,-3.7971,-3.8506,-3.8577,-3.8953,-3.9726,-3.8528,-3.7932,-3.8106,-3.8123,-3.814,-3.8209,-3.8209,-3.8209,-3.8209,-3.8209,-3.8209,-3.8209,-3.8209,-3.8209,-3.8192,-3.7986,-3.7899,-3.7881,-3.7703,-3.6649,-3.5186,-3.5186,-3.424,-3.29,-3.29,-3.29,-3.2852,-3.2488,-3.2091,-3.1712,-3.1281,-3.0834,-3.0551,-3.109,-3.0257,-2.9301,-2.986,-2.9251,0.0,-2.877,-2.8887,-2.9301,0.0,0.0,-3.0291,-3.1061,-3.1743,-3.2254,-3.2346,-3.2856,-3.3051,-3.2482,-3.2378,-3.2168,-3.1585,-3.1511,-3.1511,-3.1511,-3.1511,-3.1511,-3.1511,-3.1511,-3.1511,-3.1511,-3.1511,-3.1511,-3.1511,-3.1511,-3.1511,-3.1511,-3.1511,-3.1511,-3.1511,-3.1511,-3.1511,-3.1511,-3.1511,-3.1511,-3.1511,-3.1511,-3.1511,-3.1466,-3.0806,-3.0163,-2.9547,-2.8786,-2.8487,-2.8427,-2.7839,-2.76,-2.76,-2.76,-2.8,-2.8565,-3.0053,-2.9964,-2.9897,-2.9897,-2.9897,-3.0042,-3.0466,-3.1139,-3.1929,-3.2843,-3.3988,-3.4739,-3.4742,-3.4608,-3.4404,-3.406,-3.634,-3.7703,-3.7452,-3.8721,-3.9455,-3.9385,-3.8474,-3.7968,-3.8021,-3.8141,-3.8209,-3.8209,-3.8209,-3.8209,-3.8209,-3.8209,-3.8209,-3.8209,-3.8209,-3.8209,-3.8192,-3.8004,-3.7899,-3.7881,-3.7685,-3.6916,-3.5846,-3.5382,-3.4543,-3.3526,-3.3078,-3.29,0.0,-3.2437,-3.2038,-3.1621,-3.124,-3.054,-3.0092,-3.1267,-3.0555,-2.9764,-3.1355,0.0,0.0,0.0,-3.1706,-3.1758,-3.2414,-3.2033,-3.1754,-3.2512,-3.2901,-3.308,-3.308,-3.3305,-3.341,0.0,-3.308,-3.2856,-3.2168,-3.2079,-3.1929,-3.1555,-3.1511,-3.1511,-3.1511,-3.1511,-3.1511,-3.1511,-3.1511,-3.1511,-3.1511,-3.1511,-3.1511,-3.1511,-3.1511,-3.1511,-3.1511,-3.1511,-3.1511,-3.1511,-3.1511,-3.1511,-3.1511,-3.1511,-3.1511,-3.1466,-3.0806,-3.0357,-3.0058,-2.943,-2.9175,-2.9101,-2.8349,-2.8055,-2.8036,-2.7724,-2.7968,-2.8517,-3.0095,-2.998,-2.9972,-3.0219,-3.0257,-3.0465,-3.109,-3.176,-3.2455,-3.3202,-3.4397,-3.4878,-3.4097,-3.3565,-3.3223,-3.3099,-3.5138,-3.6556,-3.6826,-3.8185,-3.9042,-3.9187,-3.8349,-3.7899,-3.7899,-3.8072,-3.8139,-3.8139,-3.8174,-3.8209,-3.8209,-3.8209,-3.8209,-3.8209,-3.8209,-3.8174,-3.814,-3.7969,-3.7881,-3.7828,-3.7667,-3.7131,-3.631,-3.5525,-3.4597,-3.3651,-3.2864,-3.2579,-3.2426,-3.161,-3.122,-3.0968,-3.0355,-2.9683,-2.945,-3.1118,-3.0986,-3.0626,-3.2017,0.0,0.0,-3.3613,-3.372,-3.3633,-3.3417,-3.305,-3.2916,-3.3395,-3.3649,-3.3769,-3.3769,-3.3918,-3.3978,-3.3799,-3.3769,-3.3529,-3.2886,-3.2781,-3.2542,-3.1854,-3.178,-3.1705,-3.1525,-3.1511,-3.1511,-3.1511,-3.1511,-3.1511,-3.1511,-3.1511,-3.1511,-3.1511,-3.1511,-3.1511,-3.1511,-3.1511,-3.1511,-3.1511,-3.1511,-3.1511,-3.1511,-3.1511,-3.1467,-3.1408,-3.0944,-3.0692,-3.0634,-3.0007,-2.9767,-2.9719,-2.8928,-2.8607,-2.8586,-2.7954,-2.7947,-2.84,-3.0095,-2.998,-3.0162,-3.1014,-3.1166,-3.1166,-3.1204,-3.1886,-3.2609,-3.3223,-3.4065,-3.4457,-3.4049,-3.3065,-3.273,-3.3518,-3.3252,-3.4443,-3.7734,-3.7164,-3.7721,-4.0074,-3.8708,-3.7899,-3.7899,-3.7967,-3.8001,-3.8001,-3.814,-3.8209,-3.8209,-3.8209,-3.8209,-3.8209,-3.8209,-3.814,-3.8001,-3.7916,-3.7828,-3.7703,-3.7631,-3.7131,-3.631,-3.5525,-3.4258,-3.2829,-3.2028,-3.1742,-3.1446,-2.9552,-2.9202,-2.9351,-2.8182,-2.8091,-2.8857,-3.0969,-3.2083,-3.2448,-3.1797,-3.2164,-3.2784,-3.3066,-3.3678,-3.4073,-3.3607,-3.35,-3.3469,-3.3499,-3.4039,-3.4474,-3.4474,-3.4996,-3.5235,-3.4593,-3.4474,-3.4249,-3.3559,-3.3469,-3.3215,-3.2557,-3.2452,-3.2198,0.0,-3.1511,-3.1511,-3.1511,-3.1511,-3.1511,-3.1511,-3.1511,-3.1511,-3.1511,-3.1511,-3.1511,-3.1511,-3.1511,-3.1511,-3.1511,-3.1511,-3.1511,-3.1511,-3.1511,-3.1438,-3.1307,-3.1292,-3.1204,-3.1028,-3.035,-3.0156,-3.0195,-2.9389,-2.9165,-2.9174,-2.8373,-2.8125,-2.8281,-3.0784,-3.1244,-3.164,-3.1943,-3.2482,-3.2861,-3.2861,-3.3089,-3.3535,-3.4263,-3.4571,0.0,0.0,0.0,0.0,0.0,-3.4344,-3.5229,-3.6343,-3.7001,-3.7685,-3.8492,-3.8168,-3.7967,-3.7967,-3.8071,-3.8122,-3.8122,-3.8174,-3.8209,-3.8209,-3.8209,-3.8209,-3.8209,-3.8209,-3.814,-3.8002,-3.7934,-3.7828,-3.7685,-3.7631,-3.7452,-3.7095,-3.6292,-3.4704,-3.2721,0.0,-3.06,-3.0024,-2.9114,-2.875,-2.8681,-2.8539,-2.8109,-2.7912,-2.9118,-3.1338,-3.3475,-3.3723,-3.4682,-3.5671,-3.5904,-3.6137,-3.6054,-3.5055,-3.4831,-3.4831,-3.4831,-3.5011,-3.516,-3.516,-3.5355,-3.5429,-3.519,-3.516,-3.4921,-3.4279,-3.4174,-3.3903,-3.3245,-3.3155,0.0,0.0,0.0,-3.1511,-3.1511,-3.1511,-3.1511,-3.1511,-3.1511,-3.1511,-3.1511,-3.1511,-3.1511,-3.1511,-3.1409,-3.138,-3.138,-3.138,-3.1409,-3.1511,-3.1511,-3.1438,-3.1278,-3.0837,-3.0524,-3.0359,-3.0127,-3.0056,-3.0073,-2.9739,-2.9648,-2.9546,-2.8254,-2.808,-2.8585,-3.1659,-3.2098,-3.2492,-3.2804,-3.3335,0.0,0.0,0.0,0.0,0.0,0.0,0.0,0.0,0.0,0.0,0.0,0.0,-3.5113,-3.5682,-3.6157,-3.6683,-3.7291,-3.7109,-3.7,-3.7,-3.7155,-3.7384,-3.7674,-3.7741,-3.7919,-3.8209,-3.8209,-3.8209,-3.8209,-3.8209,-3.8123,-3.795,-3.7916,-3.7954,-3.8043,-3.7434,-3.7184,-3.7006,-3.5667,-3.3864,0.0,-3.0261,-2.9012,-2.8025,-2.7519,-2.7397,-2.7512,-2.776,-2.7931,-2.826,-2.9234,-3.1371,-3.3723,-3.5263,-3.6157,-3.6802,-3.7284,-3.7191,-3.6723,-3.5701,-3.5504,-3.5504,-3.5504,-3.531,-3.522,-3.5459,-3.523,-3.523,-3.5774,-3.5783,-3.5618,-3.5265,-3.5222,-3.4893,-3.3963,-3.3844,-3.3499,0.0,0.0,0.0,-3.1525,-3.1511,-3.1511,-3.1511,-3.1511,-3.1511,-3.1511,-3.1511,-3.1511,-3.1511,-3.138,-3.1292,-3.1234,-3.097,-3.0866,-3.097,-3.097,-3.0748,-3.0418,-3.0192,-2.9858,-2.9473,-2.9473,-2.9518,-2.9583,-2.9731,-2.9692,-2.9383,-2.8343,-2.8102,-2.8322,-3.2646,-3.2581,-3.2785,0.0,0.0,0.0,0.0,0.0,0.0,0.0,0.0,0.0,0.0,0.0,0.0,0.0,0.0,0.0,-3.5705,-3.4753,-3.4825,-3.6429,-3.5736,-3.5274,-3.5204,-3.5444,-3.5921,-3.664,-3.6842,-3.7321,-3.8065,-3.8082,-3.8082,-3.8082,-3.8082,-3.7964,-3.7773,-3.7827,-3.8133,-3.8433,-3.6934,-3.6292,-3.5971,-3.3757,-3.1882,-3.0246,-2.8784,-2.7197,-2.5711,-2.5087,-2.5485,-2.6236,-2.6196,-2.7752,-2.9843,-3.1283,-3.2277,-3.3524,-3.634,-3.6561,-3.6213,-3.7155,-3.6784,-3.6085,-3.5587,-3.5472,-3.5457,-3.5427,-3.4966,-3.4696,0.0,0.0,-3.4713,-3.6133,-3.6239,-3.6216,-3.6432,-3.6432,-3.5968,0.0,0.0,0.0,0.0,0.0,0.0,-3.1555,-3.1511,-3.1511,-3.1511,-3.1511,-3.1511,-3.1482,-3.1482,-3.1467,-3.1409,-3.1278,-3.1146,-3.1014,-3.0313,-2.9981,-2.995,-2.995,-2.9532,-2.8835,-2.9421,-2.9219,-2.846,-2.846,-2.8551,-2.8803,-2.9328,-2.9233,-2.8753,-2.8594,-2.8157,-2.7641,0.0,0.0,0.0,0.0,0.0,0.0,0.0,0.0,0.0,0.0,0.0,0.0,0.0,0.0,0.0,0.0,0.0,0.0,-3.4523,-3.4502,-3.4663,-3.5092,-3.5932,-3.61,-3.544,-3.6115,-3.6256,-3.5812,-3.5963,-3.6136,-3.6353,-3.6385,-3.6417,-3.6417,-3.6417,-3.6335,-3.6238,-3.6833,-3.6426,-3.5396,-3.5592,-3.4914,-3.3739,-3.3132,-3.1561,-2.9637,-2.9244,-2.766,-2.5961,-2.6965,-2.821,-2.9454,-2.9981,-3.0933,-3.2034,-3.2961,-3.4464,-3.6018,-3.6878,-3.7322,-3.7491,-3.7245,-3.6692,-3.6006,-3.5231,-3.518,-3.5112,-3.4493,-3.4706,-3.4639,0.0,0.0,0.0,-3.4289,-3.4924,0.0,-3.5726,-3.5744,0.0,-3.5295,0.0,-3.4711,-3.338,-3.3245,0.0,-3.1585,-3.1511,-3.1467,-3.1351,-3.1351,-3.1292,-3.1205,-3.119,-3.0925,-3.0389,-3.0267,-3.016,-3.0129,-2.9931,-2.9625,-2.9254,-2.9254,-2.9079,-2.8771,-2.839,-2.8051,-2.7769,-2.7769,-2.7802,-2.7901,-2.8538,-2.8698,-2.8524,-2.7988,-2.7999,-2.813,0.0,0.0,0.0,0.0,0.0,0.0,0.0,0.0,0.0,0.0,0.0,0.0,0.0,0.0,0.0,0.0,0.0,0.0,0.0,-3.4035,-3.3985,-3.3985,-3.4675,-3.4541,-3.3376,-3.3885,-3.4096,-3.3959,-3.4101,-3.4511,-3.5167,-3.523,-3.508,-3.4751,-3.4751,-3.4656,-3.4528,-3.5029,-3.4823,0.0,0.0,-3.3265,-3.2342,-3.1633,-3.0332,-2.8873,-2.8873,-2.8659,-2.8556,0.0,0.0,-3.1046,-3.1471,-3.2332,-3.3375,-3.4452,0.0,-3.7056,-3.7751,-3.7755,-3.7474,-3.7101,-3.6321,-3.5419,-3.4664,-3.4587,-3.4386,-3.3376,-3.3748,0.0,-3.2139,-3.3227,0.0,0.0,0.0,0.0,-3.5905,-3.5857,-3.5687,0.0,-3.5359,0.0,-3.3929,-3.3262,-3.2532,0.0,-3.1514,-3.1438,-3.1307,-3.1307,-3.1234,-3.1102,-3.0791,-3.0267,-2.9501,-2.9701,-2.9608,-2.9219,-2.9219,-2.8921,-2.833,-2.833,-2.8149,-2.7796,-2.767,-2.7384,-2.7074,-2.7074,-2.7074,-2.7129,-2.7802,-2.7887,-2.7604,-2.755,-2.7537,-2.7564,0.0,0.0,0.0,0.0,0.0,0.0,0.0,0.0,0.0,-3.3866,-3.3639,-3.3403,0.0,0.0,0.0,0.0,0.0,0.0,0.0,0.0,-3.2925,-3.2925,-3.2842,-3.2074,-3.062,-3.0815,-3.125,-3.1843,-3.1939,-3.2687,-3.4016,-3.4075,-3.3725,-3.3056,-3.3071,-3.2964,-3.2811,-3.2976,-3.3258,-3.3492,-3.2294,-3.1616,-3.119,0.0,-2.8962,-2.8392,-2.8588,-2.9976,-3.1769,-3.2334,-3.2314,-3.2092,-3.2223,-3.3172,-3.4502,-3.5893,-3.6703,-3.7416,-3.8667,-3.8026,-3.6966,-3.689,-3.5944,-3.4824,-3.4092,-3.3871,-3.3475,-3.2178,0.0,-3.234,-3.1219,-3.2323,-3.36,-3.4092,0.0,-3.5807,-3.6227,-3.6175,-3.5852,-3.5255,-3.5115,-3.4771,-3.4034,-3.2809,-3.1821,-3.124,-3.1189,-3.1161,-3.1131,-3.1131,-3.0984,-3.0747,-3.0056,-2.9393,-2.8757,-2.9233,-2.9125,-2.8363,-2.8363,-2.8019,-2.7384,-2.7384,-2.704,-2.6521,-2.7095,-2.704,-2.6499,-2.6499,-2.6499,-2.6555,-2.7129,-2.7007,-2.6555,-2.7162,-2.7007,-2.6589,0.0,0.0,0.0,0.0,0.0,0.0,0.0,0.0,0.0,0.0,-3.3904,-3.258,0.0,0.0,0.0,0.0,0.0,0.0,0.0,0.0,0.0,-3.1551,-3.1881,-3.1583,-3.0544,-3.1294,-3.1446,-3.0915,-3.0955,-3.1142,-3.1441,-3.1509,-3.1452,-3.1265,-3.1307,-3.1279,-3.1258,-3.1982,-3.1571,-3.0492,-3.1534,-3.0736,-2.8931,-2.9272,0.0,0.0,-3.0636,-3.135,-3.1947,-3.3618,-3.4314,-3.4658,-3.5548,-3.6131,-3.6704,-3.754,-3.8144,-3.8548,-3.8903,-3.8303,-3.7403,-3.6814,-3.6087,-3.52,-3.3897,-3.329,0.0,0.0,-3.1085,-3.0866,-2.9575,-3.0851,-3.2216,-3.2401,-3.3604,-3.4658,-3.5123,-3.5278,-3.5347,0.0,-3.4654,-3.3891,-3.2893,-3.1874,0.0,0.0,-2.9526,-2.9673,-3.0282,-3.0146,-2.9732,-2.8971,-2.8279,-2.8149,-2.8538,-2.813,-2.7835,-2.767,-2.767,-2.7317,-2.6692,-2.6692,-2.6624,-2.6499,-2.6624,-2.6624,-2.6499,-2.6499,-2.6499,-2.6499,-2.6624,-2.6589,-2.6499,-2.6624,-2.6589,-2.6521,0.0,0.0,0.0,0.0,0.0,0.0,0.0,-3.3297,-3.3543,-3.6453,-3.6159,-3.5324,-3.4424,-3.3526,-3.293,0.0,0.0,0.0,0.0,0.0,0.0,0.0,0.0,0.0,-2.9372,-2.979,-2.984,-2.945,0.0,-2.9731,-3.0172,-3.021,-3.0003,-2.9607,-2.9611,-2.9552,-2.9516,-3.0021,-2.9719,-2.9031,-3.0258,-3.0018,-2.8998,0.0,0.0,0.0,0.0,-3.1972,-3.2529,-3.3879,-3.4811,-3.55,-3.598,-3.6427,-3.6886,-3.7375,-3.7797,-3.8204,-3.8652,-3.8189,-3.7387,-3.6661,-3.6024,-3.5006,-3.2937,0.0,0.0,0.0,-2.9682,-2.974,-2.819,0.0,0.0,-3.1087,-3.2665,-3.405,-3.4389,-3.4728,0.0,-3.437,-3.4104,-3.3588,0.0,-3.1557,-3.0562,-2.9789,-2.9044,-2.8864,-2.9418,-2.9219,-2.8762,-2.7986,-2.767,-2.7484,-2.7451,-2.7484,-2.7317,-2.6973,-2.7317,-2.7162,-2.6499,-2.6499,-2.6499,-2.6499,-2.6499,-2.6499,-2.6499,-2.6499,-2.6499,-2.6499,-2.6499,-2.6499,-2.6499,-2.6499,-2.6499,-2.6499,0.0,0.0,0.0,0.0,0.0,0.0,0.0,-3.4794,-3.5571,-3.8603,-3.9145,-3.8727,-3.7409,-3.537,-3.378,0.0,0.0,0.0,0.0,0.0,0.0,0.0,0.0,0.0,0.0,0.0,0.0,-2.83,-2.8345,0.0,0.0,0.0,0.0,0.0,-2.8406,-2.834,-2.8286,-2.8419,-2.8406,0.0,0.0,-2.9685,0.0,0.0,0.0,0.0,0.0,0.0,-3.2829,-3.3955,-3.4624,-3.5011,-3.516,-3.5825,-3.6582,-3.6845,-3.7209,-3.7709,-3.8421,-3.8119,-3.7401,-3.66,-3.6009,-3.4908,-3.2134,-3.1409,0.0,0.0,-2.8391,-2.8622,-2.7377,0.0,-3.0673,0.0,-3.204,-3.3522,-3.4027,-3.428,0.0,0.0,-3.3367,0.0,-3.214,-3.0931,0.0,-2.9603,-2.8643,-2.8221,-2.8495,-2.8376,-2.7986,-2.7317,-2.7284,-2.704,-2.6499,-2.704,-2.704,-2.6499,-2.704,-2.7007,-2.6499,-2.6499,-2.6499,-2.6499,-2.6499,-2.6499,-2.6499,-2.6499,-2.6499,-2.6499,-2.6499,-2.6499,-2.6499,-2.6499,-2.6499,-2.6499,0.0,0.0,0.0,0.0,0.0,0.0,0.0,-3.6642,-3.8774,-4.3587,-4.2318,-4.0915,-4.0764,-3.7873,-3.468,0.0,0.0,0.0,0.0,0.0,0.0,0.0,0.0,0.0,0.0,0.0,0.0,-2.83,-2.825,0.0,0.0,0.0,0.0,0.0,0.0,-2.8259,-2.8209,-2.8286,0.0,0.0,0.0,0.0,0.0,0.0,0.0,0.0,0.0,0.0,0.0,0.0,0.0,-3.2774,-3.3677,-3.5219,-3.6717,-3.687,0.0,0.0,-3.8448,-3.8448,-3.7988,-3.6722,-3.6353,-3.5444,-3.2244,0.0,-3.0133,-2.8101,-2.7374,-2.7171,-2.7563,-2.8006,0.0,0.0,0.0,-3.2673,0.0,0.0,0.0,0.0,0.0,0.0,-3.0172,-2.9158,-2.8403,-2.7879,-2.7566,-2.7471,-2.761,-2.7604,-2.7297,-2.6624,-2.6589,-2.6555,-2.6499,-2.6555,-2.6555,-2.6499,-2.6555,-2.6555,-2.6499,-2.6499,-2.6499,-2.6499,-2.6499,-2.6499,-2.6499,-2.6499,-2.6499,-2.6499,-2.6499,-2.6499,-2.6499,-2.6499,-2.6499,-2.6499,0.0,0.0,0.0,0.0,0.0,0.0,-3.7287,-3.7116,-3.8471,-4.3512,-4.3322,-4.2318,-4.1302,-4.0006,-3.7387,-3.2902,0.0,0.0,0.0,0.0,0.0,0.0,0.0,0.0,0.0,0.0,-2.8441,-2.8965,-2.8937,0.0,0.0,0.0,0.0,0.0,0.0,-2.8223,-2.8196,-2.8259,0.0,0.0,0.0,0.0,0.0,0.0,0.0,0.0,0.0,0.0,-3.265,0.0,0.0,0.0,-3.317,-3.3888,0.0,0.0,-3.6072,-3.7015,-3.7632,-3.8096,-3.8091,-3.6722,-3.6107,-3.4942,-3.1702,0.0,-2.9464,-2.7549,-2.6968,-2.6852,-2.7113,-2.753,-2.8242,-2.961,-3.0571,0.0,-3.1968,0.0,0.0,0.0,-3.1289,0.0,0.0,0.0,-2.8478,-2.7498,-2.705,-2.6817,-2.6884,-2.6905,-2.6782,-2.6499,-2.6499,-2.6499,-2.6499,-2.6499,-2.6499,-2.6499,-2.6499,-2.6499,-2.6499,-2.6499,-2.6499,-2.6499,-2.6499,-2.6499,-2.6499,-2.6499,-2.6499,-2.6499,-2.6499,-2.6499,-2.6499,-2.6499,-2.643,-2.6339,0.0,0.0,0.0,0.0,0.0,-3.5097,-3.8216,-3.7912,-3.8925,-4.3455,-4.3853,-4.3152,-4.17,-4.1113,-3.9253,-3.5369,-3.2938,0.0,0.0,0.0,0.0,0.0,0.0,0.0,0.0,0.0,-2.8927,-2.9744,-2.9744,-2.9773,0.0,0.0,-2.934,-2.8658,0.0,0.0,0.0,0.0,0.0,0.0,0.0,0.0,0.0,0.0,0.0,0.0,0.0,0.0,0.0,0.0,0.0,0.0,-3.2577,-3.257,-3.3038,0.0,-3.5349,-3.6301,-3.7339,-3.7862,-3.7844,-3.6707,-3.5753,-3.4304,0.0,0.0,-2.9363,-2.7461,-2.7215,-2.7314,-2.7099,-2.7578,-2.8216,-2.8855,-2.9838,-3.0656,-3.1007,-3.1535,0.0,0.0,0.0,-3.0286,-2.8998,-2.8746,-2.818,-2.714,-2.6864,-2.6663,-2.6499,-2.6499,-2.6499,-2.6499,-2.6499,-2.6499,-2.6499,-2.6499,-2.6499,-2.6499,-2.6499,-2.6499,-2.6499,-2.6499,-2.6499,-2.6499,-2.6499,-2.6499,-2.6499,-2.6499,-2.6499,-2.6499,-2.6499,-2.6499,-2.6499,-2.6499,-2.6361,-2.6201,0.0,0.0,0.0,0.0,0.0,0.0,-3.831,-3.9361,-4.1075,-4.4459,-4.4194,-4.336,-4.2477,-4.0904,-3.9559,-3.8727,-3.5419,0.0,0.0,0.0,0.0,0.0,0.0,0.0,0.0,0.0,-2.9762,-3.0493,-3.0493,-3.0558,-3.0671,-3.0558,-3.0126,-2.9482,0.0,0.0,0.0,0.0,0.0,0.0,0.0,0.0,-3.2989,0.0,0.0,0.0,0.0,0.0,0.0,0.0,0.0,0.0,0.0,-3.1385,-3.1882,-3.4751,-3.5618,-3.6016,-3.7892,-3.7902,-3.7252,-3.6569,-3.5397,-3.3734,0.0,0.0,-3.0031,-2.8087,-2.8216,-2.8463,-2.7811,-2.8245,-2.8884,-2.9479,-3.0045,-3.083,-3.2117,-3.1487,0.0,0.0,0.0,-2.939,-2.8222,-2.762,-2.7102,-2.6549,-2.7002,-2.7065,-2.6524,-2.6499,-2.6499,-2.6499,-2.6499,-2.6499,-2.6499,-2.6499,-2.6499,-2.6499,-2.6499,-2.6499,-2.6499,-2.6499,-2.6499,-2.6499,-2.6499,-2.6499,-2.6499,-2.6499,-2.6499,-2.6499,-2.6499,-2.6499,-2.6499,-2.6499,-2.6361,-2.6213,0.0,0.0,0.0,0.0,0.0,0.0,0.0,-3.6689,-3.7694,-4.1037,-4.0783,-4.0821,-4.2249,-4.0904,-3.9805,-3.9551,-3.6268,0.0,0.0,0.0,0.0,0.0,0.0,0.0,0.0,-3.0281,-3.0796,-3.215,-3.215,-3.215,-3.2199,-3.215,-3.1436,-3.0148,-2.9633,-2.9262,0.0,0.0,0.0,0.0,0.0,-3.2579,-3.2186,0.0,0.0,0.0,0.0,0.0,0.0,0.0,0.0,0.0,0.0,0.0,0.0,-3.2772,-3.3893,-3.4818,-3.5908,-3.6121,-3.588,-3.5208,-3.406,-3.2527,-3.0396,-2.9929,-2.9508,-2.8,-2.8231,-2.8651,-2.8419,-2.855,-2.8987,-2.9879,-3.0147,-3.0375,0.0,0.0,0.0,-2.9617,-2.9,-2.8499,0.0,-2.7268,-2.6688,-2.6512,-2.7002,-2.7241,-2.7065,-2.7381,-2.7278,-2.6512,-2.6499,-2.6499,-2.6499,-2.6499,-2.6499,-2.6499,-2.6499,-2.6499,-2.6499,-2.6499,-2.6499,-2.6499,-2.6499,-2.6499,-2.6499,-2.6499,-2.6499,-2.6499,-2.6499,-2.643,-2.6305,-2.6305,-2.6084,-2.5793,0.0,0.0,0.0,0.0,0.0,0.0,0.0,-3.5742,-3.6253,-3.8641,-3.8812,-3.941,-4.1264,-4.0241,-3.9559,-3.9862,-3.7281,0.0,0.0,0.0,0.0,0.0,0.0,0.0,-3.1257,-3.1061,-3.1885,-3.3758,-3.3758,-3.3935,-3.4221,-3.4221,-3.3045,-3.0939,-3.0475,-2.9779,0.0,0.0,0.0,0.0,-3.3009,-3.2938,-3.1778,0.0,0.0,0.0,0.0,0.0,0.0,0.0,0.0,0.0,0.0,0.0,0.0,0.0,-3.1888,-3.2927,-3.4709,-3.5111,-3.4935,-3.4486,-3.3079,-3.1456,-3.0235,-2.9769,-2.9363,-2.858,-2.8956,-2.9348,-2.9087,-2.9045,-2.9096,-2.9262,-2.9554,-2.9699,0.0,0.0,0.0,-2.9328,0.0,0.0,-2.8109,-2.714,-2.6499,-2.6499,-2.7002,-2.7281,-2.7281,-2.7808,-2.7695,-2.6839,-2.6801,-2.67,-2.6499,-2.6499,-2.6499,-2.6499,-2.6499,-2.6499,-2.6499,-2.6499,-2.6499,-2.6499,-2.6499,-2.6499,0.0,-2.6499,-2.6499,-2.6499,-2.643,-2.6305,-2.6179,-2.6097,-2.5875,-2.5606,0.0,0.0,0.0,0.0,0.0,0.0,0.0,-3.6055,-3.6339,-3.7211,-3.7969,-3.8755,-3.9635,-3.9058,-3.8906,-3.9654,0.0,0.0,0.0,0.0,0.0,0.0,0.0,0.0,-3.1956,-3.1795,-3.2848,-3.5186,-3.5275,-3.5739,-3.6577,-3.6577,-3.4918,-3.1938,-3.1831,-3.0457,0.0,0.0,0.0,0.0,-3.4115,-3.3669,0.0,0.0,0.0,0.0,0.0,0.0,0.0,0.0,0.0,0.0,0.0,0.0,0.0,0.0,0.0,0.0,0.0,-3.4462,-3.4121,-3.4121,-3.2302,-3.0525,-3.0481,-3.0016,0.0,-2.9595,-3.0103,-3.035,-2.9754,-2.9608,-2.9181,-2.8122,-2.861,-2.8933,0.0,-2.9221,0.0,0.0,-2.8837,0.0,-2.821,-2.719,-2.6499,-2.6499,-2.7002,-2.7281,-2.7281,-2.7808,-2.7846,-2.7341,-2.7281,-2.7052,-2.6499,-2.6499,-2.6499,-2.6499,-2.6499,-2.6499,-2.6499,-2.6499,-2.6499,-2.6499,-2.6499,-2.6499,-2.6499,-2.6499,-2.6499,-2.6465,-2.627,-2.6166,-2.6131,-2.5945,-2.5758,-2.5571,0.0,0.0,0.0,0.0,0.0,0.0,0.0,0.0,0.0,0.0,-3.6083,-3.6348,-3.7826,-3.7807,-3.778,0.0,0.0,0.0,0.0,0.0,0.0,0.0,0.0,0.0,-3.178,-3.1719,-3.2848,-3.5186,-3.5828,-3.6845,-3.8237,-3.8237,-3.6863,-3.4329,-3.315,-3.0975,0.0,0.0,0.0,0.0,-3.2706,-3.2367,0.0,0.0,0.0,0.0,-2.9159,-3.0065,0.0,0.0,0.0,0.0,0.0,0.0,0.0,0.0,-2.9486,-3.0146,-3.0924,0.0,-3.1274,-3.1274,-3.0539,-2.9726,0.0,-2.9377,-2.9595,-2.9595,-2.9711,-2.9911,-3.0148,-2.9484,-2.9035,-2.9405,-2.9272,-2.9184,-2.9415,0.0,0.0,-3.0922,-2.9289,-2.8448,-2.9315,-2.7656,-2.6499,-2.6499,-2.7002,-2.7281,-2.7281,-2.7808,-2.7846,-2.7341,-2.7281,-2.7052,-2.6499,-2.6499,-2.6499,-2.6499,-2.6499,-2.6499,-2.6499,-2.6499,-2.6499,-2.6499,-2.6499,-2.6499,-2.6499,-2.6499,-2.6396,-2.627,-2.6201,-2.6027,-2.5723,-2.5688,-2.5535,-2.5382,0.0,0.0,0.0,0.0,0.0,0.0,0.0,0.0,0.0,0.0,0.0,-3.5836,-3.6756,-3.6851,0.0,0.0,0.0,0.0,0.0,0.0,0.0,0.0,0.0,-3.1463,-3.1153,-3.1867,-3.3223,-3.5186,-3.6381,-3.7755,-3.9288,-3.8968,-3.7505,-3.5079,-3.2456,-3.0136,0.0,0.0,0.0,-3.0603,-3.1849,0.0,0.0,0.0,0.0,0.0,-2.9658,-3.0101,0.0,-3.1796,-3.2346,-3.2454,0.0,0.0,0.0,0.0,-2.8135,-2.8484,-2.8438,-2.9564,-3.0771,-3.0771,-2.9747,-2.871,-2.8695,-2.8245,-2.8028,-2.8609,-2.8512,-2.8582,-2.9406,-2.8795,-2.8303,-2.879,-2.8944,0.0,0.0,0.0,-3.0645,-3.0997,-2.9767,-2.8913,-2.9013,-2.7505,-2.66,-2.6851,-2.7344,-2.777,-2.8021,-2.8323,-2.8235,-2.767,-2.7419,-2.7052,-2.6499,-2.6499,-2.6499,-2.6499,-2.6499,-2.6499,-2.6499,-2.6499,-2.6499,-2.6499,-2.6499,-2.6499,-2.6499,-2.6396,-2.6305,-2.6166,-2.5992,-2.5793,-2.5571,-2.55,-2.5382,-2.5241,0.0,0.0,0.0,0.0,0.0,0.0,0.0,0.0,0.0,0.0,0.0,0.0,0.0,0.0,0.0,0.0,0.0,0.0,0.0,0.0,0.0,0.0,-3.1279,-3.0689,-3.0689,-3.19,-3.3401,-3.5186,-3.7041,-3.8683,-4.0092,-3.9825,-3.8076,-3.5026,-3.1385,-2.9159,0.0,0.0,-3.0496,-3.0582,-3.1385,0.0,0.0,0.0,0.0,0.0,0.0,0.0,0.0,-3.2866,-3.3137,-3.2459,-3.1441,0.0,0.0,0.0,0.0,0.0,-2.6973,-2.9038,-3.1056,-3.0749,-2.9253,-2.7956,-2.8434,-2.7258,-2.639,-2.7485,-2.7299,-2.7255,-2.8358,-2.7991,0.0,0.0,0.0,0.0,-3.0218,-3.0809,-3.1047,-3.0771,-3.0018,-2.9227,-2.8448,-2.7316,-2.6813,-2.7291,-2.7795,-2.831,-2.8737,-2.8762,-2.8549,-2.8122,-2.7657,-2.7178,-2.6625,-2.6537,-2.6499,-2.6499,-2.6499,-2.6499,-2.6499,-2.6465,-2.6465,-2.6465,-2.643,-2.6396,-2.6396,-2.6236,-2.6131,-2.6062,-2.5606,-2.5382,-2.5347,-2.5052,-2.4933,-2.4838,0.0,0.0,0.0,0.0,0.0,0.0,0.0,0.0,0.0,0.0,0.0,0.0,0.0,0.0,0.0,0.0,0.0,0.0,0.0,0.0,0.0,-3.1915,-3.112,-3.0957,-3.1492,-3.11,-3.2295,-3.5186,-3.8111,-4.0021,-4.0967,-4.2819,-4.0661,-3.5079,-3.2491,-3.019,-2.8303,-2.9854,-3.0496,-3.0582,-3.1385,0.0,0.0,0.0,0.0,0.0,0.0,0.0,0.0,-3.0939,-3.1202,-3.116,-2.9868,0.0,0.0,0.0,0.0,0.0,-2.8208,-2.9397,-2.9893,-2.8238,-2.8185,-2.8419,-2.7956,-2.7623,-2.7472,-2.7726,-2.7623,-2.7654,-2.8226,-2.788,-2.7764,0.0,0.0,-2.895,0.0,0.0,-3.0344,-3.1173,-2.9553,-2.8674,-2.9453,-2.8097,-2.7228,-2.7268,-2.7795,-2.8147,-2.8235,-2.8235,-2.8197,-2.8109,-2.8021,-2.7708,-2.719,-2.6725,-2.6499,-2.6499,-2.6499,-2.6499,-2.6499,-2.6339,-2.6236,-2.6236,-2.6084,-2.598,-2.598,-2.5945,-2.584,-2.5606,-2.4862,-2.4492,-2.4264,-2.3573,-2.3353,-2.3272,0.0,0.0,0.0,0.0,0.0,0.0,0.0,0.0,0.0,0.0,0.0,0.0,0.0,0.0,0.0,0.0,0.0,0.0,0.0,0.0,-3.2811,-3.3037,-3.2335,-3.187,-3.1689,-3.3009,-3.4829,-3.7148,-4.0287,-4.2465,-4.3625,-4.2552,-3.9841,-3.5721,-3.2491,-3.0225,-2.8891,-2.9587,-3.0136,-3.0529,0.0,0.0,0.0,0.0,0.0,0.0,0.0,0.0,0.0,0.0,-3.1022,-3.0681,-2.9523,0.0,0.0,0.0,0.0,0.0,-2.6619,-2.7853,-2.8738,-2.7597,-2.8512,-2.9653,-2.9334,-2.8724,-2.815,-2.7766,-2.7384,-2.7268,-2.7728,0.0,-2.7296,-2.8297,0.0,-2.9001,-2.9352,-3.0118,-3.0733,-3.0947,-2.9817,-2.8976,-2.8888,-2.7645,-2.7115,-2.7682,-2.7959,-2.8373,-2.8988,-2.8725,-2.8512,-2.8512,-2.7971,-2.7544,-2.7281,-2.6776,-2.6499,-2.6499,-2.6499,-2.643,-2.6339,-2.6236,-2.6131,-2.6015,-2.5945,-2.591,-2.5875,-2.5793,-2.543,-2.4898,-2.4409,-2.3938,-2.3497,-2.3392,-2.3037,-2.2713,0.0,0.0,0.0,0.0,0.0,0.0,0.0,0.0,0.0,0.0,0.0,0.0,0.0,0.0,0.0,0.0,0.0,0.0,0.0,0.0,-3.3456,-3.3827,-3.3661,-3.341,-3.3096,-3.5453,-3.7559,-3.9343,-4.268,-4.4928,-4.5998,-4.2037,-3.8826,-3.6238,-3.2652,-3.0547,-2.9672,-2.9672,-3.0101,-3.0779,0.0,0.0,0.0,0.0,0.0,0.0,0.0,0.0,0.0,0.0,0.0,0.0,0.0,0.0,0.0,-2.6727,-2.5969,-2.5822,-2.5694,-2.687,-2.806,-2.7943,-2.9034,-3.0234,-3.0539,-2.9508,-2.8324,-2.7744,-2.7234,-2.6961,-2.7128,-2.7011,0.0,-2.7971,-2.8561,-2.9038,-2.9352,-3.0331,-3.0871,-3.047,-2.993,-2.9202,-2.8197,-2.7457,-2.7331,-2.8047,-2.8348,-2.8875,-2.9741,-2.9365,-2.9126,-2.9126,-2.831,-2.7808,-2.767,-2.7153,-2.6751,-2.6499,-2.6499,-2.6396,-2.6213,-2.6131,-2.6015,-2.584,-2.5793,-2.5641,-2.5465,-2.5312,-2.4791,-2.4047,-2.372,-2.3084,-2.2488,-2.2881,-2.2645,-2.2197,0.0,0.0,0.0,0.0,0.0,0.0,0.0,0.0,0.0,0.0,0.0,0.0,0.0,0.0,0.0,0.0,0.0,0.0,0.0,0.0,-3.3219,-3.3084,-3.4463,-3.5842,-3.7149,-3.7398,-3.8629,-4.0931,-4.4839,-4.6801,-4.6819,-4.2876,-3.9361,-3.6292,-3.3828,-3.1867,-3.0422,-3.0422,-3.0886,-3.1599,-3.1599,0.0,0.0,0.0,0.0,0.0,0.0,0.0,0.0,0.0,0.0,0.0,0.0,0.0,-2.7976,-2.7632,-2.7106,-2.6824,-2.7721,-2.8021,-2.8334,-2.9211,-2.9145,-2.9159,-3.0336,-2.9131,-2.7753,-2.7693,-2.76,-2.7344,-2.668,-2.7329,-2.8009,-2.8097,-2.8561,-2.8725,-2.8298,-2.9202,-2.9892,-2.9854,-2.934,-2.8725,-2.816,-2.8461,-2.8537,-2.8134,-2.9076,-2.9704,-2.9792,-2.9754,-2.9729,-2.9729,-2.9654,-2.9352,-2.8775,-2.826,-2.7469,-2.6499,-2.6499,-2.6396,-2.6201,-2.6027,-2.5793,-2.5606,-2.5418,-2.4933,-2.4228,-2.4217,-2.3756,-2.3032,-2.2247,-2.1461,-2.081,-2.1214,-2.1351,-2.1388,0.0,0.0,0.0,0.0,0.0,0.0,0.0,0.0,0.0,0.0,0.0,0.0,0.0,0.0,0.0,0.0,0.0,0.0,0.0,-3.2885,-3.3695,-3.4461,-3.512,-3.6144,-3.7577,-4.0003,-4.2662,-4.5521,-4.7479,-4.7943,-4.689,-4.2483,-3.9504,-3.7719,-3.3865,-3.2097,-3.1956,-3.1457,-3.1706,-3.2454,-3.2454,-3.215,0.0,0.0,0.0,0.0,0.0,0.0,0.0,0.0,-2.8487,-2.8367,-2.7371,-2.7704,-2.8269,-2.7352,-2.6895,-2.6647,-2.6448,-2.7515,-2.8616,-2.8466,-2.916,-3.0234,-3.1482,-3.1154,-3.0457,-3.0008,-2.9262,-2.8234,-2.6781,0.0,-2.7482,-2.7165,-2.7544,-2.7946,-2.8084,-2.8775,-2.9186,-2.9003,-2.846,-2.7803,-2.7073,-2.6854,-2.7059,-2.7736,-2.8203,-2.8839,-2.9728,-2.9792,-2.9792,-2.9792,-2.9453,-2.8988,-2.8423,-2.7749,-2.7028,-2.6305,-2.6305,-2.6201,-2.6027,-2.5793,-2.5606,-2.5418,-2.5347,-2.4862,-2.4108,-2.4108,-2.3379,-2.2172,-2.1357,-2.0867,-2.0693,-2.1377,-2.1641,-2.1758,0.0,0.0,0.0,0.0,0.0,0.0,0.0,0.0,0.0,0.0,0.0,0.0,0.0,0.0,0.0,0.0,0.0,0.0,-3.2126,-3.2929,-3.3776,-3.4637,-3.5457,-3.6538,-3.7952,-4.1609,-4.4571,-4.6735,-4.7961,-4.7658,-4.5802,-4.1591,-3.9325,-3.8611,-3.4365,-3.2884,-3.3562,-3.2795,-3.2616,-3.29,-3.29,-3.2275,0.0,0.0,0.0,0.0,0.0,0.0,0.0,0.0,-2.7826,-2.7879,-2.7267,-2.7712,-2.8304,-2.7575,-2.7533,-2.7493,-2.6503,-2.7487,-2.8711,-2.8409,-2.9305,-3.0551,-3.1637,-3.1474,-3.1037,-3.0729,-2.9478,-2.8099,-2.6955,-2.6914,0.0,0.0,-2.7065,-2.7469,-2.8034,-2.8338,-2.8491,-2.8521,-2.7877,-2.716,-2.6376,-2.6114,-2.6343,-2.7116,-2.736,-2.8026,-2.9314,-2.9378,-2.9507,-2.9792,-2.9402,-2.9026,-2.8649,-2.7876,-2.7198,-2.654,-2.6103,-2.5847,-2.5793,-2.5382,-2.5123,-2.4933,-2.4933,-2.4337,-2.3379,-2.3379,-2.2611,-2.1357,-2.0828,-2.0693,-2.0869,-2.1611,-2.1973,-2.2187,0.0,0.0,0.0,0.0,0.0,0.0,0.0,0.0,0.0,0.0,0.0,0.0,0.0,0.0,0.0,0.0,0.0,0.0,-3.218,-3.294,-3.3301,-3.3101,-3.5401,-3.7327,-3.8736,-4.1859,-4.3461,-4.3518,-4.5838,-4.5784,-4.3408,-4.0269,-3.8789,-3.8628,-3.5525,-3.4509,-3.5115,-3.4401,-3.3616,-3.29,-3.29,-3.1938,-3.0511,0.0,0.0,0.0,0.0,0.0,0.0,0.0,-2.7249,-2.6539,-2.8396,-2.8403,-2.7867,-2.8579,-2.9307,-2.9624,-2.8488,-2.8304,-2.8595,-2.9405,-2.961,-2.9766,-3.0365,-2.9546,-2.8761,-2.9231,-2.7815,-2.6663,-2.7216,-2.6864,-2.6675,-2.7216,-2.7268,-2.7469,-2.8021,-2.7813,-2.7786,-2.8378,-2.7626,-2.6852,-2.632,-2.676,-2.6852,-2.632,-2.6783,-2.7516,-2.8422,-2.8502,-2.8882,-2.9753,-2.9792,-2.9792,-2.9779,-2.9011,-2.8156,-2.7248,-2.584,-2.5334,-2.5583,-2.4755,-2.4264,-2.4084,-2.4084,-2.3231,-2.1794,-2.1804,-2.1328,-2.0615,-2.0615,-2.084,-2.1249,-2.1728,-2.2148,-2.2578,0.0,0.0,0.0,0.0,0.0,0.0,0.0,0.0,0.0,0.0,0.0,0.0,0.0,0.0,0.0,0.0,0.0,0.0,-3.1361,-3.154,-3.2087,-3.3065,-3.4293,-3.5358,-3.6256,-3.8861,-4.1517,-4.4264,-4.4981,-4.4125,-4.177,-3.9753,-3.8201,-3.7059,-3.5543,-3.4401,-3.3543,-3.2741,-3.2614,-3.29,-3.29,-3.2275,-3.1332,0.0,0.0,0.0,0.0,0.0,0.0,0.0,0.0,0.0,-2.7303,-2.8248,-2.9086,-2.8271,-2.8302,-2.8376,-2.7187,-2.7936,-2.9013,-2.8968,-3.0321,-3.1415,-3.0574,-3.1132,-3.1473,-3.0201,-2.8415,-2.7002,-2.6788,-2.66,-2.6549,-2.6713,-2.6738,-2.6716,-2.6712,-2.6614,-2.633,-2.5751,-2.5452,-2.497,-2.4181,-2.4557,-2.5049,-2.5495,-2.5928,-2.6565,-2.7476,-2.8131,-2.8633,-2.8882,-2.9314,-2.9322,-2.8948,-2.7818,-2.6951,-2.6278,-2.4547,-2.3968,-2.4377,-2.373,-2.339,-2.3316,-2.3316,-2.2761,-2.1787,-2.1478,-2.1411,-2.1465,-2.1162,-2.1309,-2.1709,-2.1836,-2.2148,-2.2578,0.0,0.0,0.0,0.0,0.0,0.0,0.0,0.0,0.0,0.0,-3.5478,-3.5624,0.0,0.0,0.0,-3.2756,-3.2234,-3.193,-3.192,-3.1877,-3.2349,-3.3486,-3.4263,-3.5288,-3.6595,-3.8325,-4.0092,-4.1823,-4.2427,-4.1856,-4.0182,-3.952,-3.8736,-3.7809,-3.7951,-3.6631,-3.4257,-3.3758,-3.3195,-3.2621,-3.2621,-3.2238,-3.1629,0.0,0.0,0.0,0.0,0.0,0.0,0.0,0.0,0.0,-2.6685,-2.7595,-2.8574,-2.8271,-2.8711,-2.9204,-2.8773,-2.9588,-3.0646,-3.092,-3.1743,-3.2339,-3.168,-3.119,-3.0454,-2.9002,-2.7783,-2.6889,-2.6549,-2.6245,-2.6025,-2.6025,-2.5769,-2.5587,-2.5645,-2.5372,-2.4997,-2.453,-2.4173,-2.3796,-2.3265,-2.3608,-2.4116,-2.4621,-2.5049,-2.5631,-2.64,-2.7017,-2.7597,-2.8211,-2.8569,-2.8621,-2.8293,-2.7447,-2.6491,-2.5456,-2.4045,-2.3284,-2.3092,-2.286,-2.2654,-2.251,-2.2172,-2.1973,-2.1826,-2.1391,-2.1494,-2.1865,-2.1592,-2.1758,-2.2139,-2.2139,-2.236,-2.263,0.0,0.0,0.0,0.0,0.0,0.0,0.0,0.0,0.0,-3.4619,-3.5351,-3.5313,0.0,0.0,0.0,-3.3574,-3.336,-3.3258,-3.3184,-3.3115,-3.3399,-3.4175,-3.5161,-3.6702,-3.8861,-3.9413,-3.9004,-3.7595,-3.9004,-3.9306,-3.8611,-3.9484,-3.9859,-3.9859,-4.1252,-3.9753,-3.6167,-3.5882,-3.4269,-3.1916,-3.2056,-3.1829,-3.133,-3.0729,0.0,0.0,0.0,0.0,0.0,0.0,0.0,0.0,-2.6474,-2.6733,-2.7038,-2.8329,-2.976,-3.1077,-3.1646,-3.21,-3.2684,-3.3935,-3.3303,-3.2529,-3.295,-3.0067,-2.7198,-2.6829,-2.6631,-2.6499,-2.6499,-2.5838,-2.5312,-2.5312,-2.4636,-2.4281,-2.4763,-2.4156,-2.3777,-2.4213,-2.3549,-2.308,-2.3122,-2.3546,-2.3836,-2.3877,-2.429,-2.4774,-2.5326,-2.5485,-2.6155,-2.7516,-2.7597,-2.7637,-2.7637,-2.7383,-2.6378,-2.4745,-2.4053,-2.3111,-2.1965,-2.219,-2.2076,-2.1714,-2.1004,-2.1202,-2.1914,-2.1473,-2.1602,-2.1992,-2.1963,-2.2197,-2.2568,-2.2487,-2.2611,-2.2803,0.0,0.0,0.0,0.0,0.0,0.0,0.0,0.0,-3.3956,-3.4516,-3.5856,-3.6127,-3.4516,-3.5062,0.0,-3.4407,-3.3135,-3.2368,-3.2354,-3.1678,-3.2145,-3.4105,-3.6684,-3.8577,-3.9627,-3.8629,-3.7934,-3.7595,-3.7934,-3.7684,-3.697,-3.8968,-3.9591,-3.9003,-3.8736,-3.7131,-3.4436,-3.1956,-3.0401,-2.9718,-3.0862,-3.0749,-2.992,-3.035,-2.933,0.0,0.0,0.0,0.0,0.0,0.0,0.0,-2.6474,-2.7057,-2.7442,-2.7219,-2.8362,-2.9567,-2.9118,-3.0315,-3.1901,-3.2698,-3.2313,-3.1472,-3.0557,-2.8832,-2.7699,-2.8595,-2.7566,-2.6499,-2.6499,-2.5838,-2.5312,-2.5312,-2.4636,-2.3948,-2.3494,-2.3255,-2.2961,-2.2461,-2.2213,-2.2242,-2.2604,-2.2888,-2.3268,-2.3846,-2.4268,-2.4476,-2.4464,-2.5294,-2.5722,-2.5683,-2.6202,-2.6449,-2.6449,-2.561,-2.4946,-2.4573,-2.3677,-2.2945,-2.2353,-2.1745,-2.1411,-2.1342,-2.1526,-2.1894,-2.2373,-2.2275,-2.249,-2.2789,-2.251,-2.2637,-2.2925,-2.2422,-2.2481,-2.2759,0.0,0.0,0.0,0.0,0.0,0.0,0.0,0.0,-3.457,-3.4606,-3.5331,-3.5385,-3.4172,-3.4407,0.0,0.0,-3.3196,-3.2631,-3.2541,-3.2074,-3.2657,-3.4592,-3.7327,-3.8808,-3.879,-3.763,-3.6755,-3.6219,-3.5438,-3.5528,-3.6435,-3.7836,-3.8467,-3.8467,-3.8258,-3.6434,-3.3407,-3.1601,-3.0301,-2.9472,-3.004,-3.0142,-2.9886,-2.9527,-2.8515,-2.7203,-2.6366,0.0,0.0,0.0,0.0,0.0,0.0,0.0,-2.6751,-2.713,-2.7943,-2.891,-2.9833,-3.0999,-3.2191,-3.3148,-3.2702,-3.1622,-3.0233,-2.8859,-2.7874,-2.8006,-2.7201,-2.6499,-2.6499,-2.5546,-2.4743,-2.4743,-2.3768,-2.2857,-2.2478,-2.244,-2.2252,-2.1845,-2.1807,-2.1862,-2.1994,-2.2491,-2.2992,-2.3544,-2.4142,-2.4414,-2.4173,-2.4696,-2.4943,-2.4829,-2.5136,-2.5347,-2.5347,-2.4776,-2.4284,-2.381,-2.3353,-2.2877,-2.249,-2.1846,-2.1553,-2.1553,-2.1562,-2.1816,-2.2207,-2.2207,-2.2461,-2.2799,-2.2693,-2.2776,-2.2896,-2.2466,-2.2349,-2.2451,0.0,0.0,0.0,0.0,0.0,0.0,0.0,0.0,0.0,-3.4844,-3.4808,-3.4552,-3.39,-3.3701,-3.3581,0.0,0.0,0.0,-3.3026,-3.3122,-3.3859,-3.5346,-3.7452,-3.8325,-3.7717,-3.6773,-3.574,-3.4616,-3.2862,-3.3371,-3.6007,-3.6536,-3.7294,-3.8187,-3.8181,-3.6295,-3.3049,-3.2092,-3.082,-2.9411,-2.9211,-2.9362,-2.9588,-2.8418,-2.7482,-2.6659,-2.5929,-2.564,-2.5597,-2.5597,0.0,0.0,0.0,0.0,-2.5841,-2.7063,-2.7659,-2.8398,-3.0567,-3.1676,-3.2542,-3.4037,-3.3456,0.0,-3.0684,-2.9241,-2.7855,-2.6645,-2.6396,-2.6396,-2.643,-2.5217,-2.4156,-2.4036,-2.282,-2.1845,-2.1731,-2.1693,-2.1693,-2.1731,-2.1769,-2.1755,-2.1716,-2.237,-2.2929,-2.3378,-2.4075,-2.4391,-2.4212,-2.4157,-2.4216,-2.4374,-2.4282,-2.4241,-2.4241,-2.4241,-2.3864,-2.3091,-2.3091,-2.2916,-2.2607,-2.2187,-2.1953,-2.1865,-2.1582,-2.1621,-2.1885,-2.1885,-2.2139,-2.2464,-2.264,-2.2692,-2.2706,-2.2441,-2.222,-2.2097,0.0,0.0,0.0,0.0,0.0,0.0,0.0,0.0,0.0,0.0,-3.5641,-3.5605,-3.5478,-3.4844,-3.4428,-3.4428,-3.364,-3.3119,-3.3086,0.0,0.0,-3.6167,-3.722,-3.7875,-3.8115,-3.665,-3.5316,-3.4183,-3.1928,-3.2032,-3.4337,-3.574,-3.7161,-3.846,-3.6527,-3.5036,-3.3706,-3.03,-2.8185,-2.7199,-2.7775,-2.7423,-2.6559,-2.7,-2.6589,-2.5783,-2.5667,-2.5616,-2.5597,-2.5597,-2.5597,0.0,0.0,0.0,-2.5627,-2.5825,-2.6539,0.0,0.0,0.0,-3.1409,0.0,-3.3456,-3.2098,0.0,0.0,-2.7789,-2.6302,-2.598,-2.6015,-2.6201,-2.5347,-2.4373,-2.3697,-2.2857,-2.2073,-2.1397,-2.1282,-2.1359,-2.1512,-2.154,-2.1808,-2.2554,-2.2575,-2.3026,-2.4243,-2.438,-2.452,-2.4713,-2.4474,-2.4232,-2.389,-2.3506,-2.3309,-2.3309,-2.3309,-2.3222,-2.3091,-2.3091,-2.3062,-2.3003,-2.2617,-2.2227,-2.1904,-2.2207,-2.2168,-2.1885,-2.1885,-2.2013,-2.2231,-2.2288,-2.2356,-2.2441,-2.223,-2.2141,-2.2052,0.0,0.0,0.0,0.0,0.0,0.0,0.0,0.0,0.0,0.0,0.0,-3.5623,-3.517,-3.4808,-3.4395,-3.3912,-3.3412,-3.307,-3.2977,-3.3684,-3.43,-3.4765,-3.5544,-3.5768,-3.5304,-3.4149,-3.2987,-3.1869,-3.0375,-3.0685,-3.2681,-3.3347,-3.4839,-3.6778,-3.3863,-3.2405,-3.1864,-2.8729,-2.7232,-2.6897,-2.6657,-2.7267,-2.8109,-2.6405,-2.6229,-2.673,-2.544,-2.4742,-2.4482,-2.4855,-2.4984,-2.4984,-2.4984,0.0,0.0,0.0,-2.4746,0.0,-2.7633,-2.9575,-3.1596,0.0,-3.3551,-3.2397,-3.046,-2.918,-2.7938,-2.626,-2.5723,-2.5641,-2.598,-2.5312,-2.4564,-2.4228,-2.3191,-2.2289,-2.1921,-2.1464,-2.1244,-2.132,-2.132,-2.1534,-2.201,-2.2219,-2.2824,-2.4004,-2.4271,-2.446,-2.4562,-2.4695,-2.4482,-2.3809,-2.3603,-2.3506,-2.3506,-2.3218,-2.3091,-2.3091,-2.3091,-2.3091,-2.3091,-2.2906,-2.251,-2.1885,-2.1826,-2.1553,-2.1162,-2.1285,-2.1511,-2.1809,-2.1817,-2.1985,-2.2185,-2.1963,-2.1874,-2.1776,0.0,0.0,0.0,0.0,0.0,0.0,0.0,0.0,0.0,0.0,0.0,-3.5569,-3.4969,0.0,0.0,0.0,-3.2907,-3.2693,-3.236,-3.2784,-3.3101,-3.3196,-3.3686,-3.352,-3.2557,-3.1951,-3.1009,-2.9663,-2.9068,-2.975,-3.1598,-3.1598,-3.2978,-3.5307,-3.2573,-3.1118,-3.0626,-2.8141,-2.7115,-2.7088,-2.6466,-2.747,-2.9153,-2.7349,-2.7499,-2.8375,-2.6124,0.0,0.0,0.0,-2.4257,-2.4257,-2.4257,-2.4188,0.0,0.0,0.0,0.0,0.0,0.0,-3.0377,-3.2807,-3.3062,-3.2283,0.0,0.0,-2.8164,-2.6577,-2.5761,-2.5382,-2.5688,-2.5276,-2.4791,-2.4564,-2.3585,-2.2681,-2.2317,-2.1721,-2.131,-2.1128,-2.1128,-2.1271,-2.166,-2.1966,-2.2656,-2.3736,-2.418,-2.4463,-2.458,-2.4893,-2.4822,-2.4131,-2.4004,-2.3896,-2.3789,-2.3315,-2.3091,-2.3091,-2.3091,-2.3091,-2.3091,-2.2877,-2.248,-2.1865,-2.1543,-2.1044,-2.0528,-2.0796,-2.1068,-2.1322,-2.1433,-2.168,-2.1963,-2.1508,-2.1508,-2.1553,0.0,0.0,0.0,0.0,0.0,0.0,0.0,0.0,0.0,0.0,0.0,-3.5768,-3.5731,-3.5062,-3.3973,-3.2397,-3.2199,-3.1776,-3.0864,-3.0446,-3.086,-3.2301,-3.209,0.0,-3.1293,-3.124,-3.0333,-2.8481,-2.8448,-2.9503,-3.1598,-3.1598,-3.2796,-3.4897,-3.4028,-3.2862,-3.1399,0.0,0.0,0.0,-2.7717,-2.7552,-2.7408,-3.0543,-3.131,-3.0451,0.0,0.0,0.0,0.0,0.0,0.0,0.0,-2.3285,-2.297,0.0,0.0,0.0,0.0,-2.5168,0.0,-3.04,-3.1435,-3.144,0.0,0.0,-2.8337,-2.7427,-2.6218,-2.5312,-2.5347,-2.5312,-2.5016,-2.4264,-2.4047,-2.3489,-2.2021,-2.1804,-2.1548,-2.0984,-2.0906,-2.1243,-2.2086,-2.2195,-2.2656,-2.3736,-2.418,-2.46,-2.5057,-2.5106,-2.5096,-2.5047,-2.46,-2.4199,-2.3799,-2.3315,-2.3091,-2.3091,-2.3091,-2.3091,-2.3062,-2.2314,-2.1924,-2.1885,-2.1865,-2.1286,-2.0342,-2.0745,-2.0863,-2.0885,-2.1271,-2.1514,-2.1597,-2.0718,-2.0952,-2.1419,0.0,0.0,0.0,0.0,0.0,0.0,0.0,0.0,0.0,0.0,0.0,0.0,0.0,-3.4163,-3.3259,-3.2159,-3.1333,-3.0711,-3.0271,-2.9903,-2.9815,-3.009,-3.0,-2.954,-2.871,-2.8693,-2.8131,-2.6998,-2.6998,-2.8092,-3.0191,-3.0191,-3.1097,-3.2689,-3.1995,-3.1626,-3.133,-2.8232,0.0,0.0,0.0,0.0,0.0,0.0,0.0,0.0,0.0,0.0,0.0,0.0,0.0,0.0,0.0,0.0,0.0,0.0,0.0,0.0,0.0,0.0,0.0,-2.857,-3.0201,-3.0963,-3.0361,-2.9977,-2.927,-2.7646,-2.6617,-2.5861,-2.5382,-2.5312,-2.5194,-2.4933,-2.4456,-2.3891,-2.3342,-2.2424,-2.1728,-2.151,-2.1031,-2.1036,-2.192,-2.2009,-2.2605,-2.4072,-2.4336,-2.4609,-2.5086,-2.5342,-2.5361,-2.5125,-2.4959,-2.4492,-2.3799,-2.3633,-2.3418,-2.3091,-2.3091,-2.3091,-2.3081,-2.2549,-2.2045,-2.1629,-2.1358,-2.0873,-2.0284,-2.0121,-2.0373,-2.0815,-2.0804,-2.0822,-2.0763,-2.0439,-2.0121,-1.9666,0.0,0.0,0.0,0.0,0.0,0.0,0.0,0.0,-3.5419,-3.4072,0.0,0.0,0.0,0.0,-3.3042,-3.1711,-3.0246,-2.9369,-2.9275,-2.8827,-2.8562,-2.8537,-2.8428,-2.8044,-2.7317,-2.7298,-2.695,-2.6202,-2.6452,-2.7429,-2.9069,-2.9281,-3.015,-3.1457,-3.0319,-3.0431,0.0,0.0,0.0,-2.7395,0.0,0.0,-3.0762,0.0,0.0,0.0,0.0,0.0,0.0,0.0,0.0,0.0,0.0,0.0,0.0,0.0,-1.9163,-1.9885,-2.1743,0.0,0.0,0.0,0.0,-2.931,-3.0251,0.0,-2.8884,-2.8129,-2.6952,-2.5896,-2.5382,-2.5312,-2.5312,-2.5312,-2.4862,-2.4409,-2.4145,-2.301,-2.2096,-2.1832,-2.1088,-2.0957,-2.1797,-2.1885,-2.2471,-2.3842,-2.4248,-2.4541,-2.4834,-2.542,-2.5605,-2.5303,-2.5194,-2.4842,-2.4228,-2.4072,-2.3789,-2.3315,-2.3315,-2.3159,-2.2867,-2.2395,-2.1832,-2.1265,-2.07,-2.0326,-2.0058,-2.0014,-2.0281,-2.0656,-2.0506,-2.0395,-2.0204,-1.9521,-1.9063,-1.8611,0.0,0.0,0.0,0.0,0.0,0.0,0.0,0.0,-3.5833,-3.3463,0.0,0.0,0.0,0.0,0.0,-3.0988,-2.8979,-2.7827,-2.781,-2.7101,-2.6995,-2.7722,-2.7451,-2.7265,-2.7298,-2.7265,-2.6934,-2.6219,-2.6934,-2.763,-2.8376,-2.9036,-3.0067,-3.1303,-2.9277,-2.9509,-3.127,0.0,-2.8616,-2.8395,0.0,-3.0324,-2.857,0.0,0.0,0.0,-3.2401,-3.2094,0.0,-3.0467,0.0,0.0,0.0,0.0,0.0,0.0,-1.7664,-1.8314,0.0,0.0,0.0,0.0,0.0,0.0,-3.1139,0.0,-2.6987,-2.8869,-2.7128,-2.5287,-2.53,-2.5312,-2.5312,-2.5312,-2.5312,-2.5052,-2.4264,-2.35,-2.2734,-2.1945,-2.1126,-2.0987,-2.1818,-2.1926,-2.2236,-2.3033,-2.389,-2.4424,-2.4434,-2.5216,-2.5693,-2.5693,-2.5312,-2.5125,-2.5116,-2.4648,-2.4219,-2.3789,-2.3789,-2.334,-2.25,-2.1791,-2.1274,-2.0861,-1.9972,-1.9606,-1.9662,-2.0452,-2.0661,-2.0467,-2.035,-2.024,-1.9977,-1.801,-1.7924,-1.8419,0.0,0.0,0.0,0.0,0.0,-3.6215,-3.6,-3.6271,-3.6022,0.0,0.0,0.0,-3.3793,-3.2897,-3.1864,-3.0698,-2.9351,-2.8374,-2.7827,-2.6875,-2.6428,-2.6628,-2.6555,-2.675,-2.73,-2.6785,-2.6667,-2.7,-2.6667,-2.6866,-2.7597,-2.7701,-2.8237,-2.909,-2.8345,-2.8112,-2.8135,-2.6726,0.0,0.0,-2.9236,-3.0508,0.0,0.0,0.0,0.0,0.0,-3.4182,-3.2819,0.0,-2.9881,-2.6087,0.0,0.0,0.0,0.0,-1.7236,-1.8094,-1.823,0.0,0.0,0.0,0.0,0.0,0.0,0.0,-2.5906,-2.765,-2.6342,-2.4958,-2.527,-2.5312,-2.5312,-2.5312,-2.5312,-2.5229,-2.5004,-2.4301,-2.3708,-2.3489,-2.2274,-2.1696,-2.2219,-2.2057,-2.2236,0.0,-2.389,-2.4551,-2.4873,-2.543,-2.5693,-2.5693,-2.5567,-2.54,-2.5116,-2.4951,-2.4521,-2.3789,-2.3789,-2.334,-2.25,-2.1791,-2.1192,-2.0628,-1.9942,-1.9518,-1.9427,-1.9951,-1.988,-1.9496,-1.9763,-1.9163,-1.8056,-1.7512,-1.7044,-1.6567,0.0,0.0,-3.6076,-3.6388,-3.6703,-3.6895,-3.6895,-3.6839,-3.6378,0.0,0.0,0.0,-3.4178,-3.3168,-3.2219,-3.1481,-2.9867,-2.86,-2.7858,-2.6798,-2.6202,-2.6202,-2.6202,-2.6551,-2.7265,-2.6584,-2.6515,-2.7224,-2.6478,-2.6312,-2.6706,-2.6632,-2.6789,-2.7145,-2.6776,-2.636,-2.587,0.0,0.0,0.0,-2.9756,0.0,0.0,-3.4085,-3.5003,0.0,0.0,0.0,-3.3023,-3.4172,-3.0892,0.0,0.0,0.0,0.0,0.0,-1.7433,-1.873,-1.8415,-1.9184,-2.0265,-2.1023,0.0,0.0,-2.555,-2.4929,-2.4399,0.0,-2.6108,-2.5016,-2.5272,-2.5312,-2.5312,-2.5312,-2.5312,-2.5312,-2.5312,-2.46,-2.4108,-2.4108,-2.2761,-2.1952,-2.234,-2.2099,-2.2158,-2.2779,-2.3672,-2.4424,-2.5086,-2.5488,-2.5693,-2.5693,-2.5693,-2.5605,-2.5352,-2.5166,-2.4773,-2.4043,-2.3602,-2.2935,-2.2049,-2.1323,-2.0699,-2.0141,-1.9699,-1.9429,-1.9298,-1.9335,-1.9281,-1.9118,-1.9284,-1.8484,-1.7232,-1.6817,-1.6298,-1.5784,0.0,0.0,-3.6551,-3.6353,-3.6801,-3.7227,-3.7399,-3.7352,-3.6836,0.0,-3.5314,-3.5273,-3.524,-3.4377,-3.3536,-3.2872,-3.0455,-2.8645,-2.7905,-2.6814,-2.6202,-2.6202,-2.6202,-2.6551,-2.7265,-2.6584,-2.6497,-2.7114,-2.6372,-2.599,-2.5899,-2.5899,-2.5777,-2.5536,-2.5007,-2.4543,-2.4103,-2.3172,0.0,-2.7062,-3.0854,-3.153,0.0,0.0,-3.3476,-3.2627,-3.386,-3.3583,-3.294,-3.5141,-3.1962,0.0,0.0,0.0,0.0,0.0,-1.8267,-2.0013,-1.9141,-1.9677,-2.0705,-2.1645,0.0,0.0,-2.5022,-2.3854,-2.2771,0.0,-2.5775,-2.4885,-2.5031,-2.5046,-2.5047,-2.5047,-2.5143,-2.524,-2.53,-2.4671,-2.4228,-2.4228,-2.2936,-2.215,-2.2424,-2.2151,-2.2107,-2.2412,-2.3281,-2.4141,-2.4998,-2.542,-2.5615,-2.5615,-2.5664,-2.5693,-2.5693,-2.5293,-2.4844,-2.4404,-2.338,-2.239,-2.1486,-2.0731,-2.0083,-1.9597,-1.939,-1.9301,-1.925,-1.8795,-1.8726,-1.892,-1.8659,-1.7979,-1.7044,-1.6109,-1.5784,-1.5784,-3.4691,-3.512,-3.579,-3.6896,-3.6719,-3.6823,-3.7988,-3.7661,-3.7408,-3.7696,-3.6944,-3.6472,-3.6668,-3.4975,-3.374,-3.3606,-3.0954,-2.9001,-2.8341,-2.6969,-2.6202,-2.6202,-2.6202,-2.6551,-2.7265,-2.6584,-2.655,-2.7261,-2.6515,-2.6097,-2.599,-2.5934,-2.5442,-2.4565,-2.4547,-2.3622,-2.2104,-2.3723,0.0,-2.6401,-2.7514,0.0,-3.2541,-3.3242,-3.401,-3.473,-3.4466,-3.4226,-3.3844,-3.2821,-3.0925,-2.8469,0.0,0.0,0.0,-1.9503,0.0,0.0,0.0,0.0,0.0,0.0,0.0,0.0,-2.1518,-2.1527,-2.1887,0.0,-2.2901,-2.236,-2.3281,-2.3457,-2.3436,-2.3436,-2.4133,-2.4819,-2.5252,-2.5158,-2.5087,-2.5087,-2.4228,-2.346,-2.2939,-2.2519,-2.2211,-2.2014,-2.3115,-2.4014,-2.4521,-2.4961,-2.5195,-2.5195,-2.5547,-2.5693,-2.5693,-2.5293,-2.4844,-2.4414,-2.3625,-2.2669,-2.1495,-2.0981,-2.0344,-1.9597,-1.939,-1.9301,-1.925,-1.8795,-1.833,-1.7866,-1.7439,-1.6807,-1.6062,-1.5872,-1.5784,-1.5784,-3.4882,-3.5966,-3.7041,-3.7178,-3.7192,-3.7563,-3.8685,-3.8229,-3.7867,-3.8263,-3.7472,-3.6944,-3.7094,-3.5446,-3.4187,-3.3822,-3.1106,-2.9118,-2.8442,-2.7015,-2.6202,-2.6202,-2.6202,-2.6515,-2.7189,-2.6478,-2.6407,-2.7041,-2.6299,-2.5899,-2.5789,-2.523,-2.516,-2.5421,-2.3679,-2.2823,-2.2686,0.0,-2.3421,-2.4983,-2.7529,0.0,-3.3233,-3.3698,-3.4295,-3.4854,-3.4534,-3.4414,-3.4167,-3.2524,-3.0742,0.0,0.0,-2.6006,-2.4586,0.0,-2.2345,-2.3402,0.0,0.0,0.0,-2.0878,0.0,0.0,0.0,0.0,-2.1618,0.0,-2.2521,-2.202,-2.2882,-2.2604,-2.2282,-2.2546,-2.346,-2.4145,-2.4145,-2.4819,-2.5312,-2.5312,-2.46,-2.3938,-2.3562,-2.2873,-2.2321,-2.219,-2.3184,-2.3887,-2.4092,-2.4717,-2.5116,-2.5116,-2.5353,-2.5538,-2.5693,-2.4841,-2.4359,-2.4229,-2.3009,-2.1987,-2.1172,-2.0652,-2.0061,-1.9429,-1.9341,-1.9054,-1.8585,-1.7926,-1.7397,-1.6947,-1.6921,-1.6433,-1.5784,-1.5784,-1.5784,-1.5784,-3.4784,-3.6464,-3.7858,-3.7028,-3.75,-3.8195,-3.8801,-3.8361,-3.7971,-3.7971,-3.7599,-3.7367,-3.7516,-3.6208,-3.5131,-3.4684,-3.2083,-3.0046,-2.9069,-2.7777,-2.6963,-2.6814,-2.6417,-2.6612,-2.7528,-2.6537,-2.6198,-2.6657,-2.605,-2.5596,-2.5279,-2.4425,-2.4559,-2.5445,-2.3072,0.0,0.0,0.0,0.0,-2.4657,0.0,-3.0816,-3.2303,-3.3404,-3.3848,-3.3906,-3.4283,-3.4414,-3.4225,-3.2948,-3.1134,-2.9406,-2.929,-2.8106,0.0,0.0,0.0,0.0,0.0,0.0,0.0,0.0,0.0,-2.1011,0.0,0.0,0.0,0.0,0.0,0.0,0.0,0.0,0.0,0.0,0.0,0.0,0.0,0.0,0.0,-2.4855,-2.4531,-2.423,-2.3982,-2.2864,-2.2268,-2.2609,-2.3036,-2.3408,-2.3652,-2.4482,-2.4941,-2.4894,-2.5208,-2.543,-2.5538,-2.4392,-2.3868,-2.3988,-2.2315,-2.1328,-2.1002,-2.0228,-1.9701,-1.9421,-1.9338,-1.8816,-1.7925,-1.7139,-1.6584,-1.6337,-1.6458,-1.6246,-1.5784,-1.5784,-1.5784,-1.5784,-3.4761,-3.5127,-3.5518,-3.6025,-3.6738,-3.7251,-3.735,-3.7284,-3.7235,-3.7235,-3.7706,-3.8328,-3.8984,-3.7731,-3.7085,0.0,-3.5595,-3.3408,-3.1366,-3.0472,-2.9711,-2.9065,-2.7212,-2.7129,-2.9095,-2.7085,-2.6041,-2.6105,-2.595,-2.5336,-2.4268,-2.4151,-2.312,-2.1473,-2.3691,0.0,0.0,0.0,-2.5529,0.0,-2.8035,-2.8071,0.0,-3.0878,-3.1814,-3.2046,-3.3757,-3.4414,-3.4225,0.0,-3.2324,-3.1567,0.0,-2.955,-3.0495,-2.5793,0.0,0.0,0.0,0.0,0.0,0.0,-2.2109,0.0,0.0,0.0,0.0,-2.086,0.0,0.0,0.0,0.0,0.0,0.0,0.0,0.0,0.0,0.0,0.0,0.0,0.0,-2.472,-2.3593,-2.215,-2.1749,-2.293,-2.2088,-2.198,-2.311,-2.4023,-2.4343,-2.4111,-2.5111,-2.544,-2.4981,-2.4392,-2.3961,-2.3709,-2.2227,-2.1478,-2.1403,-2.0357,-1.9866,-1.9793,-1.9467,-1.8816,-1.7942,-1.7316,-1.6748,-1.6227,-1.5476,-1.5436,-1.5784,-1.5784,-1.5784,-1.5784,-3.3375,-3.4303,-3.4866,-3.4733,-3.5694,-3.6456,-3.6456,-3.7201,-3.7748,-3.7748,-3.7649,-3.8013,0.0,0.0,0.0,0.0,0.0,-3.4319,0.0,-3.178,-3.0803,-3.0075,-2.7899,-2.7202,-2.8221,-2.6426,-2.5323,-2.4997,-2.4993,-2.4512,-2.3615,-2.2995,-2.2995,-2.3505,-2.3732,0.0,-2.4878,0.0,-2.4936,0.0,0.0,0.0,0.0,-3.1211,-3.3162,-3.3296,-3.4124,-3.4414,-3.4327,0.0,-3.2629,0.0,0.0,0.0,0.0,0.0,0.0,0.0,0.0,0.0,0.0,0.0,0.0,0.0,-1.9881,0.0,-2.069,0.0,0.0,0.0,0.0,0.0,0.0,0.0,-1.9932,0.0,0.0,0.0,0.0,0.0,0.0,0.0,-2.3432,-2.2677,-2.2333,-2.2677,-2.2029,-2.1874,-2.2553,-2.3361,-2.384,-2.3849,-2.4364,-2.463,-2.4533,-2.3551,-2.3092,-2.3119,-2.185,-2.1161,-2.0887,-2.0462,-1.9976,-1.9549,-1.9375,-1.8527,-1.7237,-1.6973,-1.6355,-1.5531,-1.5136,-1.5317,-1.5784,-1.5784,-1.5784,-1.5784,-3.1537,-3.3143,-3.4187,-3.3856,-3.4849,-3.5777,-3.5976,-3.6572,-3.7152,-3.7549,-3.7135,-3.7433,-3.9116,-3.7392,0.0,0.0,-3.7914,-3.6506,0.0,-3.374,-3.2718,-3.2546,-2.9226,-2.7865,-2.8865,-2.6577,-2.5028,-2.4328,-2.4323,-2.3907,-2.3085,-2.2133,-2.2521,-2.4,0.0,-2.4737,-2.6869,0.0,-2.5792,-2.5622,-2.6678,-2.6968,-2.7273,-3.1874,-3.3949,-3.4414,-3.4414,-3.4414,-3.4356,-3.4008,-3.2658,-3.1366,-3.289,0.0,0.0,0.0,0.0,0.0,-2.568,0.0,0.0,0.0,0.0,0.0,0.0,0.0,0.0,0.0,0.0,0.0,0.0,0.0,0.0,0.0,0.0,0.0,0.0,0.0,0.0,0.0,0.0,0.0,0.0,0.0,0.0,-2.2314,0.0,-2.1531,-2.2068,-2.2878,-2.3336,-2.34,-2.3683,-2.3804,-2.3739,-2.2862,-2.2409,-2.2435,-2.1535,-2.1016,-2.0799,-2.0622,-2.0255,-1.9787,-1.9394,-1.8336,-1.6841,-1.6654,-1.592,-1.4901,-1.5068,-1.5337,-1.5718,-1.5751,-1.5784,-1.5784,-2.9383,-3.1272,-3.3,-3.3696,-3.4419,-3.5181,-3.5893,-3.4816,-3.4452,-3.5876,-3.6059,0.0,0.0,0.0,0.0,0.0,0.0,-4.1359,-3.9265,0.0,-3.6398,-3.7597,-3.1556,-2.9564,0.0,-2.8323,-2.551,-2.4389,-2.4333,-2.3727,-2.2624,-2.1994,-2.1188,-2.0413,-2.3455,-2.4863,-2.5056,-2.752,-2.9972,-3.2075,-3.0901,-3.1888,-3.3891,0.0,-3.2742,-3.4414,-3.4414,0.0,0.0,-3.2959,-3.2527,-3.2251,-3.1061,0.0,0.0,0.0,0.0,0.0,0.0,0.0,0.0,-2.2989,0.0,0.0,0.0,0.0,-1.9606,0.0,0.0,0.0,0.0,0.0,0.0,0.0,0.0,0.0,0.0,0.0,0.0,0.0,0.0,0.0,0.0,0.0,0.0,0.0,0.0,0.0,-2.1722,-2.2666,-2.2985,-2.2757,-2.339,-2.327,-2.2373,-2.2575,-2.2362,-2.175,-2.131,-2.1319,-2.1632,-2.0879,-2.0714,-2.0982,-1.966,-1.8422,-1.7215,-1.6577,-1.5593,-1.4589,-1.5157,-1.5391,-1.5444,-1.5678,-1.5784,-1.5784,-2.9347,-3.039,-3.1321,-3.1586,-3.263,-3.3673,-3.4419,-3.4949,-3.5794,0.0,-3.7466,0.0,0.0,-4.0139,-4.0349,0.0,0.0,-4.1491,-4.0735,-3.8659,0.0,-3.7873,-3.2603,-3.0195,0.0,-2.767,-2.5175,-2.406,-2.3592,-2.2958,-2.2203,-2.1542,-2.105,-2.0814,0.0,-2.5589,0.0,0.0,0.0,0.0,0.0,-3.1235,-3.318,0.0,-3.3848,-3.4414,-3.4414,-3.4414,-3.4341,-3.3906,-3.3209,-3.2553,-3.2991,-3.2124,-3.0891,-3.0638,-3.0132,-2.9311,-2.7801,-2.7855,-2.7524,-2.4105,0.0,0.0,0.0,0.0,0.0,0.0,0.0,0.0,0.0,0.0,0.0,0.0,0.0,0.0,0.0,0.0,0.0,0.0,0.0,0.0,0.0,0.0,0.0,0.0,0.0,0.0,0.0,-2.1564,-2.2057,-2.2014,-2.2252,-2.2206,-2.1888,-2.1747,-2.1544,-2.1319,-2.1172,-2.1181,-2.131,-2.1034,-2.0842,-2.0619,-1.9547,-1.8412,-1.7215,-1.6324,-1.5373,-1.4536,-1.4736,-1.505,-1.5431,-1.5718,-1.5784,-1.5784,-2.9397,-2.9655,-3.007,-3.0766,-3.1885,-3.2967,-3.3673,-3.4823,-3.6022,0.0,-3.7655,0.0,-4.1108,0.0,-4.0273,0.0,-4.1976,-4.119,-4.0704,-3.8995,0.0,-3.8213,-3.406,-3.1947,0.0,0.0,0.0,0.0,-2.4027,-2.3171,-2.2309,-2.1409,-2.1003,-2.109,0.0,-2.5386,-2.7534,0.0,-3.0858,0.0,0.0,-3.2046,0.0,0.0,-3.4138,-3.3757,-3.4254,-3.4414,-3.4414,-3.4414,-3.3796,-3.3161,-3.3719,-3.2611,-3.1133,-3.098,-3.0261,-2.9301,-2.8169,-2.8285,-2.7996,-2.4864,-2.42,-2.3441,-2.0096,0.0,-2.0067,0.0,0.0,0.0,0.0,0.0,0.0,0.0,0.0,0.0,0.0,0.0,0.0,0.0,0.0,0.0,0.0,0.0,0.0,0.0,0.0,0.0,0.0,0.0,-2.1198,-2.1248,-2.1257,-2.1193,-2.1046,-2.1108,-2.1034,-2.0906,-2.119,-2.1255,-2.1108,-2.1108,-2.0798,-2.0168,-1.922,-1.8159,-1.7062,-1.6075,-1.5286,-1.4689,-1.479,-1.5064,-1.5418,-1.5605,-1.5738,-1.5784,-2.9343,-2.9009,-2.9345,-3.1199,-3.2117,-3.2811,-3.3588,-3.4357,-3.5154,0.0,-3.6797,-3.785,-3.9251,-3.9361,-3.9928,-4.1366,-4.1262,-4.0631,-3.944,-3.8372,0.0,0.0,-3.5891,-3.4653,-3.5494,0.0,0.0,0.0,0.0,0.0,-2.2917,-2.1605,-2.1003,0.0,-2.233,0.0,-2.698,-2.9522,-3.2063,-3.4414,-3.4414,-3.437,-3.4293,-3.4317,-3.355,-3.2608,-3.3916,-3.4414,-3.4414,-3.438,-3.423,-3.3908,-3.3122,-3.2783,-3.2439,-3.1439,-3.1143,-3.0832,-2.9418,-2.8607,-2.7566,-2.5269,-2.4173,-2.3119,-2.0962,0.0,-2.1362,0.0,0.0,0.0,0.0,0.0,0.0,0.0,0.0,0.0,0.0,0.0,0.0,0.0,0.0,0.0,0.0,0.0,0.0,0.0,0.0,0.0,0.0,0.0,-2.0429,-2.0484,-2.0451,-2.031,-1.9893,-2.0695,-2.0888,-2.053,-2.1259,-2.1423,-2.1108,-2.1012,-2.049,-1.9657,-1.8592,-1.7688,-1.6821,-1.5798,-1.5224,-1.5035,-1.5264,-1.5384,-1.5398,-1.5411,-1.5591,-1.5784,-2.8445,-2.8918,-2.983,-3.0336,-3.0646,-3.123,-3.2348,-3.3608,-3.5011,0.0,-3.8033,-3.9298,-4.0765,-4.0362,-4.0334,-4.1198,-4.0622,0.0,0.0,0.0,0.0,-3.9367,-3.668,-3.5265,-3.5424,-3.1305,0.0,-2.8215,0.0,0.0,-2.3601,0.0,0.0,0.0,0.0,0.0,-2.698,-2.9522,-3.2063,-3.4414,-3.4414,-3.3848,-3.3042,0.0,-3.2721,-3.1834,-3.3734,-3.4414,-3.438,-3.423,-3.3859,-3.3346,-3.2903,-3.2318,-3.1613,-3.0581,-3.0215,-2.9897,-2.8917,-2.8507,-2.8037,-2.6663,-2.5541,-2.4434,-2.3062,-2.2596,-2.2419,0.0,0.0,0.0,0.0,0.0,0.0,0.0,0.0,0.0,0.0,0.0,0.0,0.0,0.0,0.0,0.0,0.0,0.0,0.0,0.0,0.0,0.0,0.0,0.0,-2.0012,-2.004,-1.9994,-1.9893,-2.0378,-2.0622,-2.0488,-2.0616,-2.0829,-2.1065,-1.964,-1.9295,-1.9613,-1.795,-1.7093,-1.6821,-1.5798,-1.5224,-1.5015,-1.5095,-1.5204,-1.5424,-1.5638,-1.5718,-1.5784,-2.8998,-2.9619,-3.0396,-3.0243,-3.0689,-3.1511,-3.2777,-3.3705,-3.4893,-3.6686,-3.7824,-3.8774,-3.9612,-3.9695,-3.9884,-4.0259,-3.9677,0.0,-3.9043,0.0,0.0,-3.8169,-3.7218,-3.6643,-3.6627,-3.3587,0.0,-2.9537,0.0,0.0,-2.3418,0.0,0.0,0.0,0.0,-2.4027,-2.617,-2.9856,-3.2266,-3.363,-3.4196,-3.3763,0.0,-3.3113,-3.2535,-3.1806,-3.2884,-3.3479,-3.377,-3.3667,-3.329,-3.2755,-3.2232,-3.1415,-3.0532,-2.9626,-2.925,-2.9067,-2.8618,-2.851,-2.8258,-2.7162,-2.642,-2.5552,-2.4034,-2.3448,-2.3228,-2.3228,-2.3159,-2.3087,0.0,0.0,0.0,0.0,0.0,0.0,0.0,0.0,0.0,0.0,0.0,0.0,0.0,0.0,0.0,0.0,0.0,0.0,0.0,0.0,0.0,-1.9632,-1.9485,-1.9445,-1.965,-2.0021,-2.0347,-2.0488,-2.0342,-2.0287,-2.0232,-1.8737,-1.8085,-1.8129,-1.7108,-1.655,-1.6401,-1.5811,-1.5491,-1.5344,-1.5344,-1.5444,-1.5605,-1.5718,-1.5784,-1.5784,-3.0164,0.0,0.0,0.0,-3.1499,-3.2736,-3.4022,-3.4409,-3.4988,-3.624,-3.7089,-3.759,-3.759,-3.8442,-3.9031,-3.9031,-3.8664,-3.8011,-3.69,-3.7666,-3.7709,-3.6606,-3.7607,-3.8202,-3.8202,-3.6794,-3.4298,0.0,0.0,-2.6547,-2.2859,0.0,0.0,0.0,0.0,0.0,0.0,-3.0422,-3.2527,-3.2829,-3.383,-3.3811,-3.3178,-3.2967,-3.2506,-3.1892,-3.1613,-3.2051,-3.2832,-3.2797,-3.2497,-3.1988,-3.1254,-3.0367,-2.9445,-2.8697,-2.851,-2.851,-2.851,-2.851,-2.827,-2.7246,-2.6946,-2.6393,-2.454,-2.4059,-2.4011,-2.4011,-2.3244,-2.3099,-2.4711,0.0,0.0,0.0,0.0,0.0,0.0,0.0,0.0,0.0,0.0,0.0,0.0,0.0,0.0,0.0,0.0,0.0,0.0,0.0,0.0,-1.9313,-1.8971,-1.8953,-1.9292,-1.9769,-2.0099,-2.0319,-2.0164,-1.9722,-1.8965,-1.7834,-1.6946,-1.625,-1.6161,-1.598,-1.5724,-1.5764,-1.5784,-1.5784,-1.5784,-1.5784,-1.5784,-1.5784,-1.5784,-1.5784,-3.0453,0.0,0.0,0.0,0.0,-3.3416,-3.4582,-3.5392,-3.6126,-3.6869,-3.7896,-3.8552,-3.8552,-3.8591,-3.859,-3.859,-3.8389,-3.8153,0.0,0.0,0.0,-3.7883,-3.8086,-3.8202,-3.8202,-3.5923,-3.363,0.0,0.0,-2.5691,-2.2859,-2.1612,0.0,0.0,0.0,0.0,-2.9697,-3.109,0.0,-3.4028,-3.3587,-3.3332,-3.3073,-3.1806,-3.1217,-3.1007,-3.0114,-3.0758,-3.1942,-3.1636,-3.1156,-3.057,-3.0114,-2.951,-2.891,-2.8578,-2.851,-2.851,-2.851,-2.851,-2.8366,-2.7702,-2.7222,-2.6681,-2.5877,-2.5348,-2.5035,-2.5035,-2.4891,-2.4482,-2.3556,0.0,0.0,0.0,0.0,0.0,0.0,0.0,0.0,0.0,0.0,0.0,0.0,0.0,0.0,0.0,0.0,0.0,0.0,0.0,0.0,0.0,-1.9228,0.0,0.0,0.0,-2.0027,-1.9333,-1.9138,-1.8693,-1.7929,-1.6227,-1.5606,-1.5843,-1.542,-1.5332,-1.5491,-1.5732,-1.5784,-1.5784,-1.5784,-1.5784,-1.5784,-1.5784,-1.5784,-1.5784,-3.1319,0.0,0.0,0.0,0.0,-3.4798,-3.5741,-3.6742,-3.7293,-3.698,-3.7432,-3.7744,-3.7744,-3.8216,-3.8478,-3.8478,-3.8315,-3.8202,-3.8202,-3.8202,-3.8202,-3.8202,-3.8202,-3.8202,-3.8202,-3.6997,-3.4617,-3.1032,-2.9522,-2.6591,-2.2403,-2.1452,-2.0828,-2.0625,0.0,-2.5636,0.0,0.0,-3.2539,-3.3419,-3.3265,-3.2897,-3.2362,-3.1193,-3.0418,-2.9896,-2.9289,-2.9588,-3.0304,-3.0494,-3.0304,-2.9935,-2.9742,-2.9211,-2.8618,-2.855,-2.851,-2.851,-2.851,-2.851,-2.8318,-2.7474,-2.709,-2.6681,-2.5877,-2.5492,-2.5312,-2.5312,-2.5312,-2.4796,-2.3158,-2.1414,0.0,0.0,0.0,0.0,0.0,0.0,0.0,0.0,0.0,0.0,0.0,0.0,0.0,0.0,0.0,0.0,0.0,0.0,0.0,0.0,0.0,0.0,-1.9622,0.0,-1.9433,-1.9401,-1.8458,-1.7659,-1.6997,-1.5613,-1.5062,-1.513,-1.5052,-1.513,-1.5418,-1.5712,-1.5784,-1.5784,-1.5784,-1.5784,-1.5784,-1.5784,-1.5784,-1.5784,0.0,-3.2897,0.0,0.0,-3.5091,-3.6118,-3.6617,-3.7682,-3.815,-3.7269,-3.7122,-3.7086,-3.7086,-3.7901,-3.8441,-3.8441,-3.8277,-3.8202,-3.8202,-3.8202,-3.8202,-3.8202,-3.8202,-3.8202,-3.8202,-3.8202,-3.5967,0.0,-3.0874,-2.7939,-2.2773,-2.1699,-2.1249,-2.1409,0.0,0.0,-2.795,-3.0616,-3.195,-3.2373,-3.2521,-3.2146,-3.1392,-3.057,-2.9793,-2.9052,-2.8882,-2.8791,-2.8882,-2.9496,-2.9574,-2.9433,-2.9433,-2.8988,-2.851,-2.851,-2.851,-2.851,-2.851,-2.851,-2.8282,-2.7294,-2.6982,-2.6645,-2.5697,-2.5384,-2.5312,-2.5312,-2.5276,-2.4727,-2.2995,-2.1792,-2.085,0.0,0.0,0.0,0.0,0.0,0.0,0.0,0.0,0.0,0.0,0.0,0.0,0.0,0.0,0.0,0.0,0.0,0.0,0.0,0.0,-1.8939,-1.9587,0.0,-1.8982,-1.9356,-1.7949,-1.689,-1.608,-1.5353,-1.477,-1.4442,-1.4743,-1.507,-1.5418,-1.5645,-1.5724,-1.5784,-1.5784,-1.5784,-1.5784,-1.5784,-1.5784,-1.5784,-3.4023,0.0,0.0,-3.4618,-3.5722,-3.6617,-3.6357,-3.7426,-3.8271,-3.8318,-3.8177,-3.8065,-3.8065,-3.8167,-3.824,-3.824,-3.8202,-3.8202,-3.8202,-3.8202,-3.8202,-3.8202,-3.8202,-3.8202,-3.8202,-3.8202,-3.6838,0.0,-3.1714,-2.884,-2.5386,-2.3006,-2.3107,-2.5245,-2.4817,-2.6945,-3.082,-2.9697,-3.0246,-3.178,-3.093,-3.0507,-3.0355,-2.9535,-2.9157,-2.9052,-2.8882,-2.8791,-2.8803,-2.8657,-2.863,-2.8618,-2.8618,-2.8538,-2.851,-2.851,-2.851,-2.851,-2.851,-2.851,-2.8366,-2.775,-2.7246,-2.6741,-2.6166,-2.5661,-2.5312,-2.5312,-2.5218,-2.4599,-2.2852,-2.3371,-2.3259,0.0,0.0,0.0,0.0,0.0,0.0,0.0,0.0,0.0,0.0,0.0,0.0,0.0,0.0,0.0,0.0,0.0,0.0,-1.7996,0.0,-1.855,-1.8631,-1.926,-1.9192,-1.8332,-1.7627,-1.6536,-1.5136,-1.5053,-1.47,-1.4142,-1.4436,-1.4877,-1.5398,-1.5424,-1.5591,-1.5784,-1.5784,-1.5784,-1.5784,-1.5784,-1.5784,-1.5784,-3.5851,-3.5729,-3.579,-3.6298,-3.6462,-3.6691,-3.7331,-3.7883,-3.824,-3.8315,-3.824,-3.8202,-3.8202,-3.8202,-3.8202,-3.8202,-3.8202,-3.8202,-3.8202,-3.8202,-3.8202,-3.8202,-3.8202,-3.8202,-3.8202,-3.8202,-3.6954,-3.4414,-3.183,-2.8956,-2.5789,-2.464,-2.4991,-2.6608,-2.6956,-2.8115,-2.9817,-3.0265,-3.0895,-3.1549,-3.0645,-3.0241,-3.0037,-2.9223,-2.8843,-2.8749,-2.8657,-2.8618,-2.8618,-2.855,-2.851,-2.851,-2.851,-2.851,-2.851,-2.851,-2.851,-2.851,-2.851,-2.851,-2.8378,-2.781,-2.7294,-2.6753,-2.6226,-2.5685,-2.5312,-2.5312,-2.5182,-2.4862,-2.4024,-2.3454,-2.3016,-2.273,0.0,0.0,0.0,0.0,0.0,0.0,0.0,0.0,0.0,0.0,0.0,0.0,0.0,0.0,0.0,0.0,0.0,-1.6676,0.0,-1.917,-1.8855,-1.8811,-1.8697,-1.8544,-1.7073,-1.5889,-1.5008,-1.5008,-1.4743,-1.4355,-1.4469,-1.485,-1.5398,-1.5398,-1.5565,-1.5784,-1.5784,-1.5784,-1.5784,-1.5784,-1.5784,-1.5784,-3.7081,-3.6652,-3.6626,-3.7616,-3.7317,-3.7245,-3.8072,-3.8202,-3.8202,-3.8202,-3.8202,-3.8202,-3.8202,-3.8202,-3.8202,-3.8202,-3.8202,-3.8202,-3.8202,-3.8202,-3.8202,-3.8202,-3.8202,-3.8202,-3.8202,-3.8202,-3.7317,-3.5532,-3.2962,-3.0509,-2.822,-2.7263,-2.73,-2.8182,-2.8766,-2.9125,-2.9308,-3.0286,-3.0732,-3.0644,-3.0012,-2.9678,-2.951,-2.891,-2.8618,-2.851,-2.851,-2.851,-2.851,-2.851,-2.851,-2.851,-2.851,-2.851,-2.851,-2.851,-2.851,-2.851,-2.851,-2.851,-2.8426,-2.8041,-2.7522,-2.6982,-2.6466,-2.5925,-2.5457,-2.5277,-2.5076,-2.4873,-2.4754,-2.3642,-2.2994,-2.3662,0.0,0.0,0.0,0.0,0.0,0.0,0.0,0.0,0.0,0.0,0.0,0.0,0.0,0.0,0.0,0.0,0.0,0.0,0.0,0.0,-1.908,-1.8169,-1.7995,-1.8557,-1.6567,-1.5292,-1.4771,-1.4599,-1.4408,-1.4266,-1.4309,-1.4625,-1.5179,-1.5265,-1.5471,-1.5784,-1.5784,-1.5784,-1.5784,-1.5784,-1.5784,-1.5784,-3.7382,-3.7629,-3.7856,-3.8146,-3.8352,-3.8412,-3.824,-3.8202,-3.8202,-3.8202,-3.8202,-3.8202,-3.8202,-3.8202,-3.8202,-3.8202,-3.8202,-3.8202,-3.8202,-3.8202,-3.8202,-3.8202,-3.8202,-3.8202,-3.8202,-3.8202,-3.8188,-3.8159,-3.5604,-3.424,-3.3935,-3.1211,-3.0193,-3.0629,-2.9918,-2.9859,-3.0203,-2.925,-2.8831,-2.8791,-2.8618,-2.851,-2.851,-2.851,-2.851,-2.851,-2.851,-2.851,-2.851,-2.851,-2.851,-2.851,-2.851,-2.851,-2.851,-2.851,-2.851,-2.851,-2.851,-2.851,-2.851,-2.8498,-2.8102,-2.7534,-2.7006,-2.649,-2.5913,-2.5218,-2.4814,-2.449,-2.449,-2.4334,-2.3844,-2.2891,-2.3523,0.0,0.0,0.0,0.0,0.0,-1.8572,-1.6941,-1.8547,0.0,0.0,0.0,0.0,0.0,0.0,0.0,0.0,-1.8306,-1.7838,0.0,-1.8996,-1.7349,-1.7001,-1.7987,-1.6055,-1.4778,-1.4199,-1.3652,-1.3532,-1.3714,-1.3777,-1.4103,-1.4617,-1.4897,-1.5325,-1.5784,-1.5784,-1.5784,-1.5784,-1.5784,-1.5784,-1.5784,-3.837,-3.8341,-3.8304,-3.8397,-3.8329,-3.8277,-3.8202,-3.8202,-3.8202,-3.8202,-3.8202,-3.8202,-3.8202,-3.8202,-3.8202,-3.8202,-3.8202,-3.8202,-3.8202,-3.8202,-3.8202,-3.8202,-3.8202,-3.8202,-3.8202,-3.8202,-3.8202,-3.8202,-3.5662,-3.3928,-3.2967,-3.088,-3.0659,-3.1938,-3.0738,-3.0101,-2.9819,-2.8949,-2.8618,-2.8578,-2.855,-2.851,-2.851,-2.851,-2.851,-2.851,-2.851,-2.851,-2.851,-2.851,-2.851,-2.851,-2.851,-2.851,-2.851,-2.851,-2.851,-2.851,-2.851,-2.851,-2.851,-2.851,-2.8114,-2.7642,-2.7308,-2.6728,-2.6081,-2.5499,-2.5466,-2.5326,-2.4629,-2.4611,-2.4476,-2.3821,-2.3982,-2.4064,-2.3668,0.0,0.0,0.0,-2.0817,-2.0059,0.0,-1.7696,0.0,0.0,0.0,0.0,0.0,0.0,0.0,0.0,-1.7929,0.0,-1.797,-1.6987,-1.668,-1.6962,-1.5676,-1.4778,-1.4199,-1.3646,-1.344,-1.3496,-1.3727,-1.4008,-1.4334,-1.4628,-1.4963,-1.5315,-1.5315,-1.5404,-1.5588,-1.5588,-1.5683,-1.5784,-3.856,-3.8464,-3.8404,-3.8404,-3.8277,-3.8202,-3.8202,-3.8202,-3.8202,-3.8202,-3.8202,-3.8202,-3.8202,-3.8202,-3.8202,-3.8202,-3.8202,-3.8202,-3.8202,-3.8202,-3.8202,-3.8202,-3.8202,-3.8202,-3.8202,-3.8202,-3.8202,-3.8202,-3.612,-3.4472,-3.3276,-3.2117,-3.1759,-3.2117,-3.1213,-3.0261,-2.9223,-2.8697,-2.851,-2.851,-2.851,-2.851,-2.851,-2.851,-2.851,-2.851,-2.851,-2.851,-2.851,-2.851,-2.851,-2.851,-2.851,-2.851,-2.851,-2.851,-2.851,-2.851,-2.851,-2.851,-2.851,-2.851,-2.827,-2.7879,-2.7481,-2.6759,-2.611,-2.5744,-2.5791,-2.5723,-2.5075,-2.4804,-2.4592,-2.4299,-2.3942,-2.3727,-2.3717,0.0,-2.2587,0.0,0.0,0.0,0.0,-1.8653,-1.7928,0.0,0.0,0.0,0.0,0.0,0.0,-1.7216,-1.7545,-1.7657,-1.7425,-1.626,-1.5839,-1.621,-1.5036,-1.4343,-1.4077,-1.343,-1.3179,-1.3283,-1.3473,-1.3749,-1.4114,-1.4358,-1.4735,-1.5083,-1.5083,-1.522,-1.5356,-1.5445,-1.5588,-1.5669,-3.8202,-3.8202,-3.8202,-3.8202,-3.8202,-3.8202,-3.8202,-3.8202,-3.8202,-3.8202,-3.8202,-3.8202,-3.8202,-3.8202,-3.8202,-3.8202,-3.8202,-3.8202,-3.8202,-3.8202,-3.8202,-3.8202,-3.8202,-3.8202,-3.8202,-3.8202,-3.8165,-3.8089,-3.6766,-3.5588,-3.45,-3.4264,-3.3142,-3.1358,-3.132,-3.0288,-2.8558,-2.8522,-2.851,-2.851,-2.851,-2.851,-2.851,-2.851,-2.851,-2.851,-2.851,-2.851,-2.851,-2.851,-2.851,-2.851,-2.851,-2.851,-2.851,-2.851,-2.851,-2.851,-2.851,-2.851,-2.851,-2.851,-2.8471,-2.8259,-2.7561,-2.6737,-2.6089,-2.6043,-2.5912,-2.5757,-2.565,-2.4915,-2.4302,-2.423,-2.3514,-2.3145,-2.3505,-2.2497,-2.1473,-2.0811,-1.9646,-1.8889,-1.8916,-1.8701,-1.8878,0.0,0.0,0.0,0.0,0.0,-1.5756,-1.8708,-1.6875,-1.6264,-1.7203,-1.5283,-1.4765,-1.5697,-1.4216,-1.361,-1.387,-1.3045,-1.2839,-1.307,-1.3088,-1.3412,-1.3907,-1.418,-1.4593,-1.5035,-1.5035,-1.5083,-1.5083,-1.5356,-1.5493,-1.5501,-3.8202,-3.8202,-3.8202,-3.8202,-3.8202,-3.8202,-3.8202,-3.8202,-3.8202,-3.8202,-3.8202,-3.8202,-3.8202,-3.8202,-3.8202,-3.8202,-3.8202,-3.8202,-3.8202,-3.8202,-3.8202,-3.8202,-3.8202,-3.8202,-3.8202,-3.8202,-3.781,-3.6975,-3.5183,-3.4069,-3.3594,-3.2735,-3.1853,-3.0992,-3.0579,-2.992,-2.9088,-2.8679,-2.851,-2.851,-2.851,-2.851,-2.851,-2.851,-2.851,-2.851,-2.851,-2.851,-2.851,-2.851,-2.851,-2.851,-2.851,-2.851,-2.851,-2.851,-2.851,-2.851,-2.851,-2.851,-2.851,-2.851,-2.8271,-2.7926,-2.7572,-2.7186,-2.68,-2.6449,-2.6639,-2.6382,-2.4897,-2.4785,-2.4554,-2.3496,-2.3132,-2.2798,-2.2264,-2.1897,-2.1524,-2.1081,-2.0721,-2.0668,-2.0946,-2.0618,-2.0018,0.0,0.0,0.0,-1.8418,-1.6415,-1.6385,-1.8748,-1.6875,-1.5886,-1.617,-1.4908,-1.4436,-1.4669,-1.3853,-1.3513,-1.3586,-1.2952,-1.2747,-1.2808,-1.3,-1.3272,-1.3628,-1.389,-1.4204,-1.449,-1.449,-1.4592,-1.479,-1.4879,-1.5166,-1.5453,-3.8202,-3.8202,-3.8202,-3.8202,-3.8202,-3.8202,-3.8202,-3.8202,-3.8202,-3.8202,-3.8202,-3.8202,-3.8202,-3.8202,-3.8202,-3.8202,-3.8202,-3.8202,-3.8202,-3.8202,-3.8,-3.7606,-3.7606,-3.74,-3.7025,-3.7025,-3.6425,-3.5264,-3.4111,-3.3194,-3.2575,-3.1945,-3.1296,-3.0506,-3.0218,-2.9665,-2.8919,-2.8631,-2.851,-2.851,-2.851,-2.851,-2.851,-2.851,-2.851,-2.851,-2.851,-2.851,-2.851,-2.851,-2.851,-2.851,-2.851,-2.851,-2.851,-2.851,-2.851,-2.851,-2.851,-2.851,-2.8471,-2.8391,-2.7893,-2.7427,-2.7464,-2.6862,-2.6233,-2.6176,-2.6049,-2.5657,-2.458,-2.4273,-2.3949,-2.3158,-2.2708,-2.2252,-2.1774,-2.1688,-2.1601,-2.1408,-2.1313,-2.1316,-2.1544,-2.115,-2.0518,-1.9724,-1.9471,0.0,-1.9076,-1.736,-1.6898,-1.8072,-1.617,-1.5092,-1.5092,-1.458,-1.4298,-1.4292,-1.3767,-1.3513,-1.3495,-1.2952,-1.2705,-1.2717,-1.3,-1.3227,-1.3538,-1.3797,-1.4057,-1.4298,-1.4298,-1.4394,-1.4526,-1.4504,-1.4738,-1.5057,-3.8202,-3.8202,-3.8202,-3.8202,-3.8202,-3.8202,-3.8202,-3.8202,-3.8202,-3.8202,-3.8202,-3.8202,-3.8202,-3.8202,-3.8202,-3.8202,-3.8202,-3.8202,-3.8202,-3.8202,-3.781,-3.6936,-3.6897,-3.6478,-3.5574,-3.5413,-3.4761,-3.3704,-3.3322,-3.2605,-3.1705,-3.1705,-3.1187,-3.0206,-3.0122,-2.9544,-2.8619,-2.8546,-2.851,-2.851,-2.851,-2.851,-2.851,-2.851,-2.851,-2.851,-2.851,-2.851,-2.851,-2.851,-2.851,-2.851,-2.851,-2.851,-2.851,-2.8471,-2.8339,-2.8299,-2.8471,-2.8471,-2.8431,-2.8179,-2.739,-2.6747,-2.7151,-2.5998,-2.4981,-2.5512,-2.4978,-2.4363,-2.4307,-2.3617,-2.3003,-2.2756,-2.2117,-2.165,-2.1531,-2.1614,-2.1696,-2.1651,-2.1482,-2.1392,-2.1347,-2.0934,-2.0699,-2.0699,-2.0473,-2.0246,-2.0056,-1.8326,-1.725,-1.7063,-1.5283,-1.4298,-1.4298,-1.4298,-1.4298,-1.4292,-1.3767,-1.3513,-1.3495,-1.2952,-1.2705,-1.2717,-1.2958,-1.323,-1.3532,-1.3755,-1.402,-1.4298,-1.4298,-1.4274,-1.4261,-1.4274,-1.439,-1.449,-3.8202,-3.8202,-3.8202,-3.8202,-3.8202,-3.8202,-3.8202,-3.8202,-3.8202,-3.8202,-3.8202,-3.8202,-3.8202,-3.8202,-3.8202,-3.8202,-3.8202,-3.8202,-3.8202,-3.8202,-3.781,-3.6936,-3.6897,-3.6399,-3.5386,-3.4444,-3.3914,-3.3704,-3.2686,-3.2013,-3.1705,-3.1705,-3.138,-3.0778,-3.029,-2.9749,-2.9148,-2.8703,-2.851,-2.851,-2.851,-2.851,-2.851,-2.851,-2.851,-2.851,-2.851,-2.851,-2.851,-2.851,-2.851,-2.851,-2.851,-2.851,-2.8471,-2.8299,-2.7701,-2.7273,-2.8259,-2.8379,-2.8179,-2.8002,-2.6858,-2.582,-2.6011,-2.4775,-2.3801,-2.4534,-2.4336,-2.3844,-2.3418,-2.3183,-2.2602,-2.1146,-2.1369,-2.1449,-2.0763,-2.1257,-2.1651,-2.1482,-2.1446,-2.1293,-2.1096,-2.0826,-2.0699,-2.0699,-2.0473,-1.992,-1.9072,-1.7948,-1.6922,-1.6082,-1.4908,-1.4298,-1.4298,-1.4298,-1.4298,-1.4292,-1.3767,-1.3513,-1.3495,-1.2952,-1.2705,-1.2705,-1.2747,-1.3055,-1.3519,-1.3556,-1.3857,-1.4298,-1.4298,-1.4159,-1.399,-1.4219,-1.4194,-1.406,-3.8202,-3.8202,-3.8202,-3.8202,-3.8202,-3.8202,-3.8202,-3.8202,-3.8202,-3.8202,-3.8202,-3.8202,-3.8202,-3.8202,-3.8202,-3.8202,-3.8202,-3.8202,-3.8202,-3.8202,-3.7553,-3.6122,-3.6042,-3.5305,-3.3771,-3.3104,-3.276,-3.276,-3.2145,-3.1805,-3.1705,-3.1705,-3.1271,-3.0446,-3.0194,-2.9641,-2.8859,-2.8619,-2.851,-2.851,-2.851,-2.851,-2.851,-2.851,-2.851,-2.851,-2.851,-2.851,-2.851,-2.851,-2.851,-2.851,-2.851,-2.8087,-2.758,-2.7447,-2.7069,-2.6771,-2.7284,-2.6905,-2.6483,-2.6899,-2.5768,-2.4686,-2.5009,-2.3722,-2.2644,-2.3265,-2.2708,-2.2078,-2.203,-2.2029,-2.1851,-2.1243,-2.1449,-2.1559,-2.1183,-2.1458,-2.1607,-2.1437,-2.1293,-2.1096,-2.0871,-2.06,-2.0473,-2.0473,-2.0382,-1.9874,-1.8834,-1.7855,-1.6821,-1.5846,-1.4813,-1.4298,-1.4298,-1.4298,-1.4226,-1.4081,-1.3701,-1.3441,-1.329,-1.2886,-1.2705,-1.2711,-1.2868,-1.3151,-1.3525,-1.367,-1.3954,-1.4298,-1.4298,-1.422,-1.4117,-1.4093,-1.4076,-1.4093,-3.8202,-3.8202,-3.8202,-3.8202,-3.8202,-3.8202,-3.8202,-3.8202,-3.8202,-3.8202,-3.8202,-3.8202,-3.8202,-3.8202,-3.8202,-3.8202,-3.8202,-3.8165,-3.8127,-3.7924,-3.7078,-3.5386,-3.4815,-3.3843,-3.2431,-3.2081,-3.1937,-3.1994,-3.1805,-3.1705,-3.1705,-3.1705,-3.1211,-3.0266,-3.0146,-2.9569,-2.8691,-2.8558,-2.851,-2.851,-2.851,-2.851,-2.851,-2.851,-2.851,-2.851,-2.851,-2.851,-2.851,-2.851,-2.851,-2.8471,-2.8431,-2.7661,-2.6771,-2.67,-2.6235,-2.5766,-2.6099,-2.5504,-2.4957,-2.5704,-2.4629,-2.3532,-2.4043,-2.269,-2.1444,-2.2057,-2.1222,-2.0461,-2.0897,-2.097,-2.1044,-2.1238,-2.1431,-2.1513,-2.1421,-2.1568,-2.1607,-2.1437,-2.115,-2.0907,-2.0699,-2.0473,-2.0292,-2.0292,-2.0056,-1.9492,-1.8511,-1.7483,-1.6499,-1.5466,-1.4717,-1.4298,-1.4298,-1.4298,-1.4165,-1.3906,-1.364,-1.3381,-1.3071,-1.2831,-1.2705,-1.2717,-1.2934,-1.3212,-1.3532,-1.3731,-1.4008,-1.4298,-1.4298,-1.4262,-1.4189,-1.4051,-1.4011,-1.4035,-3.8202,-3.8202,-3.8202,-3.8202,-3.8202,-3.8202,-3.8202,-3.8202,-3.8202,-3.8202,-3.8202,-3.8202,-3.8202,-3.8202,-3.8202,-3.8202,-3.8202,-3.8142,-3.7929,-3.7159,-3.6281,-3.5346,-3.3348,-3.2288,-3.24,-3.1937,-3.1805,-3.1994,-3.1805,-3.1705,-3.1705,-3.1705,-3.1404,-3.0838,-3.0302,-2.9773,-2.9208,-2.8715,-2.851,-2.851,-2.851,-2.851,-2.851,-2.851,-2.851,-2.851,-2.851,-2.851,-2.851,-2.851,-2.851,-2.8471,-2.8259,-2.758,-2.6741,-2.634,-2.4851,-2.3597,-2.4872,-2.4999,-2.483,-2.4872,-2.3746,-2.2706,-2.3128,-2.156,-2.0274,-2.1038,-2.0545,-2.0058,-2.0451,-2.0558,-2.0415,-2.0076,-2.0677,-2.1025,-2.0616,-2.122,-2.1607,-2.1437,-2.115,-2.0907,-2.0699,-2.0473,-2.0292,-2.0292,-1.9446,-1.8465,-1.7475,-1.6452,-1.5466,-1.4436,-1.434,-1.4298,-1.4298,-1.4298,-1.4165,-1.3906,-1.364,-1.3381,-1.3071,-1.2831,-1.2705,-1.2705,-1.2729,-1.3031,-1.3513,-1.3538,-1.3839,-1.4298,-1.4298,-1.4147,-1.396,-1.4183,-1.396,-1.3656,-3.8202,-3.8202,-3.8202,-3.8202,-3.8202,-3.8202,-3.8202,-3.8202,-3.8202,-3.8202,-3.8202,-3.8202,-3.8202,-3.8202,-3.8202,-3.8202,-3.8104,-3.7749,-3.7144,-3.6545,-3.5588,-3.4139,-3.263,-3.1849,-3.1981,-3.1793,-3.1761,-3.1805,-3.1761,-3.1705,-3.1705,-3.1705,-3.1428,-3.0898,-3.0326,-2.9797,-2.9268,-2.8739,-2.851,-2.851,-2.851,-2.851,-2.851,-2.851,-2.851,-2.851,-2.851,-2.851,-2.851,-2.851,-2.8431,-2.8219,-2.7528,-2.6524,-2.5294,-2.3833,-2.2853,-2.2334,-2.2833,-2.2921,-2.3008,-2.3607,-2.2892,-2.1983,-2.187,-2.1042,-2.031,-2.0323,-1.9925,-1.9668,-2.0031,-2.0113,-2.0149,-2.0283,-2.0549,-2.0686,-2.0539,-2.0744,-2.0985,-2.103,-2.0784,-2.0651,-2.0718,-2.0473,-2.0056,-1.9401,-1.9026,-1.8087,-1.6452,-1.5419,-1.4669,-1.4298,-1.4298,-1.4298,-1.4298,-1.4298,-1.4087,-1.3664,-1.3562,-1.329,-1.2862,-1.2753,-1.2705,-1.2711,-1.2886,-1.3175,-1.3525,-1.3688,-1.3972,-1.4298,-1.4298,-1.4238,-1.4159,-1.4262,-1.4171,-1.4026,-3.8202,-3.8202,-3.8202,-3.8202,-3.8202,-3.8202,-3.8202,-3.8202,-3.8202,-3.8202,-3.8202,-3.8202,-3.8202,-3.8127,-3.8104,-3.8104,-3.7915,-3.7534,-3.6872,-3.5963,-3.4774,-3.3267,-3.2239,-3.1705,-3.1705,-3.1705,-3.1705,-3.1705,-3.1705,-3.1705,-3.1705,-3.1705,-3.1428,-3.0898,-3.0494,-2.9941,-2.928,-2.8919,-2.8655,-2.851,-2.851,-2.851,-2.851,-2.851,-2.851,-2.851,-2.851,-2.851,-2.8471,-2.8431,-2.8127,-2.762,-2.6864,-2.5515,-2.3943,-2.2201,-2.1696,-2.1696,-2.1696,-2.1696,-2.1865,-2.2501,-2.2098,-2.1421,-2.1172,-2.0704,-2.0214,-1.9948,-1.9595,-1.9393,-1.9677,-1.9692,-1.982,-2.0264,-2.0287,-2.0383,-2.0461,-2.0521,-2.0537,-2.0682,-2.0416,-2.0316,-2.057,-2.03,-1.9892,-1.9293,-1.898,-1.7902,-1.5893,-1.486,-1.4256,-1.4177,-1.4171,-1.4135,-1.4051,-1.4135,-1.3954,-1.3513,-1.3429,-1.3151,-1.2705,-1.2705,-1.2753,-1.285,-1.3043,-1.332,-1.3652,-1.3833,-1.4057,-1.4298,-1.4298,-1.4298,-1.4298,-1.4298,-1.4298,-1.4298,-3.8202,-3.8202,-3.8202,-3.8202,-3.8202,-3.8202,-3.8202,-3.8202,-3.8202,-3.8202,-3.8202,-3.8202,-3.8202,-3.8028,-3.7891,-3.7891,-3.7701,-3.7495,-3.7264,-3.5386,-3.3888,-3.3023,-3.2164,-3.1705,-3.1705,-3.1705,-3.1705,-3.1705,-3.1705,-3.1705,-3.1705,-3.1705,-3.1428,-3.0922,-3.0922,-3.029,-2.9304,-2.9304,-2.8991,-2.851,-2.851,-2.851,-2.851,-2.851,-2.851,-2.8471,-2.8471,-2.8471,-2.8431,-2.8259,-2.758,-2.6689,-2.631,-2.4776,-2.2921,-2.1989,-2.1696,-2.1696,-2.1696,-2.1696,-2.1687,-2.1687,-2.142,-2.1108,-2.1099,-2.0451,-1.9893,-1.9884,-1.9595,-1.9301,-1.9301,-1.9301,-1.9439,-1.982,-1.9884,-2.0021,-2.0415,-2.0512,-2.0512,-2.047,-2.0099,-1.9961,-2.0342,-1.9947,-1.9845,-2.0257,-1.9347,-1.7894,-1.5886,-1.4854,-1.4171,-1.3912,-1.3906,-1.3779,-1.3519,-1.3773,-1.3773,-1.3507,-1.3248,-1.2976,-1.2705,-1.2705,-1.2862,-1.3083,-1.3083,-1.3423,-1.3906,-1.3912,-1.4063,-1.4298,-1.4298,-1.4298,-1.4298,-1.4298,-1.4298,-1.4346,-3.8202,-3.8202,-3.8202,-3.8202,-3.8202,-3.8202,-3.8202,-3.8202,-3.8202,-3.8202,-3.8202,-3.8127,-3.7991,-3.7929,-3.7853,-3.7701,-3.6964,-3.5856,-3.4402,-3.3733,-3.298,-3.212,-3.1825,-3.1705,-3.1705,-3.1705,-3.1705,-3.1705,-3.1705,-3.1705,-3.1705,-3.1705,-3.1621,-3.144,-3.0651,-3.0146,-2.9797,-2.9063,-2.8655,-2.851,-2.851,-2.851,-2.851,-2.851,-2.8139,-2.7592,-2.7592,-2.708,-2.637,-2.6329,-2.5891,-2.5252,-2.4286,-2.3139,-2.2078,-2.1776,-2.1696,-2.1696,-2.1696,-2.1476,-2.1291,-2.1291,-2.12,-2.0961,-2.0411,-2.0058,-1.9802,-1.9549,-1.9393,-1.9301,-1.9301,-1.9301,-1.9347,-1.9467,-1.9494,-1.9531,-1.965,-1.9668,-1.9778,-2.0031,-1.9828,-1.9731,-1.9952,-1.9721,-1.928,-1.855,-1.6944,-1.5552,-1.4518,-1.3985,-1.3713,-1.3634,-1.3634,-1.3592,-1.3513,-1.3592,-1.3501,-1.3242,-1.3157,-1.2976,-1.2705,-1.2705,-1.2862,-1.3089,-1.332,-1.3592,-1.3918,-1.4105,-1.4226,-1.4298,-1.4298,-1.4298,-1.4298,-1.4298,-1.4298,-1.4346,-3.8202,-3.8202,-3.8202,-3.8202,-3.8202,-3.8202,-3.8202,-3.8202,-3.8202,-3.8202,-3.8202,-3.8127,-3.7929,-3.7815,-3.7701,-3.7495,-3.652,-3.5074,-3.3109,-3.298,-3.2618,-3.1749,-3.1705,-3.1705,-3.1705,-3.1705,-3.1705,-3.1705,-3.1705,-3.1705,-3.1705,-3.1705,-3.1597,-3.1368,-3.073,-3.017,-2.9737,-2.9088,-2.8703,-2.851,-2.851,-2.851,-2.851,-2.851,-2.7966,-2.7185,-2.7092,-2.637,-2.5484,-2.5274,-2.4755,-2.3943,-2.2887,-2.2167,-2.1696,-2.1696,-2.1696,-2.1659,-2.1485,-2.13,-2.1034,-2.0723,-2.064,-2.0521,-1.9994,-1.9756,-1.9613,-1.9356,-1.9301,-1.9301,-1.9301,-1.9301,-1.9301,-1.9301,-1.9301,-1.9301,-1.9301,-1.9301,-1.9393,-1.961,-1.9484,-1.9452,-1.9722,-1.9446,-1.8863,-1.7826,-1.6294,-1.5093,-1.4374,-1.378,-1.3465,-1.3363,-1.3363,-1.3308,-1.3194,-1.3194,-1.3169,-1.3083,-1.3012,-1.2868,-1.2705,-1.2819,-1.3019,-1.3252,-1.3556,-1.3815,-1.4075,-1.4232,-1.4298,-1.4298,-1.4298,-1.4298,-1.4298,-1.4298,-1.4394,-1.4496,-3.8202,-3.8202,-3.8202,-3.8202,-3.8202,-3.8202,-3.8202,-3.8202,-3.8202,-3.8202,-3.8165,-3.8104,-3.7891,-3.7701,-3.7495,-3.7303,-3.6322,-3.4951,-3.3109,-3.298,-3.2618,-3.1749,-3.1705,-3.1705,-3.1705,-3.1705,-3.1705,-3.1705,-3.1705,-3.1705,-3.1705,-3.1705,-3.1452,-3.0983,-3.0886,-3.0266,-2.9364,-2.9268,-2.8955,-2.851,-2.851,-2.851,-2.8471,-2.8431,-2.7846,-2.701,-2.6689,-2.5986,-2.5147,-2.467,-2.3813,-2.2843,-2.1945,-2.1696,-2.1696,-2.1696,-2.1696,-2.1595,-2.1218,-2.108,-2.0869,-2.0076,-1.9866,-1.9829,-1.9829,-1.9577,-1.9301,-1.9301,-1.9301,-1.9301,-1.9301,-1.9301,-1.9301,-1.9301,-1.9301,-1.9301,-1.9301,-1.9301,-1.9301,-1.9301,-1.9152,-1.9146,-1.9525,-1.9141,-1.8523,-1.7703,-1.6775,-1.5817,-1.489,-1.3943,-1.3332,-1.3053,-1.3041,-1.2964,-1.2705,-1.2705,-1.2831,-1.3041,-1.2825,-1.2717,-1.2747,-1.2982,-1.3254,-1.3562,-1.3755,-1.4008,-1.4292,-1.4268,-1.428,-1.4298,-1.4298,-1.4298,-1.4298,-1.4346,-1.449,-1.4742,-3.8202,-3.8202,-3.8202,-3.8202,-3.8202,-3.8202,-3.8202,-3.8202,-3.8202,-3.8202,-3.8066,-3.7891,-3.7701,-3.7495,-3.7264,-3.707,-3.6243,-3.4951,-3.3109,-3.298,-3.2618,-3.1749,-3.1705,-3.1705,-3.1705,-3.1705,-3.1705,-3.1705,-3.1705,-3.1705,-3.1705,-3.1705,-3.1645,-3.15,-3.0627,-3.0134,-2.9857,-2.9027,-2.8619,-2.851,-2.851,-2.851,-2.8431,-2.7765,-2.6928,-2.5986,-2.502,-2.4006,-2.2984,-2.2545,-2.2201,-2.1945,-2.1776,-2.1696,-2.1696,-2.1696,-2.1696,-2.1595,-2.1218,-2.0879,-2.053,-2.0003,-1.9646,-1.9439,-1.9439,-1.9366,-1.9301,-1.9301,-1.9301,-1.9301,-1.9301,-1.9301,-1.9301,-1.9301,-1.9301,-1.9301,-1.9301,-1.9301,-1.9301,-1.9301,-1.9262,-1.9228,-1.9128,-1.8767,-1.7919,-1.6563,-1.5943,-1.4985,-1.3585,-1.3131,-1.2856,-1.2795,-1.2795,-1.2765,-1.2705,-1.2705,-1.2735,-1.2795,-1.2735,-1.2819,-1.3025,-1.2868,-1.3169,-1.3803,-1.3447,-1.3676,-1.428,-1.4075,-1.4111,-1.4298,-1.4298,-1.4298,-1.4346,-1.4544,-1.464,-1.479,-3.8202,-3.8202,-3.8202,-3.8202,-3.8202,-3.8202,-3.8202,-3.8202,-3.8179,-3.8066,-3.7967,-3.7777,-3.7495,-3.7341,-3.7056,-3.6441,-3.5561,-3.4444,-3.3066,-3.2618,-3.2164,-3.1705,-3.1705,-3.1705,-3.1705,-3.1705,-3.1705,-3.1705,-3.1705,-3.1705,-3.1705,-3.1705,-3.1705,-3.1657,-3.0555,-3.0086,-3.0013,-2.8967,-2.851,-2.851,-2.851,-2.8259,-2.7846,-2.7389,-2.6287,-2.4893,-2.4221,-2.3149,-2.2043,-2.1776,-2.1696,-2.1696,-2.1696,-2.1696,-2.1696,-2.1696,-2.1696,-2.1559,-2.0998,-2.0677,-2.0374,-1.9778,-1.9467,-1.9301,-1.9301,-1.9301,-1.9301,-1.9301,-1.9301,-1.9301,-1.9301,-1.9301,-1.9301,-1.9301,-1.9301,-1.9301,-1.9301,-1.9301,-1.9301,-1.9301,-1.9301,-1.9222,-1.9002,-1.8803,-1.797,-1.6194,-1.5808,-1.4958,-1.3349,-1.3004,-1.2875,-1.2875,-1.279,-1.2705,-1.2705,-1.2705,-1.2705,-1.2705,-1.2705,-1.2783,-1.2922,-1.291,-1.3133,-1.3525,-1.3375,-1.3616,-1.4099,-1.396,-1.4057,-1.4298,-1.4298,-1.458,-1.5003,-1.4777,-1.4879,-1.5118,-3.8202,-3.8202,-3.8202,-3.8202,-3.8202,-3.8202,-3.8202,-3.8165,-3.8104,-3.7929,-3.7853,-3.7663,-3.7341,-3.7264,-3.6808,-3.579,-3.4856,-3.393,-3.3066,-3.2196,-3.1705,-3.1705,-3.1705,-3.1705,-3.1705,-3.1705,-3.1705,-3.1705,-3.1705,-3.1705,-3.1705,-3.1705,-3.1705,-3.1657,-3.0555,-3.0086,-3.0013,-2.8967,-2.851,-2.8471,-2.8339,-2.7846,-2.7144,-2.6794,-2.561,-2.4049,-2.3671,-2.2731,-2.1696,-2.1696,-2.1696,-2.1696,-2.1696,-2.1696,-2.1696,-2.1696,-2.1696,-2.1531,-2.0824,-2.0525,-2.0338,-1.9595,-1.9356,-1.9301,-1.9301,-1.9301,-1.9301,-1.9301,-1.9301,-1.9301,-1.9301,-1.9301,-1.9301,-1.9301,-1.9301,-1.9301,-1.9301,-1.9301,-1.9301,-1.9301,-1.9301,-1.9222,-1.9082,-1.9002,-1.8175,-1.6198,-1.6041,-1.5255,-1.3476,-1.3222,-1.3094,-1.3094,-1.2839,-1.2705,-1.2705,-1.2705,-1.2705,-1.2705,-1.2705,-1.2729,-1.2783,-1.297,-1.3103,-1.32,-1.3326,-1.358,-1.3906,-1.3857,-1.4115,-1.458,-1.4621,-1.5235,-1.6075,-1.5527,-1.5622,-1.6048,-3.8202,-3.8202,-3.8202,-3.8202,-3.8202,-3.8202,-3.8202,-3.8066,-3.7929,-3.7891,-3.7625,-3.7341,-3.7303,-3.7148,-3.6691,-3.579,-3.4856,-3.393,-3.3066,-3.2196,-3.1705,-3.1705,-3.1705,-3.1705,-3.1705,-3.1705,-3.1705,-3.1705,-3.1705,-3.1705,-3.1705,-3.1705,-3.1705,-3.1657,-3.0555,-3.0086,-3.0013,-2.8967,-2.851,-2.8431,-2.7684,-2.7307,-2.701,-2.5189,-2.4339,-2.3963,-2.2775,-2.2043,-2.1696,-2.1696,-2.1696,-2.1696,-2.1696,-2.1696,-2.1696,-2.1696,-2.1696,-2.1586,-2.1154,-2.0778,-2.0369,-1.9921,-1.9567,-1.9301,-1.9301,-1.9301,-1.9301,-1.9301,-1.9301,-1.9301,-1.9301,-1.9301,-1.9301,-1.9301,-1.9301,-1.9301,-1.9301,-1.9301,-1.9301,-1.9301,-1.9301,-1.9301,-1.9262,-1.9112,-1.8256,-1.6486,-1.6116,-1.5255,-1.3476,-1.3222,-1.3094,-1.3094,-1.2839,-1.2705,-1.2705,-1.2705,-1.2705,-1.2705,-1.2705,-1.2831,-1.3061,-1.2856,-1.3019,-1.3435,-1.3,-1.323,-1.3888,-1.3664,-1.4356,-1.5609,-1.5832,-1.6579,-1.7468,-1.7794,-1.8079,-1.8234,-3.8275,-3.8202,-3.8202,-3.8202,-3.8202,-3.8165,-3.8066,-3.7967,-3.7815,-3.7586,-3.7419,-3.7264,-3.7148,-3.707,-3.6652,-3.579,-3.4856,-3.393,-3.3066,-3.2196,-3.1705,-3.1705,-3.1705,-3.1705,-3.1705,-3.1705,-3.1705,-3.1705,-3.1705,-3.1705,-3.1705,-3.1705,-3.1705,-3.1657,-3.0555,-3.0086,-3.0013,-2.8967,-2.851,-2.8431,-2.7551,-2.6805,-2.608,-2.4638,-2.3617,-2.2906,-2.2132,-2.1785,-2.1696,-2.1696,-2.1696,-2.1696,-2.1696,-2.1696,-2.1696,-2.1696,-2.1696,-2.1595,-2.1218,-2.0979,-2.0695,-2.0049,-1.9787,-1.9595,-1.9356,-1.9301,-1.9301,-1.9301,-1.9301,-1.9301,-1.9301,-1.9301,-1.9301,-1.9301,-1.9301,-1.9301,-1.9301,-1.9301,-1.9301,-1.9301,-1.9301,-1.9301,-1.9301,-1.9222,-1.8447,-1.669,-1.6453,-1.5628,-1.3864,-1.3568,-1.344,-1.344,-1.3372,-1.32,-1.2924,-1.3071,-1.2985,-1.2705,-1.2862,-1.2922,-1.2886,-1.2759,-1.2831,-1.3055,-1.2976,-1.3528,-1.45,-1.4532,-1.5464,-1.6868,-1.7001,-1.7375,-1.7987,-1.891,-1.8964,-1.8427]},{"header":{"parameterUnit":"m.s-1","parameterCategory":1,"la1":30.6,"la2":28.766,"lo1":-90.7593,"lo2":-88.6598,"dx":0.0162,"dy":0.0183,"nx":116,"ny":114,"refTime":"2022-12-05T06:00:00:Z","depth":0,"parameterNumber":3,"parameterNumberName":"V-component_of_WINDS"},"data":[0.0,0.0,0.0,0.0,0.0,0.0,0.0,0.0,0.0,0.0,0.0,0.0,0.0,0.0,0.0,0.0,0.0,0.0,0.0,0.0,0.0,0.0,0.0,0.0,0.0,0.0,0.0,0.0,0.0,0.0,0.0,0.0,0.0,0.0,0.0,0.0,0.0,0.0,0.0,0.0,0.0,0.0,0.0,0.0,0.0,0.0,0.0,0.0,0.0,0.0,0.0,0.0,0.0,0.0,0.0,0.0,0.0,0.0,0.0,0.0,0.0,0.0,0.0,0.0,0.0,0.0,0.0,0.0,0.0,0.0,0.0,0.0,0.0,0.0,0.0,0.0,0.0,0.0,0.0,0.0,0.0,0.0,0.0,0.0,0.0,0.0,0.0,0.0,0.0,0.0,0.0,0.0,0.0,0.0,0.0,0.0,0.0,0.0,0.0,0.0,0.0,0.0,0.0,0.0,0.0,0.0,0.0,0.0,0.0,0.0,0.0,0.0,0.0,0.0,0.0,0.0,0.0,0.0,0.0,0.0,0.0,0.0,0.0,0.0,0.0,0.0,0.0,0.0,0.0,0.0,0.0,0.0,0.0,0.0,0.0,0.0,0.0,0.0,0.0,0.0,0.0,0.0,0.0,0.0,0.0,0.0,0.0,0.0,0.0,0.0,0.0,0.0,0.0,0.0,0.0,0.0,0.0,0.0,0.0,0.0,0.0,0.0,0.0,0.0,0.0,0.0,0.0,0.0,0.0,0.0,0.0,0.0,0.0,0.0,0.0,0.0,0.0,0.0,0.0,0.0,0.0,0.0,0.0,0.0,0.0,0.0,0.0,0.0,0.0,0.0,0.0,0.0,0.0,0.0,0.0,0.0,0.0,0.0,0.0,0.0,0.0,0.0,0.0,0.0,0.0,0.0,0.0,0.0,0.0,0.0,0.0,0.0,0.0,0.0,0.0,0.0,0.0,0.0,0.0,0.0,0.0,0.0,0.0,0.0,0.0,0.0,0.0,0.0,0.0,0.0,0.0,0.0,0.0,0.0,0.0,0.0,0.0,0.0,0.0,0.0,0.0,0.0,0.0,0.0,0.0,0.0,0.0,0.0,0.0,0.0,0.0,0.0,0.0,0.0,0.0,0.0,0.0,0.0,0.0,0.0,0.0,0.0,0.0,0.0,0.0,0.0,0.0,0.0,0.0,0.0,0.0,0.0,0.0,0.0,0.0,0.0,0.0,0.0,0.0,0.0,0.0,0.0,0.0,0.0,0.0,0.0,0.0,0.0,0.0,0.0,0.0,0.0,0.0,0.0,0.0,0.0,0.0,0.0,0.0,0.0,0.0,0.0,0.0,0.0,0.0,0.0,0.0,0.0,0.0,0.0,0.0,0.0,0.0,0.0,0.0,0.0,0.0,0.0,0.0,0.0,0.0,0.0,0.0,0.0,0.0,0.0,0.0,0.0,0.0,0.0,0.0,0.0,0.0,0.0,0.0,0.0,0.0,0.0,0.0,0.0,0.0,0.0,0.0,0.0,0.0,0.0,0.0,0.0,0.0,0.0,0.0,0.0,0.0,0.0,0.0,0.0,0.0,0.0,0.0,0.0,0.0,0.0,0.0,0.0,0.0,0.0,0.0,0.0,0.0,0.0,0.0,0.0,0.0,0.0,0.0,0.0,0.0,0.0,0.0,0.0,0.0,0.0,0.0,0.0,0.0,0.0,0.0,0.0,0.0,0.0,0.0,0.0,0.0,0.0,0.0,0.0,0.0,0.0,0.0,0.0,0.0,0.0,0.0,0.0,0.0,0.0,0.0,0.0,0.0,0.0,0.0,0.0,0.0,0.0,0.0,0.0,0.0,0.0,0.0,0.0,0.0,0.0,0.0,0.0,0.0,0.0,0.0,0.0,0.0,0.0,0.0,0.0,0.0,0.0,0.0,0.0,0.0,0.0,0.0,0.0,0.0,0.0,0.0,0.0,0.0,0.0,0.0,0.0,0.0,0.0,0.0,0.0,0.0,0.0,0.0,0.0,0.0,0.0,0.0,0.0,0.0,0.0,0.0,0.0,0.0,0.0,0.0,0.0,0.0,0.0,0.0,0.0,0.0,0.0,0.0,0.0,0.0,0.0,0.0,0.0,0.0,0.0,0.0,0.0,0.0,0.0,0.0,0.0,0.0,0.0,0.0,0.0,0.0,0.0,0.0,0.0,0.0,0.0,0.0,0.0,0.0,0.0,0.0,0.0,0.0,0.0,0.0,0.0,0.0,0.0,0.0,0.0,0.0,0.0,0.0,0.0,0.0,0.0,0.0,0.0,0.0,0.0,0.0,0.0,0.0,0.0,0.0,0.0,0.0,0.0,0.0,0.0,0.0,0.0,0.0,0.0,0.0,0.0,0.0,0.0,0.0,0.0,0.0,0.0,0.0,0.0,0.0,0.0,0.0,0.0,0.0,0.0,0.0,0.0,0.0,0.0,0.0,0.0,0.0,0.0,0.0,0.0,0.0,0.0,0.0,0.0,0.0,0.0,0.0,0.0,0.0,0.0,0.0,0.0,0.0,0.0,0.0,0.0,0.0,0.0,0.0,0.0,0.0,0.0,0.0,0.0,0.0,0.0,0.0,0.0,0.0,0.0,0.0,0.0,0.0,0.0,0.0,0.0,0.0,0.0,0.0,0.0,0.0,0.0,0.0,0.0,0.0,0.0,0.0,0.0,0.0,0.0,0.0,0.0,0.0,0.0,0.0,0.0,0.0,0.0,0.0,0.0,0.0,0.0,0.0,0.0,0.0,0.0,0.0,0.0,0.0,0.0,0.0,0.0,0.0,0.0,0.0,0.0,0.0,0.0,0.0,0.0,0.0,0.0,0.0,0.0,0.0,0.0,0.0,0.0,0.0,0.0,0.0,0.0,0.0,0.0,0.0,0.0,0.0,0.0,0.0,0.0,0.0,0.0,0.0,0.0,0.0,0.0,0.0,0.0,0.0,0.0,0.0,0.0,0.0,0.0,0.0,0.0,0.0,0.0,0.0,0.0,0.0,0.0,0.0,0.0,0.0,0.0,0.0,0.0,0.0,0.0,0.0,0.0,0.0,0.0,0.0,0.0,0.0,0.0,0.0,0.0,0.0,0.0,0.0,0.0,0.0,0.0,0.0,0.0,0.0,0.0,0.0,0.0,0.0,0.0,0.0,0.0,0.0,0.0,0.0,0.0,0.0,0.0,0.0,0.0,0.0,0.0,0.0,0.0,0.0,0.0,0.0,0.0,0.0,0.0,0.0,0.0,0.0,0.0,0.0,0.0,0.0,0.0,0.0,0.0,0.0,0.0,0.0,0.0,0.0,0.0,0.0,0.0,0.0,0.0,0.0,0.0,0.0,0.0,0.0,0.0,0.0,0.0,0.0,0.0,0.0,0.0,0.0,0.0,0.0,0.0,0.0,0.0,0.0,0.0,0.0,0.0,0.0,0.0,0.0,0.0,0.0,0.0,0.0,0.0,0.0,0.0,0.0,0.0,0.0,0.0,0.0,0.0,0.0,0.0,0.0,0.0,0.0,0.0,0.0,0.0,0.0,0.0,0.0,0.0,0.0,0.0,0.0,0.0,0.0,0.0,0.0,0.0,0.0,0.0,0.0,0.0,0.0,0.0,0.0,0.0,0.0,0.0,0.0,0.0,0.0,0.0,0.0,0.0,0.0,0.0,0.0,0.0,0.0,0.0,0.0,0.0,0.0,0.0,0.0,0.0,0.0,0.0,0.0,0.0,0.0,0.0,0.0,0.0,0.0,0.0,0.0,0.0,0.0,0.0,0.0,0.0,0.0,0.0,0.0,0.0,0.0,0.0,0.0,0.0,0.0,0.0,0.0,0.0,0.0,0.0,0.0,0.0,0.0,0.0,0.0,0.0,0.0,0.0,0.0,0.0,0.0,0.0,0.0,0.0,0.0,0.0,0.0,0.0,0.0,0.0,0.0,0.0,0.0,0.0,0.0,0.0,0.0,0.0,0.0,0.0,0.0,0.0,0.0,0.0,0.0,0.0,0.0,0.0,0.0,0.0,0.0,0.0,0.0,0.0,0.0,0.0,0.0,0.0,0.0,0.0,0.0,0.0,0.0,0.0,0.0,0.0,0.0,0.0,0.0,0.0,0.0,0.0,0.0,0.0,0.0,0.0,0.0,0.0,0.0,0.0,0.0,0.0,0.0,0.0,0.0,0.0,0.0,0.0,0.0,0.0,0.0,0.0,0.0,0.0,0.0,0.0,0.0,0.0,0.0,0.0,0.0,0.0,0.0,0.0,0.0,0.0,0.0,0.0,0.0,0.0,0.0,0.0,0.0,0.0,0.0,0.0,0.0,0.0,0.0,0.0,0.0,0.0,0.0,0.0,0.0,0.0,0.0,0.0,0.0,0.0,0.0,0.0,0.0,0.0,0.0,0.0,0.0,0.0,0.0,0.0,0.0,0.0,0.0,0.0,0.0,0.0,0.0,0.0,0.0,0.0,0.0,0.0,0.0,0.0,0.0,0.0,0.0,0.0,0.0,0.0,0.0,0.0,0.0,0.0,0.0,0.0,0.0,0.0,0.0,0.0,0.0,0.0,0.0,0.0,0.0,0.0,0.0,0.0,0.0,0.0,0.0,0.0,0.0,0.0,0.0,0.0,0.0,0.0,0.0,0.0,0.0,0.0,0.0,0.0,0.0,0.0,0.0,0.0,0.0,0.0,0.0,0.0,0.0,0.0,0.0,0.0,0.0,0.0,0.0,0.0,0.0,0.0,0.0,0.0,0.0,0.0,0.0,0.0,0.0,0.0,0.0,0.0,0.0,0.0,0.0,0.0,0.0,0.0,0.0,0.0,0.0,0.0,0.0,0.0,0.0,0.0,0.0,0.0,0.0,0.0,0.0,0.0,0.0,0.0,0.0,0.0,0.0,0.0,0.0,0.0,0.0,0.0,0.0,0.0,0.0,0.0,0.0,0.0,0.0,0.0,0.0,0.0,0.0,0.0,0.0,0.0,0.0,0.0,0.0,0.0,0.0,0.0,0.0,0.0,0.0,0.0,0.0,0.0,0.0,0.0,0.0,0.0,0.0,0.0,0.0,0.0,0.0,0.0,0.0,0.0,0.0,0.0,0.0,0.0,0.0,0.0,0.0,0.0,0.0,0.0,0.0,0.0,0.0,0.0,0.0,0.0,0.0,0.0,0.0,0.0,0.0,0.0,0.0,0.0,0.0,0.0,0.0,0.0,0.0,0.0,0.0,0.0,0.0,0.0,0.0,0.0,0.0,0.0,0.0,0.0,0.0,0.0,0.0,0.0,0.0,0.0,0.0,0.0,0.0,0.0,0.0,0.0,0.0,0.0,0.0,0.0,0.0,0.0,0.0,0.0,0.0,0.0,0.0,0.0,0.0,0.0,0.0,0.0,0.0,0.0,0.0,0.0,0.0,0.0,0.0,0.0,0.0,0.0,0.0,0.0,0.0,0.0,0.0,0.0,0.0,0.0,0.0,0.0,0.0,0.0,0.0,0.0,0.0,0.0,0.0,0.0,0.0,0.0,0.0,0.0,0.0,0.0,0.0,0.0,0.0,0.0,0.0,0.0,0.0,0.0,0.0,0.0,0.0,0.0,0.0,0.0,0.0,0.0,0.0,0.0,0.0,0.0,0.0,0.0,0.0,0.0,0.0,0.0,0.0,0.0,0.0,0.0,0.0,0.0,0.0,0.0,0.0,0.0,0.0,0.0,0.0,0.0,0.0,0.0,0.0,0.0,0.0,0.0,0.0,0.0,0.0,0.0,0.0,0.0,0.0,0.0,0.0,0.0,0.0,0.0,0.0,0.0,0.0,0.0,0.0,0.0,0.0,0.0,0.0,0.0,0.0,0.0,0.0,0.0,0.0,0.0,0.0,0.0,0.0,0.0,0.0,0.0,0.0,0.0,0.0,0.0,0.0,0.0,0.0,0.0,0.0,0.0,0.0,0.0,0.0,0.0,0.0,0.0,0.0,0.0,0.0,0.0,0.0,0.0,0.0,0.0,0.0,0.0,0.0,0.0,0.0,0.0,0.0,0.0,0.0,0.0,0.0,0.0,0.0,0.0,0.0,0.0,0.0,0.0,0.0,0.0,0.0,0.0,1.0021,0.8687,0.0,0.0,0.0,0.0,0.0,0.0,0.0,0.0,0.0,0.0,0.0,0.0,0.0,0.0,0.0,0.0,0.0,0.0,0.0,0.0,0.0,0.0,0.0,0.8948,0.9329,0.9838,0.9728,0.0,0.0,0.0,0.0,0.0,0.0,0.0,0.0,0.0,0.8831,0.9131,0.9121,0.9347,0.9748,0.8801,0.7808,0.6783,0.0,0.0,0.0,0.0,0.0,0.0,0.0,0.0,0.0,0.0,0.0,0.0,0.0,0.0,0.0,0.0,0.0,0.0,0.0,0.0,0.0,0.0,0.0,0.0,0.0,0.0,0.0,0.0,0.0,0.0,0.0,0.0,0.0,0.0,0.0,0.0,0.0,0.0,0.0,0.0,0.0,0.0,0.0,0.0,0.0,0.0,0.0,0.0,0.0,0.0,0.0,0.0,0.0,0.0,0.0,0.0,0.0,0.0,0.0,0.0,0.0,0.0,0.0,0.0,0.0,0.0,0.0,0.0,0.0,0.0,1.085,0.9977,0.0,0.0,0.0,0.0,0.0,0.0,0.0,0.0,0.0,0.0,0.0,0.0,0.0,0.0,0.0,0.0,0.0,0.0,0.0,0.0,0.0,0.884,0.9163,0.949,0.9936,1.0564,1.0587,1.047,1.0199,1.0185,0.0,0.0,0.0,0.0,0.9273,0.9126,0.9299,0.987,1.0084,1.0471,1.1004,1.0953,1.0151,0.8745,0.805,0.0,0.0,0.0,0.0,0.0,0.0,0.0,0.0,0.0,0.0,0.0,0.0,0.0,0.0,0.0,0.0,0.0,0.0,0.0,0.0,0.0,0.0,0.0,0.0,0.0,0.0,0.0,0.0,0.0,0.0,0.0,0.0,0.0,0.0,0.0,0.0,0.0,0.0,0.0,0.0,0.0,0.0,0.0,0.0,0.0,0.0,0.0,0.0,0.0,0.0,0.0,0.0,0.0,0.0,0.0,0.0,0.0,0.0,0.0,0.0,0.0,0.0,0.0,1.4261,1.4049,1.3579,1.3719,1.3491,1.2953,1.1506,1.1249,1.171,1.0238,0.0,0.0,0.0,0.0,0.0,0.0,0.0,0.0,0.0,0.0,0.0,0.0,0.0,0.0,0.0,0.0,0.0,0.0,0.0,0.884,0.9163,0.9687,1.0185,1.0586,1.0587,1.0565,1.0528,1.0521,0.0,0.0,0.0,0.9848,0.9563,1.0068,1.0542,1.0909,1.2014,1.2606,1.268,1.2401,1.2131,1.1826,1.0269,0.9251,0.8689,0.0,0.0,0.0,0.0,0.0,0.0,0.0,0.0,0.0,0.0,0.0,0.0,0.0,0.0,0.0,0.0,0.0,0.0,0.0,0.0,0.0,0.0,0.0,0.0,0.0,0.0,0.0,0.0,0.0,0.0,0.0,0.0,0.0,0.0,0.0,0.0,0.0,0.0,0.0,0.0,0.0,1.6352,1.6426,0.0,0.0,0.0,0.0,0.0,0.0,0.0,0.0,0.0,0.0,0.0,0.0,0.0,1.5721,1.5927,1.6438,1.6688,1.6741,1.6969,1.6532,1.5538,1.5551,1.4953,1.3927,1.3696,0.0,1.2342,1.1634,0.0,0.0,0.0,0.0,0.0,0.0,0.0,0.0,0.0,0.0,0.0,0.0,0.0,0.0,0.0,0.0,0.0,0.0,0.0,0.0,0.0,1.0572,1.1128,1.1633,1.1677,1.1516,1.1188,1.1166,0.0,0.0,1.0104,1.0038,0.9892,1.0528,1.1408,1.2431,1.3375,1.3828,1.3821,1.3492,1.3338,1.3309,1.2359,1.1174,0.9866,0.9611,0.0,0.0,0.0,0.0,0.0,0.0,0.0,0.0,0.0,0.0,0.0,0.0,0.0,0.0,0.0,0.0,0.0,0.0,0.0,0.0,0.0,0.0,0.0,0.0,0.0,0.0,0.0,0.0,0.0,0.0,0.0,0.0,0.0,0.0,0.0,0.0,0.0,0.0,0.0,1.637,1.6841,1.7586,1.6443,1.5385,0.0,0.0,0.0,0.0,0.0,0.0,0.0,0.0,0.0,1.6676,1.702,1.745,1.7944,1.8227,1.8291,1.8081,1.8207,1.7884,1.7193,1.6826,1.6389,1.5865,1.552,1.5068,1.4573,1.3533,1.2841,1.2412,0.0,0.0,0.0,0.0,1.1842,1.1436,0.0,0.0,0.0,0.0,0.0,0.0,0.0,0.0,0.0,0.0,0.0,0.0,1.0638,1.132,1.1911,1.2441,1.2485,1.2321,1.187,1.1687,1.1292,1.0599,1.0404,1.0314,1.0314,1.1152,1.2321,1.3865,1.4355,1.4589,1.4582,1.4298,1.4144,1.4092,1.377,1.2725,1.1189,1.1298,1.0408,0.8959,0.0,0.0,0.0,0.0,0.0,0.0,0.0,0.0,0.0,0.0,0.0,0.0,0.0,0.0,0.0,0.0,0.0,0.0,0.0,0.0,0.0,0.0,0.0,0.0,0.0,0.0,0.0,0.0,0.0,0.0,0.0,0.0,0.0,0.0,0.0,0.0,0.0,1.7864,1.796,1.8654,1.7712,1.663,0.0,0.0,0.0,0.0,0.0,0.0,1.6599,1.6958,1.7614,1.8556,1.8852,1.9269,1.9933,1.9933,1.982,1.9573,1.9573,1.9231,1.8657,1.8192,1.776,1.7324,1.682,1.6535,1.6366,1.5205,1.4689,1.4602,1.4626,1.4569,1.4523,1.483,1.4413,1.3891,0.0,0.0,0.0,0.0,0.0,0.0,0.0,0.0,0.0,0.0,0.0,1.0324,1.1004,1.1626,1.2113,1.2456,1.2485,1.2477,1.2475,1.1936,1.1668,1.1788,1.1193,1.0866,1.0866,1.2198,1.3558,1.4827,1.4863,1.4878,1.4871,1.4596,1.4482,1.4467,1.4106,1.374,1.3273,1.2346,1.1772,1.1359,0.9688,0.0,0.0,0.0,0.0,0.0,0.0,0.0,0.0,0.0,0.0,0.0,0.0,0.0,0.0,0.0,0.0,0.0,0.0,0.0,0.0,0.0,0.0,0.0,0.0,0.0,0.0,0.0,0.0,0.0,0.0,0.0,0.0,0.0,0.0,0.0,0.0,0.0,0.0,1.9827,1.9984,0.0,0.0,0.0,0.0,1.7784,1.8083,1.8498,1.9,1.9521,2.0357,2.1569,2.16,2.1642,2.1683,2.1683,2.1672,2.1652,2.1652,2.1027,1.9901,1.9881,1.9008,1.7485,1.7467,1.7211,1.6828,1.6366,1.6023,1.5675,1.5396,1.5065,1.4808,1.5141,1.5244,1.531,0.0,0.0,0.0,0.751,0.776,0.8144,0.8916,0.9018,0.9141,0.9416,1.0199,1.0924,1.1371,1.2153,1.2797,1.3119,1.3148,1.3424,1.4139,1.2727,1.256,1.4155,1.2174,1.1511,1.2552,1.3483,1.4377,1.5214,1.5214,1.5214,1.5206,1.4885,1.4772,1.4757,1.4435,1.4269,1.407,1.3301,1.2548,1.1873,1.1443,1.0497,0.0,0.0,0.0,0.0,0.0,0.0,0.0,0.0,0.0,0.0,0.0,0.0,0.0,0.0,0.0,0.0,0.0,0.0,0.0,0.0,0.0,0.0,0.0,0.0,0.0,0.0,0.0,0.0,0.0,0.0,0.0,0.0,0.0,0.0,0.0,0.0,0.0,2.0265,2.0327,0.0,1.9191,1.9569,1.977,1.954,2.0167,2.069,2.0869,2.1042,2.1366,2.1807,2.1807,2.1807,2.1807,2.1807,2.1807,2.1807,2.1807,2.1562,2.1161,2.0866,2.0216,1.9362,1.9083,1.8715,1.8307,1.8172,1.7736,1.7244,1.7592,1.7675,1.7588,1.7714,1.7434,1.7073,0.0,0.0,0.0,0.8073,0.8174,0.8493,0.9448,0.9453,0.9511,1.0038,1.0763,1.1474,1.2024,1.2723,1.3258,1.3477,1.3916,1.4426,1.5018,1.3982,1.3965,1.5346,1.3484,1.3059,1.434,1.4699,1.5091,1.5389,1.5389,1.5389,1.5382,1.5163,1.5061,1.5053,1.4772,1.4626,1.4589,1.4124,1.349,1.276,1.2573,1.1722,1.0589,0.0,0.0,0.0,0.0,0.0,0.0,0.0,0.0,0.0,0.0,0.0,0.0,0.0,0.0,0.0,0.0,0.0,0.0,0.0,0.0,0.0,0.0,0.0,0.0,0.0,0.0,0.0,0.0,0.0,0.0,0.0,0.0,0.0,0.0,2.0348,2.0886,2.0276,2.0607,2.0534,1.9624,2.0358,2.085,2.085,2.1455,2.1807,2.1807,2.1807,2.1807,2.1807,2.1807,2.1807,2.1807,2.1807,2.1807,2.1807,2.1807,2.1807,2.1797,2.1487,2.1093,2.0591,2.0182,1.9761,1.9326,1.9426,1.9144,1.8734,1.8998,1.9108,1.9108,1.9108,1.8798,1.8385,0.0,0.0,0.6958,0.7988,0.8036,0.8302,0.9406,0.9595,0.9972,1.096,1.1393,1.1973,1.2884,1.3294,1.3535,1.3543,1.4804,1.5446,1.5083,1.5644,1.5769,1.5235,1.5232,1.5516,1.608,1.5848,1.563,1.5389,1.5389,1.5389,1.5389,1.5389,1.5389,1.5374,1.5061,1.4922,1.4893,1.484,1.4636,1.4246,1.3055,1.2664,1.2679,0.0,0.0,0.0,0.0,0.0,0.0,0.0,0.0,0.0,0.0,0.0,0.0,0.0,0.0,0.0,0.0,0.0,0.0,0.0,0.0,0.0,0.0,0.0,0.0,0.0,0.0,0.0,0.0,0.0,0.0,0.0,0.0,0.0,1.9945,2.0637,2.084,2.0028,2.1063,2.152,2.0581,2.1354,2.1883,2.1883,2.1883,2.1883,2.1883,2.1883,2.1883,2.1883,2.1883,2.1883,2.1883,2.1883,2.1883,2.1883,2.1883,2.1845,2.1845,2.1845,2.1586,2.112,2.0663,2.0242,1.9888,2.0073,2.0128,2.0063,1.9386,1.9131,1.9131,1.9098,1.9108,1.9108,0.6619,0.7035,0.7461,0.7585,0.8269,0.8835,0.8989,0.9546,1.0148,1.0653,1.1414,1.2094,1.2565,1.3155,1.3843,1.4741,1.5278,1.6351,1.8053,1.6824,1.5857,1.5585,1.7186,1.7466,1.6191,1.6349,1.6069,1.5389,1.5389,1.5389,1.5389,1.5389,1.5389,1.5382,1.5294,1.525,1.5277,1.5182,1.5187,1.5193,1.4518,1.3646,1.2749,0.0,0.0,0.0,0.0,0.0,0.0,0.0,0.0,0.0,0.0,0.0,0.0,0.0,0.0,0.0,0.0,0.0,0.0,0.0,0.0,0.0,0.0,0.0,0.0,0.0,0.0,0.0,0.0,0.0,0.0,0.0,2.1152,2.2093,2.1992,2.2279,2.2574,2.2894,2.3254,2.3363,2.312,2.3307,2.3463,2.3463,2.3463,2.3463,2.3463,2.3463,2.3463,2.3463,2.3463,2.3463,2.3463,2.3463,2.3463,2.3463,2.3463,2.3191,2.2703,2.3228,2.2915,2.1959,2.2004,2.1744,2.1318,2.0965,2.0837,2.0773,2.0107,1.9846,1.9781,1.9297,1.9108,1.9108,0.6728,0.7147,0.7532,0.7621,0.8138,0.8648,0.9068,0.9577,1.0208,1.1054,1.1653,1.228,1.3053,1.347,1.4104,1.5065,1.5739,1.6817,1.8413,1.7713,1.7368,1.7689,1.8789,1.8606,1.698,1.7154,1.6624,1.5389,1.5389,1.5389,1.5389,1.5389,1.5389,1.5389,1.5389,1.5389,1.5416,1.5457,1.5579,1.5792,1.5451,1.4694,1.3781,1.3535,1.283,1.1956,1.1698,1.1595,1.1668,1.2275,0.0,0.0,0.0,0.0,0.0,0.0,0.0,0.0,0.0,0.0,0.0,0.0,0.0,0.0,0.0,0.0,0.0,0.0,0.0,0.0,0.0,0.0,0.0,0.0,2.2649,2.3595,2.4272,2.3835,2.3621,2.4047,2.4108,2.4108,2.4108,2.4108,2.4108,2.4108,2.4108,2.4108,2.4108,2.4108,2.4108,2.4108,2.4108,2.4108,2.4108,2.4108,2.4108,2.4108,2.4108,2.3866,2.3486,2.3902,2.3707,2.3053,2.2742,2.2466,2.2166,2.1719,2.1522,2.1459,0.0,0.0,0.0,0.0,1.9748,1.9551,0.6913,0.7063,0.737,0.783,0.7811,0.8143,0.9324,0.9583,1.022,1.1866,1.2091,1.2594,1.3894,1.4078,1.4335,1.5054,1.6206,1.7071,1.7479,1.8447,1.9389,2.0252,1.9767,1.8967,1.7859,1.7836,1.7033,1.5389,1.5389,1.5389,1.5389,1.5389,1.5389,1.5389,1.5389,1.5389,1.5431,1.5665,1.5865,1.6105,1.6009,1.5685,1.5141,1.4748,1.4359,1.3974,1.337,1.3147,1.3092,1.2588,0.0,0.0,0.0,0.0,0.0,0.0,0.0,0.0,0.0,0.0,0.0,0.0,0.0,0.0,0.0,0.0,0.0,0.0,0.0,0.0,0.0,0.0,0.0,0.0,2.42,2.4886,2.6314,2.5288,2.4373,2.4373,2.4373,2.4373,2.4373,2.4373,2.4373,2.4373,2.4373,2.4373,2.4373,2.4373,0.0,0.0,0.0,2.4373,2.4373,2.4373,2.4373,2.4373,2.4373,2.4337,2.4228,2.4337,2.4337,2.4171,2.3248,2.2841,2.2827,2.2388,2.2206,2.2144,2.1459,2.1155,2.1092,2.1092,2.0709,2.0291,0.6913,0.7205,0.7412,0.737,0.767,0.8152,0.8775,0.9504,1.0595,1.2199,1.2658,1.3214,1.4298,1.4416,1.4934,1.6223,1.67,1.7448,1.8656,1.9309,1.9413,1.8906,1.8816,1.8241,1.6976,1.6935,1.6419,1.5389,1.5389,1.5389,1.5389,1.5389,1.5389,1.5389,1.5389,1.5389,1.5431,1.5839,1.6046,1.6121,1.6421,1.6016,1.5141,1.4748,1.4209,1.3664,1.3537,1.3489,1.3685,1.4782,1.5134,1.5337,1.6676,1.6763,0.0,0.0,0.0,0.0,0.0,0.0,0.0,0.0,0.0,0.0,0.0,0.0,0.0,0.0,0.0,0.0,0.0,0.0,0.0,2.4321,2.534,2.6129,2.6452,2.6233,2.606,2.606,2.606,2.606,2.606,2.606,2.606,2.606,2.606,2.606,2.606,2.606,2.606,2.606,2.606,2.606,2.606,2.606,2.606,2.606,2.606,0.0,2.5087,2.5734,2.5687,2.5028,2.4563,2.4373,2.4287,2.33,2.2914,2.2841,2.2175,2.1585,2.1092,2.1092,2.1028,2.0933,0.6913,0.7232,0.7455,0.7356,0.7555,0.7959,0.8516,0.9443,1.0529,1.181,1.2733,1.3499,1.4188,1.4447,1.4924,1.5726,1.6565,1.7397,1.8258,1.902,1.9236,1.8776,1.8638,1.8037,1.687,1.6739,1.6263,1.5389,1.5389,1.5389,1.5389,1.5389,1.5389,1.5389,1.5389,1.5389,1.5431,1.5748,1.5997,1.6128,1.6451,1.6126,1.5411,1.5229,1.472,1.4109,1.4109,1.4109,1.4234,1.5002,1.5479,1.5945,1.7076,1.7317,1.7142,0.0,0.0,0.0,0.0,0.0,0.0,0.0,0.0,0.0,0.0,0.0,0.0,0.0,0.0,2.2089,0.0,0.0,2.4526,2.5416,2.6093,2.6499,2.6499,2.6499,2.6499,2.6499,2.6499,2.6499,2.6499,2.6499,2.6499,2.6499,2.6499,2.6499,2.6499,2.6499,2.6499,2.6499,2.6499,2.6499,2.6499,2.6499,2.6499,2.6499,2.6499,2.628,2.5921,2.6314,2.628,2.5871,2.5394,2.5059,2.47,2.3572,2.3108,2.3078,2.272,2.2402,2.2094,2.2094,2.1877,2.1683,0.6946,0.7265,0.7489,0.7489,0.7489,0.7717,0.8393,0.9222,1.0199,1.1443,1.2578,1.3491,1.4033,1.442,1.4724,1.4863,1.6201,1.7147,1.7395,1.8209,1.8651,1.8617,1.8236,1.7594,1.6714,1.6542,1.6105,1.5389,1.5389,1.5389,1.5389,1.5389,1.5389,1.5389,1.5389,1.5389,1.5431,1.5658,1.5914,1.6128,1.636,1.6141,1.5712,1.5712,1.5245,1.4605,1.4605,1.4605,1.4605,1.4776,1.5374,1.614,1.6862,1.7355,1.7697,1.8004,1.7709,0.0,0.0,0.0,0.0,0.0,0.0,0.0,0.0,0.0,2.1908,2.23,2.2769,2.3518,2.4869,2.5215,2.5571,2.6496,2.665,2.6612,2.6512,2.6499,2.6499,2.6499,2.6499,2.6499,2.6499,2.6499,2.6499,2.6499,2.6499,2.6499,2.6499,2.6499,2.6499,2.6499,2.6499,2.6499,2.6499,2.6499,2.6499,2.6499,2.6499,2.6499,2.6499,2.6499,2.6499,2.6461,2.585,2.531,2.4713,2.3697,2.3271,2.3258,2.3145,2.3108,2.3108,2.3108,2.2824,2.2621,0.7138,0.7363,0.7489,0.7489,0.7489,0.7717,0.8393,0.8761,0.9656,1.1688,1.2243,1.293,1.4309,1.4489,1.4597,1.4807,1.5834,1.6658,1.7043,1.7125,1.7191,1.7325,1.6503,1.5858,1.559,1.5548,1.5506,1.5389,1.5389,1.5389,1.5389,1.5389,1.5389,1.5389,1.5389,1.5389,1.5431,1.588,1.6087,1.6128,1.6492,1.6269,1.5712,1.5712,1.5245,1.4605,1.4605,1.4605,1.4713,1.5409,1.6175,1.6906,1.7653,1.8345,1.8998,1.9427,1.8953,1.8309,1.8704,1.9041,0.0,2.0711,2.1181,2.213,0.0,0.0,2.4041,2.5605,2.6342,2.6766,2.6962,2.7387,2.761,2.7256,2.7228,2.7052,2.6562,2.6499,2.6499,2.6499,2.6499,2.6499,2.6499,2.6499,2.6499,2.6499,2.6499,2.6499,2.6499,2.6499,2.6499,2.6499,2.6499,2.6499,2.6499,2.6499,2.6499,2.6499,2.6499,2.6499,2.6499,2.6499,2.6499,2.6461,2.585,2.531,2.4738,2.4155,2.3904,2.3853,2.3308,2.3108,2.3108,2.3108,2.3391,2.381,0.7007,0.7297,0.7489,0.7489,0.7489,0.763,0.8021,0.8672,0.9458,1.0474,1.1372,1.2132,1.2817,1.3285,1.3857,1.4633,1.566,1.6345,1.6528,1.7088,1.7361,1.7227,1.6381,1.5873,1.5797,1.5555,1.5389,1.5389,1.5389,1.5389,1.5389,1.5389,1.5389,1.5389,1.5389,1.5389,1.5431,1.5888,1.6087,1.6128,1.6533,1.6436,1.596,1.5753,1.538,1.4927,1.4684,1.4605,0.0,1.5515,1.628,1.7035,1.7765,1.8305,1.8849,1.9585,1.9139,1.8599,1.9592,0.0,0.0,0.0,2.3248,2.4479,2.6015,2.6114,2.6176,2.722,2.7607,2.7758,2.7758,2.7946,2.8034,0.0,2.7758,2.757,2.7052,2.6977,2.6851,2.6537,2.6499,2.6499,2.6499,2.6499,2.6499,2.6499,2.6499,2.6499,2.6499,2.6499,2.6499,2.6499,2.6499,2.6499,2.6499,2.6499,2.6499,2.6499,2.6499,2.6499,2.6499,2.6499,2.6499,2.6461,2.585,2.5473,2.5222,2.4695,2.4481,2.4418,2.3946,2.375,2.3682,2.3263,2.352,2.4141,0.6913,0.7232,0.7508,0.7569,0.7579,0.7631,0.7788,0.8473,0.9115,0.956,1.0475,1.1291,1.1658,1.2341,1.3129,1.4049,1.5142,1.5848,1.606,1.6852,1.7281,1.7243,1.6525,1.6087,1.6087,1.5673,1.5458,1.5458,1.5423,1.5389,1.5389,1.5389,1.5389,1.5389,1.5389,1.5423,1.5506,1.5922,1.6128,1.6203,1.6574,1.6483,1.6166,1.5817,1.5404,1.4982,1.4589,1.4462,1.4564,1.5162,1.5907,1.6683,1.7305,1.7835,1.8402,1.9492,1.9409,1.9137,2.0006,0.0,0.0,2.3264,2.4895,2.6395,2.67,2.7184,2.762,2.8021,2.8235,2.8335,2.8335,2.8461,2.8511,2.836,2.8335,2.8134,2.7595,2.7507,2.7306,2.6788,2.6725,2.6663,2.6512,2.6499,2.6499,2.6499,2.6499,2.6499,2.6499,2.6499,2.6499,2.6499,2.6499,2.6499,2.6499,2.6499,2.6499,2.6499,2.6499,2.6499,2.6499,2.6499,2.6521,2.653,2.608,2.5925,2.5933,2.5403,2.5144,2.5048,2.4653,2.4487,2.4361,2.3717,2.3816,2.4309,0.6913,0.7232,0.7555,0.7769,0.7807,0.7807,0.7816,0.7987,0.8471,0.9487,0.9808,1.0412,1.1558,1.2116,1.2564,1.2908,1.3987,1.4976,1.5775,1.5919,1.6304,1.7062,1.648,1.6087,1.6087,1.5824,1.5692,1.5692,1.5506,1.5389,1.5389,1.5389,1.5389,1.5389,1.5389,1.5506,1.5692,1.5997,1.6203,1.6394,1.6607,1.6483,1.6166,1.5817,1.5253,1.4573,1.426,1.4132,1.4124,1.4214,1.492,1.5812,1.6148,1.692,1.7988,1.9399,2.0048,2.0276,1.9917,2.1188,2.2849,2.3969,2.5667,2.7224,2.7889,2.8048,2.8084,2.8109,2.8499,2.8863,2.8863,2.9365,2.9566,2.8963,2.8863,2.8675,2.816,2.8084,2.7871,2.7318,2.7291,2.7077,0.0,2.6499,2.6499,2.6499,2.6499,2.6499,2.6499,2.6499,2.6499,2.6499,2.6499,2.6499,2.6499,2.6499,2.6499,2.6499,2.6499,2.6499,2.6499,2.6499,2.6555,2.6679,2.6667,2.6769,2.6913,2.6383,2.6041,2.5846,2.5435,2.5186,2.5027,2.461,2.4448,2.4476,0.7142,0.7573,0.7925,0.8001,0.8099,0.8193,0.8193,0.825,0.8478,0.8941,0.9304,0.0,0.0,0.0,0.0,0.0,1.3745,1.4728,1.51,1.5802,1.6337,1.6637,1.6103,1.5824,1.5824,1.5624,1.5499,1.5499,1.5423,1.5389,1.5389,1.5389,1.5389,1.5389,1.5389,1.5506,1.5741,1.6004,1.6203,1.6435,1.6607,1.6626,1.6516,1.6158,1.5451,1.4526,0.0,1.3624,1.3525,1.4043,1.4688,1.5451,1.6311,1.689,1.7399,1.8195,1.9582,2.0917,2.1073,2.2042,2.3498,2.561,2.6618,2.7478,2.8897,2.9227,2.9227,2.9227,2.9377,2.9503,2.9503,2.9666,2.9729,2.9528,2.9503,2.9302,2.87,2.8612,2.8448,2.7896,2.7821,0.0,0.0,0.0,2.6499,2.6499,2.6499,2.6499,2.6499,2.6499,2.6499,2.6499,2.6499,2.6499,2.6499,2.6589,2.6624,2.6624,2.6624,2.6589,2.6499,2.6499,2.6555,2.6714,2.7162,2.7484,2.7637,2.7486,2.7361,2.7197,2.6369,2.6,2.5968,2.6003,2.573,2.5345,0.7345,0.778,0.8139,0.8179,0.8311,0.0,0.0,0.0,0.0,0.0,0.0,0.0,0.0,0.0,0.0,0.0,0.0,1.4187,1.4552,1.5441,1.6046,1.6166,1.5848,1.5706,1.5706,1.5438,1.5342,1.5461,1.5296,1.5272,1.5389,1.5389,1.5389,1.5389,1.5389,1.5548,1.5865,1.6046,1.6355,1.669,1.6569,1.6507,1.6476,1.588,1.5033,0.0,1.3473,1.2917,1.2588,1.2942,1.3772,1.4821,1.5586,1.6617,1.7616,1.8268,1.9603,2.1073,2.2035,2.3035,2.4301,2.6533,2.7395,2.8051,2.9495,2.9792,2.9792,2.9792,2.9628,2.9553,2.9754,2.9693,2.9693,3.0018,3.0159,3.002,2.9591,2.949,2.9214,2.8499,2.8398,2.8109,0.0,0.0,0.0,2.6512,2.6499,2.6499,2.6499,2.6499,2.6499,2.6499,2.6499,2.6499,2.6499,2.6624,2.6726,2.6794,2.704,2.7129,2.704,2.704,2.7263,2.763,2.7848,2.8149,2.8524,2.8524,2.8505,2.8382,2.7483,2.7267,2.74,2.7192,2.702,2.676,0.7499,0.786,0.8174,0.0,0.0,0.0,0.0,0.0,0.0,0.0,0.0,0.0,0.0,0.0,0.0,0.0,0.0,0.0,1.402,1.4752,1.5323,1.5698,1.5678,1.5659,1.5674,1.532,1.5248,1.5553,1.512,1.5031,1.5379,1.5338,1.5338,1.5338,1.5338,1.5628,1.6034,1.6057,1.6482,1.7111,1.6444,1.6158,1.6015,1.4985,1.4153,1.3506,1.2853,1.2144,1.1447,1.1169,1.2396,1.406,1.4297,1.6266,1.8694,1.9596,2.0218,2.0948,2.2708,2.4028,2.5239,2.6748,2.7971,2.8961,2.9663,2.983,2.9818,2.9793,2.934,2.9114,0.0,0.0,2.9517,3.0319,3.0678,3.0795,3.057,3.057,3.0181,0.0,0.0,0.0,0.0,0.0,0.0,2.6537,2.6499,2.6499,2.6499,2.6499,2.6499,2.6533,2.6533,2.6521,2.6589,2.6714,2.6897,2.7079,2.7716,2.8019,2.8051,2.8051,2.8519,2.9279,2.8661,2.8839,2.9535,2.9535,2.9501,2.931,2.8757,2.8853,2.9195,2.8222,2.8218,2.8561,0.0,0.0,0.0,0.0,0.0,0.0,0.0,0.0,0.0,0.0,0.0,0.0,0.0,0.0,0.0,0.0,0.0,0.0,1.2098,1.3504,1.4358,1.4446,1.5021,1.5277,1.5181,1.5191,1.5157,1.5155,1.4896,1.4784,1.4872,1.4793,1.4714,1.4714,1.4714,1.4865,1.5149,1.5398,1.5509,1.5528,1.5568,1.5363,1.4977,1.4708,1.4011,1.3195,1.302,1.2351,1.1559,1.2041,1.3759,1.5992,1.7793,1.9049,2.0017,2.0596,2.1693,2.278,2.31,2.447,2.6069,2.7122,2.8091,2.9028,3.0024,3.0113,2.9923,2.9655,2.9707,2.9454,0.0,0.0,0.0,2.89,2.9631,0.0,3.0044,2.9993,0.0,2.9616,0.0,2.9126,2.8009,2.7896,0.0,2.6562,2.6499,2.6521,2.6658,2.6658,2.6726,2.6888,2.6875,2.7121,2.7604,2.7796,2.7941,2.7973,2.8157,2.8422,2.8748,2.8748,2.8953,2.9341,2.9656,2.995,3.0238,3.0238,3.0208,3.0117,2.9487,2.9331,2.9473,2.9688,2.957,2.9256,0.0,0.0,0.0,0.0,0.0,0.0,0.0,0.0,0.0,0.0,0.0,0.0,0.0,0.0,0.0,0.0,0.0,0.0,0.0,1.298,1.3903,1.3903,1.4585,1.4751,1.4296,1.4296,1.4298,1.4371,1.4082,1.4163,1.4522,1.4368,1.4218,1.404,1.404,1.4222,1.4479,1.4599,1.4737,0.0,0.0,1.4551,1.4273,1.4042,1.3505,1.2893,1.2893,1.2797,1.2789,0.0,0.0,1.6989,1.9144,2.0203,2.0855,2.1528,0.0,2.355,2.3877,2.5406,2.704,2.7516,2.8569,2.9589,2.9935,2.9934,2.9629,2.8886,2.9143,0.0,2.751,2.882,0.0,0.0,0.0,0.0,3.0195,3.0221,3.0211,0.0,2.9934,0.0,2.866,2.866,2.828,0.0,2.6797,2.6555,2.6679,2.6679,2.6794,2.6977,2.7302,2.7796,2.8551,2.8371,2.8468,2.8839,2.8839,2.9111,2.9659,2.9659,2.9858,3.0267,3.0329,3.0614,3.094,3.094,3.094,3.0866,3.0208,3.0103,3.0389,3.0464,3.045,3.0346,0.0,0.0,0.0,0.0,0.0,0.0,0.0,0.0,0.0,0.8444,0.87,0.8755,0.0,0.0,0.0,0.0,0.0,0.0,0.0,0.0,1.3554,1.3554,1.4153,1.4155,1.3433,1.3279,1.3305,1.3558,1.3229,1.3414,1.4134,1.394,1.3712,1.3439,1.3403,1.3612,1.3927,1.3786,1.4074,1.4519,1.4042,1.3788,1.3643,0.0,1.2933,1.2678,1.2766,1.3346,1.4311,1.5596,1.6598,1.7561,1.9409,2.0628,2.1559,2.2428,2.3158,2.3894,2.4693,2.6257,2.773,2.7799,2.9042,3.0139,2.9701,2.9508,2.91,2.7972,0.0,2.8113,2.6782,2.8222,2.9402,2.8861,0.0,3.0853,3.0601,3.0692,3.062,3.0177,3.019,2.9961,2.9261,2.9412,2.9222,2.8439,2.7412,2.685,2.6884,2.6884,2.7053,2.7323,2.7966,2.8634,2.9328,2.8853,2.8935,2.9628,2.9628,2.9981,3.0614,3.0614,3.097,3.1467,3.0896,3.097,3.1511,3.1511,3.1511,3.1438,3.0866,3.0999,3.1438,3.0837,3.0999,3.1409,0.0,0.0,0.0,0.0,0.0,0.0,0.0,0.0,0.0,0.0,0.8532,0.835,0.0,0.0,0.0,0.0,0.0,0.0,0.0,0.0,0.0,1.2309,1.3369,1.3815,1.3559,1.3648,1.3592,1.3442,1.3299,1.3259,1.3305,1.3092,1.3028,1.307,1.2968,1.3036,1.3188,1.3329,1.3198,1.2943,1.3386,1.3166,1.2617,1.2956,0.0,0.0,1.364,1.3958,1.4391,1.6215,1.7578,1.8769,2.042,2.1817,2.2936,2.3515,2.4242,2.4914,2.4904,2.5957,2.7237,2.7867,2.8834,2.9668,2.9923,2.9518,0.0,0.0,2.7501,2.7129,2.5994,2.7235,2.8315,2.8103,2.8891,2.9732,3.033,3.033,3.0189,0.0,3.0659,3.0516,2.923,2.9854,0.0,0.0,2.8638,2.8344,2.7809,2.7927,2.8338,2.9034,2.9735,2.9858,2.9487,2.9903,3.0178,3.0329,3.0329,3.0673,3.1322,3.1322,3.138,3.1511,3.138,3.138,3.1511,3.1511,3.1511,3.1511,3.138,3.1409,3.1511,3.138,3.1409,3.1467,0.0,0.0,0.0,0.0,0.0,0.0,0.0,0.8302,0.8363,0.9046,0.9015,0.8889,0.8863,0.867,0.8708,0.0,0.0,0.0,0.0,0.0,0.0,0.0,0.0,0.0,1.2924,1.2992,1.2975,1.2843,0.0,1.2735,1.2846,1.2707,1.2543,1.2377,1.2417,1.2506,1.2643,1.255,1.2462,1.2435,1.2844,1.2858,1.2609,0.0,0.0,0.0,0.0,1.4193,1.4525,1.5663,1.6978,1.8431,2.0253,2.1511,2.2493,2.3411,2.4312,2.5048,2.5221,2.6124,2.7226,2.8068,2.8912,2.9504,2.9269,0.0,0.0,0.0,2.6609,2.6486,2.4995,0.0,0.0,2.7083,2.8395,2.9599,2.9894,3.0189,0.0,3.0947,3.1182,3.1253,0.0,3.142,3.1305,3.0313,3.0274,2.9824,2.872,2.8839,2.9268,3.0011,3.0329,3.0524,3.0554,3.0524,3.0673,3.1029,3.0673,3.0837,3.1511,3.1511,3.1511,3.1511,3.1511,3.1511,3.1511,3.1511,3.1511,3.1511,3.1511,3.1511,3.1511,3.1511,3.1511,3.1511,0.0,0.0,0.0,0.0,0.0,0.0,0.0,0.8675,0.8869,0.9625,0.9714,0.9611,0.9327,0.9106,0.8933,0.0,0.0,0.0,0.0,0.0,0.0,0.0,0.0,0.0,0.0,0.0,0.0,1.2305,1.2251,0.0,0.0,0.0,0.0,0.0,1.2058,1.2212,1.2336,1.2027,1.2058,0.0,0.0,1.2792,0.0,0.0,0.0,0.0,0.0,0.0,1.4573,1.5118,1.6099,1.7456,1.9439,2.0684,2.171,2.3079,2.4106,2.4841,2.543,2.626,2.7174,2.8148,2.89,2.9226,2.8555,2.8281,0.0,0.0,2.562,2.5715,2.4381,0.0,2.7377,0.0,2.816,2.9462,2.9775,3.0462,0.0,0.0,3.1942,0.0,3.2493,3.2738,0.0,3.1815,3.1741,3.1069,2.9637,2.9642,3.0011,3.0673,3.0703,3.097,3.1511,3.097,3.097,3.1511,3.097,3.0999,3.1511,3.1511,3.1511,3.1511,3.1511,3.1511,3.1511,3.1511,3.1511,3.1511,3.1511,3.1511,3.1511,3.1511,3.1511,3.1511,0.0,0.0,0.0,0.0,0.0,0.0,0.0,0.9094,0.9667,1.0868,1.0551,1.0201,1.0164,0.9487,0.8808,0.0,0.0,0.0,0.0,0.0,0.0,0.0,0.0,0.0,0.0,0.0,0.0,1.2305,1.2467,0.0,0.0,0.0,0.0,0.0,0.0,1.2398,1.256,1.2336,0.0,0.0,0.0,0.0,0.0,0.0,0.0,0.0,0.0,0.0,0.0,0.0,0.0,1.6251,1.7954,1.9774,2.152,2.3039,0.0,0.0,2.5388,2.5812,2.6415,2.7988,2.8466,2.8511,2.8402,0.0,2.7072,2.5358,2.4648,2.4465,2.4818,2.4997,0.0,0.0,0.0,2.8653,0.0,0.0,0.0,0.0,0.0,0.0,3.2004,3.2669,3.289,3.2284,3.2347,3.1811,3.0463,3.0389,3.0718,3.138,3.1409,3.1438,3.1511,3.1438,3.1438,3.1511,3.1438,3.1438,3.1511,3.1511,3.1511,3.1511,3.1511,3.1511,3.1511,3.1511,3.1511,3.1511,3.1511,3.1511,3.1511,3.1511,3.1511,3.1511,0.0,0.0,0.0,0.0,0.0,0.0,0.9253,0.9211,0.9592,1.0849,1.0801,1.0551,1.0346,0.9975,0.9495,0.8739,0.0,0.0,0.0,0.0,0.0,0.0,0.0,0.0,0.0,0.0,1.2663,1.2783,1.2846,0.0,0.0,0.0,0.0,0.0,0.0,1.2529,1.259,1.2398,0.0,0.0,0.0,0.0,0.0,0.0,0.0,0.0,0.0,0.0,1.4494,0.0,0.0,0.0,1.7451,1.8833,0.0,0.0,2.3706,2.4616,2.5204,2.5635,2.6302,2.7988,2.8146,2.7919,2.7864,0.0,2.653,2.4805,2.4282,2.4178,2.4413,2.4679,2.5318,2.6602,2.7285,0.0,2.9811,0.0,0.0,0.0,3.3554,0.0,0.0,0.0,3.3418,3.2482,3.2094,3.1677,3.1131,3.1087,3.1219,3.1511,3.1511,3.1511,3.1511,3.1511,3.1511,3.1511,3.1511,3.1511,3.1511,3.1511,3.1511,3.1511,3.1511,3.1511,3.1511,3.1511,3.1511,3.1511,3.1511,3.1511,3.1511,3.1511,3.1568,3.167,0.0,0.0,0.0,0.0,0.0,0.8751,0.9484,0.9409,0.9705,1.0834,1.0934,1.0759,1.0445,1.0298,0.9923,0.9188,0.9057,0.0,0.0,0.0,0.0,0.0,0.0,0.0,0.0,0.0,1.2917,1.3243,1.3243,1.3178,0.0,0.0,1.2948,1.2461,0.0,0.0,0.0,0.0,0.0,0.0,0.0,0.0,0.0,0.0,0.0,0.0,0.0,0.0,0.0,0.0,0.0,0.0,1.7276,1.8427,1.9949,0.0,2.3453,2.4313,2.5185,2.584,2.6622,2.8039,2.8186,2.7903,0.0,0.0,2.6438,2.4726,2.4504,2.454,2.44,2.4831,2.5406,2.5981,2.7222,2.8525,2.9747,3.1192,0.0,0.0,0.0,3.4383,3.4027,3.3806,3.3287,3.2273,3.1944,3.1705,3.1511,3.1511,3.1511,3.1511,3.1511,3.1511,3.1511,3.1511,3.1511,3.1511,3.1511,3.1511,3.1511,3.1511,3.1511,3.1511,3.1511,3.1511,3.1511,3.1511,3.1511,3.1511,3.1511,3.1511,3.1511,3.1511,3.1626,3.1784,0.0,0.0,0.0,0.0,0.0,0.0,0.9507,0.9814,1.0289,1.1085,1.1019,1.0811,1.064,1.0246,0.9909,0.9611,0.9532,0.0,0.0,0.0,0.0,0.0,0.0,0.0,0.0,0.0,1.3251,1.3576,1.3576,1.3526,1.3416,1.3526,1.3295,1.2819,0.0,0.0,0.0,0.0,0.0,0.0,0.0,0.0,1.4645,0.0,0.0,0.0,0.0,0.0,0.0,0.0,0.0,0.0,0.0,1.8718,2.0655,2.2621,2.3186,2.3613,2.5378,2.6539,2.7377,2.8187,2.86,2.8558,0.0,0.0,2.704,2.5345,2.5406,2.5628,2.5097,2.5432,2.6007,2.6601,2.8264,2.9902,3.1015,3.2964,0.0,0.0,0.0,3.4949,3.3634,3.2916,3.2228,3.157,3.2108,3.2183,3.154,3.1511,3.1511,3.1511,3.1511,3.1511,3.1511,3.1511,3.1511,3.1511,3.1511,3.1511,3.1511,3.1511,3.1511,3.1511,3.1511,3.1511,3.1511,3.1511,3.1511,3.1511,3.1511,3.1511,3.1511,3.1511,3.1626,3.1799,0.0,0.0,0.0,0.0,0.0,0.0,0.0,0.9148,0.9398,1.0279,1.0168,1.0178,1.0583,1.0246,0.9971,0.9861,0.976,0.0,0.0,0.0,0.0,0.0,0.0,0.0,0.0,1.3088,1.3711,1.4272,1.4272,1.4272,1.421,1.4272,1.3955,1.3344,1.3155,1.3028,0.0,0.0,0.0,0.0,0.0,1.4462,1.4288,0.0,0.0,0.0,0.0,0.0,0.0,0.0,0.0,0.0,0.0,0.0,0.0,2.1435,2.2433,2.3264,2.4163,2.5234,2.6309,2.7138,2.752,2.7536,2.707,2.6948,2.6569,2.5267,2.5419,2.5741,2.5589,2.5707,2.6446,2.8354,2.9176,3.0309,0.0,0.0,0.0,3.4448,3.4256,3.3963,0.0,3.2497,3.1735,3.1525,3.2108,3.2392,3.2183,3.2632,3.2437,3.1525,3.1511,3.1511,3.1511,3.1511,3.1511,3.1511,3.1511,3.1511,3.1511,3.1511,3.1511,3.1511,3.1511,3.1511,3.1511,3.1511,3.1511,3.1511,3.1511,3.1568,3.1698,3.1698,3.1855,3.2066,0.0,0.0,0.0,0.0,0.0,0.0,0.0,0.8911,0.9039,0.9634,0.9677,0.978,1.0336,1.008,0.9909,0.9985,0.9902,0.0,0.0,0.0,0.0,0.0,0.0,0.0,1.2987,1.3546,1.4196,1.503,1.503,1.5065,1.5191,1.5191,1.4712,1.3775,1.3568,1.3259,0.0,0.0,0.0,0.0,1.4697,1.4665,1.4148,0.0,0.0,0.0,0.0,0.0,0.0,0.0,0.0,0.0,0.0,0.0,0.0,0.0,2.1357,2.2157,2.3356,2.4871,2.6206,2.6762,2.7087,2.7224,2.7045,2.6863,2.6497,2.579,2.6073,2.6367,2.619,2.6498,2.7192,2.832,2.9748,3.116,0.0,0.0,0.0,3.4874,0.0,0.0,3.3499,3.2273,3.1511,3.1511,3.2108,3.2512,3.2512,3.314,3.3006,3.1914,3.1869,3.175,3.1511,3.1511,3.1511,3.1511,3.1511,3.1511,3.1511,3.1511,3.1511,3.1511,3.1511,3.1511,0.0,3.1511,3.1511,3.1511,3.1568,3.1698,3.1828,3.187,3.2025,3.2191,0.0,0.0,0.0,0.0,0.0,0.0,0.0,0.8948,0.9018,0.9235,0.9423,0.9663,0.9928,0.9738,0.97,0.9933,0.0,0.0,0.0,0.0,0.0,0.0,0.0,0.0,1.3441,1.3866,1.4625,1.5712,1.5705,1.5912,1.6285,1.6285,1.5547,1.422,1.4172,1.3561,0.0,0.0,0.0,0.0,1.5189,1.499,0.0,0.0,0.0,0.0,0.0,0.0,0.0,0.0,0.0,0.0,0.0,0.0,0.0,0.0,0.0,0.0,0.0,2.5038,2.6659,2.6659,2.7045,2.7425,2.7385,2.7027,0.0,2.6706,2.7105,2.7327,2.6967,2.7731,2.818,2.7336,3.0148,3.2346,0.0,3.3913,0.0,0.0,3.4367,0.0,3.3619,3.2333,3.1511,3.1511,3.2108,3.2512,3.2512,3.314,3.3185,3.2512,3.2512,3.2168,3.1511,3.1511,3.1511,3.1511,3.1511,3.1511,3.1511,3.1511,3.1511,3.1511,3.1511,3.1511,3.1511,3.1511,3.1511,3.1539,3.1727,3.1813,3.1841,3.1968,3.2094,3.2219,0.0,0.0,0.0,0.0,0.0,0.0,0.0,0.0,0.0,0.0,0.8996,0.9063,0.9431,0.9426,0.9376,0.0,0.0,0.0,0.0,0.0,0.0,0.0,0.0,0.0,1.3901,1.4039,1.4625,1.5712,1.5952,1.6404,1.7024,1.7024,1.6412,1.5284,1.4716,1.3791,0.0,0.0,0.0,0.0,1.4561,1.4411,0.0,0.0,0.0,0.0,1.302,1.3386,0.0,0.0,0.0,0.0,0.0,0.0,0.0,0.0,1.9748,2.0096,2.076,0.0,2.4434,2.4434,2.5682,2.6765,0.0,2.6452,2.6706,2.6706,2.6811,2.7288,2.861,2.8287,2.872,3.1465,3.2225,3.2986,3.4364,0.0,0.0,3.6851,3.4906,3.3903,3.4936,3.2886,3.1511,3.1511,3.2108,3.2512,3.2512,3.314,3.3185,3.2512,3.2512,3.2168,3.1511,3.1511,3.1511,3.1511,3.1511,3.1511,3.1511,3.1511,3.1511,3.1511,3.1511,3.1511,3.1511,3.1511,3.1597,3.1727,3.1784,3.1927,3.2122,3.215,3.2247,3.2342,0.0,0.0,0.0,0.0,0.0,0.0,0.0,0.0,0.0,0.0,0.0,0.8935,0.9122,0.9145,0.0,0.0,0.0,0.0,0.0,0.0,0.0,0.0,0.0,1.3153,1.387,1.4188,1.4792,1.5712,1.6198,1.681,1.7544,1.735,1.6747,1.5664,1.445,1.3418,0.0,0.0,0.0,1.3665,1.418,0.0,0.0,0.0,0.0,0.0,1.3243,1.3402,0.0,1.4156,1.4741,1.548,0.0,0.0,0.0,0.0,1.8888,1.9033,1.9137,2.1578,2.4095,2.4095,2.5016,2.5908,2.5837,2.5432,2.5236,2.5816,2.6126,2.677,2.8397,2.8795,2.9631,3.1765,3.2859,0.0,0.0,0.0,3.6522,3.6941,3.5474,3.4457,3.4577,3.2706,3.163,3.1929,3.2587,3.3095,3.3395,3.3754,3.3649,3.2976,3.2677,3.2168,3.1511,3.1511,3.1511,3.1511,3.1511,3.1511,3.1511,3.1511,3.1511,3.1511,3.1511,3.1511,3.1511,3.1597,3.1698,3.1813,3.1955,3.2066,3.2219,3.2274,3.2342,3.2453,0.0,0.0,0.0,0.0,0.0,0.0,0.0,0.0,0.0,0.0,0.0,0.0,0.0,0.0,0.0,0.0,0.0,0.0,0.0,0.0,0.0,0.0,1.3036,1.3423,1.3664,1.4161,1.4871,1.5712,1.6492,1.7223,1.785,1.7731,1.7002,1.564,1.3974,1.302,0.0,0.0,1.3618,1.3616,1.3974,0.0,0.0,0.0,0.0,0.0,0.0,0.0,0.0,1.4633,1.484,1.4964,1.6542,0.0,0.0,0.0,0.0,0.0,1.8408,2.1438,2.4428,2.4186,2.4601,2.5227,2.5602,2.4543,2.3814,2.502,2.5624,2.6435,2.7989,2.9497,0.0,0.0,0.0,0.0,3.6013,3.6716,3.7,3.6671,3.5774,3.4831,3.3903,3.2482,3.1884,3.2452,3.3125,3.3739,3.4324,3.4354,3.4099,3.3514,3.2961,3.2318,3.166,3.1555,3.1511,3.1511,3.1511,3.1511,3.1511,3.1539,3.1539,3.1539,3.1568,3.1597,3.1597,3.1756,3.1841,3.1898,3.2191,3.2342,3.237,3.2574,3.2641,3.2738,0.0,0.0,0.0,0.0,0.0,0.0,0.0,0.0,0.0,0.0,0.0,0.0,0.0,0.0,0.0,0.0,0.0,0.0,0.0,0.0,0.0,1.3588,1.341,1.3541,1.4021,1.3846,1.4379,1.5712,1.7018,1.7819,1.824,1.912,1.8157,1.5664,1.4466,1.3441,1.2638,1.3331,1.3618,1.3616,1.3974,0.0,0.0,0.0,0.0,0.0,0.0,0.0,0.0,1.3775,1.4425,1.524,1.6007,0.0,0.0,0.0,0.0,0.0,2.0354,2.2455,2.3725,2.2261,2.3808,2.5589,2.5227,2.4926,2.5064,2.6196,2.6559,2.7533,3.0401,3.0693,3.1243,0.0,0.0,3.4578,0.0,0.0,3.6163,3.715,3.522,3.4173,3.51,3.3484,3.2378,3.2497,3.3125,3.3544,3.3649,3.3649,3.3604,3.3499,3.3395,3.3021,3.2333,3.178,3.1511,3.1511,3.1511,3.1511,3.1511,3.167,3.1756,3.1756,3.1855,3.194,3.194,3.1968,3.2053,3.2191,3.2695,3.2949,3.3093,3.3588,3.3742,3.394,0.0,0.0,0.0,0.0,0.0,0.0,0.0,0.0,0.0,0.0,0.0,0.0,0.0,0.0,0.0,0.0,0.0,0.0,0.0,0.0,1.3927,1.4537,1.4144,1.394,1.4109,1.4697,1.5507,1.654,1.799,1.8907,1.9423,1.9001,1.779,1.5904,1.4466,1.3457,1.2901,1.3211,1.3418,1.3592,0.0,0.0,0.0,0.0,0.0,0.0,0.0,0.0,0.0,0.0,1.4672,1.5675,1.5947,0.0,0.0,0.0,0.0,0.0,1.9252,2.1324,2.3013,2.2498,2.4568,2.6641,2.6412,2.5863,2.5682,2.658,2.7028,2.8052,3.0593,0.0,3.1679,3.3648,0.0,3.4638,3.4981,3.5893,3.6626,3.6881,3.5534,3.4532,3.4427,3.2946,3.2243,3.2991,3.332,3.3814,3.4547,3.4233,3.4054,3.4054,3.3335,3.2826,3.2512,3.1839,3.1511,3.1511,3.1511,3.1568,3.167,3.1756,3.1841,3.1912,3.1968,3.1996,3.2025,3.2066,3.233,3.2668,3.2986,3.3329,3.3713,3.4355,3.4805,3.5227,0.0,0.0,0.0,0.0,0.0,0.0,0.0,0.0,0.0,0.0,0.0,0.0,0.0,0.0,0.0,0.0,0.0,0.0,0.0,0.0,1.4158,1.4972,1.4767,1.4657,1.4692,1.5785,1.6722,1.7517,1.9002,2.0003,2.048,1.8716,1.7286,1.6134,1.4538,1.36,1.3211,1.3211,1.3402,1.3703,0.0,0.0,0.0,0.0,0.0,0.0,0.0,0.0,0.0,0.0,0.0,0.0,0.0,0.0,0.0,1.769,1.7558,1.7705,1.8797,2.0711,2.2672,2.3761,2.5574,2.7163,2.7438,2.6511,2.5897,2.6968,2.7593,2.8535,3.0528,3.1486,0.0,3.3335,3.4038,3.4607,3.4981,3.6148,3.6791,3.6312,3.5669,3.4801,3.3604,3.2721,3.2572,3.3425,3.3784,3.4412,3.5444,3.4996,3.4711,3.4711,3.3739,3.314,3.2976,3.2288,3.1809,3.1511,3.1511,3.1597,3.1799,3.1841,3.1912,3.2053,3.2066,3.2163,3.2302,3.2398,3.2749,3.3251,3.3485,3.3903,3.4464,3.5234,3.5803,3.6311,0.0,0.0,0.0,0.0,0.0,0.0,0.0,0.0,0.0,0.0,0.0,0.0,0.0,0.0,0.0,0.0,0.0,0.0,0.0,0.0,1.4015,1.4428,1.503,1.5678,1.6491,1.6602,1.7199,1.8224,1.9963,2.0837,2.0845,1.909,1.7525,1.6158,1.5017,1.4188,1.3545,1.3545,1.3751,1.4069,1.4069,0.0,0.0,0.0,0.0,0.0,0.0,0.0,0.0,0.0,0.0,0.0,0.0,0.0,1.8385,1.855,1.8283,1.8522,2.1271,2.2189,2.3047,2.5787,2.6184,2.6198,2.7255,2.6229,2.5711,2.7936,2.8519,2.9194,3.1101,3.2497,3.338,3.3484,3.4038,3.4309,3.3724,3.4801,3.5624,3.5579,3.4966,3.4309,3.3559,3.3994,3.4084,3.3529,3.4651,3.54,3.5504,3.5459,3.5429,3.5429,3.534,3.4981,3.4369,3.3679,3.2736,3.1511,3.1511,3.1597,3.1784,3.1927,3.2066,3.2191,3.2315,3.2641,3.3119,3.3103,3.3459,3.3986,3.4504,3.5021,3.5594,3.6375,3.6702,3.6952,0.0,0.0,0.0,0.0,0.0,0.0,0.0,0.0,0.0,0.0,0.0,0.0,0.0,0.0,0.0,0.0,0.0,0.0,0.0,1.3496,1.4043,1.4984,1.5134,1.5669,1.6681,1.7811,1.8994,2.0208,2.1139,2.1346,2.0877,1.8915,1.7588,1.6794,1.5078,1.4248,1.4228,1.4005,1.4117,1.4407,1.4407,1.4272,0.0,0.0,0.0,0.0,0.0,0.0,0.0,0.0,1.5067,1.6296,1.6487,1.7692,1.8933,1.8406,1.8141,1.84,2.0203,2.1789,2.338,2.5185,2.6255,2.7163,2.8347,2.8735,2.922,3.0536,3.0903,3.1083,3.1426,0.0,3.2751,3.2303,3.2826,3.3305,3.3469,3.4292,3.517,3.5976,3.546,3.511,3.5282,3.5155,3.4948,3.4714,3.514,3.5455,3.5507,3.5504,3.5504,3.5504,3.51,3.4547,3.3873,3.3291,3.257,3.1698,3.1698,3.1784,3.1927,3.2066,3.2191,3.2315,3.237,3.2695,3.3182,3.3182,3.37,3.4553,3.5108,3.5424,3.5752,3.7026,3.7483,3.7686,0.0,0.0,0.0,0.0,0.0,0.0,0.0,0.0,0.0,0.0,0.0,0.0,0.0,0.0,0.0,0.0,0.0,0.0,1.3184,1.3388,1.3948,1.4971,1.5142,1.5792,1.6848,1.8526,1.9844,2.0747,2.1354,2.1219,2.0392,1.8518,1.7509,1.7241,1.53,1.4641,1.4943,1.4601,1.4522,1.4605,1.4605,1.4328,0.0,0.0,0.0,0.0,0.0,0.0,0.0,0.0,1.5266,1.6627,1.6956,1.8039,1.9091,1.86,1.8835,1.9475,2.0291,2.2012,2.3879,2.519,2.6386,2.7629,2.899,2.9738,3.05,3.196,3.2169,3.2041,3.1841,3.2004,0.0,0.0,3.2183,3.2736,3.341,3.4224,3.5184,3.626,3.6167,3.6124,3.6387,3.6191,3.5928,3.5741,3.5899,3.5953,3.5799,3.5797,3.5716,3.5504,3.504,3.4592,3.4143,3.3592,3.3215,3.2994,3.2669,3.2348,3.2066,3.2342,3.252,3.2641,3.2641,3.3039,3.37,3.37,3.4243,3.5108,3.5447,3.5752,3.6146,3.7432,3.8058,3.843,0.0,0.0,0.0,0.0,0.0,0.0,0.0,0.0,0.0,0.0,0.0,0.0,0.0,0.0,0.0,0.0,0.0,0.0,1.3001,1.3309,1.3666,1.4093,1.5073,1.6133,1.7247,1.8637,1.9407,1.9376,2.0408,2.0384,1.9383,1.7982,1.7321,1.7249,1.5817,1.5409,1.568,1.5316,1.4967,1.4605,1.4605,1.422,1.3584,0.0,0.0,0.0,0.0,0.0,0.0,0.0,1.5732,1.6463,1.8529,1.8978,1.8796,1.9277,2.0664,2.2122,2.2258,2.3176,2.4531,2.6245,2.6719,2.7215,2.9005,2.8532,2.8636,3.176,3.1927,3.1705,3.2363,3.1944,3.172,3.2363,3.2497,3.2736,3.3395,3.4577,3.5645,3.6322,3.6995,3.7128,3.6476,3.7001,3.7128,3.6476,3.7033,3.7101,3.6461,3.6399,3.6148,3.5537,3.5504,3.5504,3.5489,3.496,3.5003,3.5591,3.4526,3.3391,3.2234,3.2776,3.3093,3.3224,3.3224,3.3802,3.4793,3.4809,3.5148,3.5616,3.5616,3.6096,3.6897,3.7635,3.8362,3.9106,0.0,0.0,0.0,0.0,0.0,0.0,0.0,0.0,0.0,0.0,0.0,0.0,0.0,0.0,0.0,0.0,0.0,0.0,1.2631,1.2863,1.3332,1.4078,1.4733,1.542,1.6142,1.7302,1.8539,1.9765,2.0027,1.9646,1.8597,1.7699,1.7008,1.65,1.5825,1.5316,1.489,1.4577,1.4478,1.4605,1.4605,1.4328,1.395,0.0,0.0,0.0,0.0,0.0,0.0,0.0,0.0,0.0,1.7986,1.8964,1.9573,1.9069,1.9817,2.0854,2.1003,2.2824,2.4944,2.5855,2.7301,2.8913,3.0441,3.0794,3.1199,3.2672,3.2544,3.2108,3.1854,3.163,3.157,3.1765,3.1795,3.2194,3.3282,3.3759,3.4548,3.6019,3.635,3.6588,3.6881,3.7545,3.7666,3.701,3.7637,3.7764,3.7131,3.6662,3.6321,3.6148,3.5799,3.5413,3.4961,3.5446,3.5523,3.5271,3.5884,3.5451,3.4096,3.3812,3.3716,3.3767,3.3767,3.4144,3.4866,3.5834,3.6622,3.7178,3.6654,3.6907,3.7601,3.7821,3.8362,3.9106,0.0,0.0,0.0,0.0,0.0,0.0,0.0,0.0,0.0,0.0,1.2738,1.2966,0.0,0.0,0.0,1.3193,1.3023,1.2941,1.3018,1.3123,1.3565,1.4387,1.4853,1.5481,1.6341,1.7114,1.785,1.8621,1.8945,1.869,1.789,1.7647,1.7247,1.6833,1.6897,1.6309,1.5207,1.503,1.4997,1.5125,1.5125,1.5161,1.5213,0.0,0.0,0.0,0.0,0.0,0.0,0.0,0.0,0.0,1.7788,1.857,1.9319,1.9658,2.0859,2.2257,2.3093,2.4992,2.6876,2.7657,2.8582,2.9698,3.1268,3.1948,3.2302,3.2494,3.2316,3.1974,3.157,3.1697,3.1853,3.1853,3.2035,3.253,3.3572,3.39,3.4564,3.5943,3.6348,3.6643,3.7051,3.7781,3.8038,3.7643,3.8297,3.8451,3.7879,3.7442,3.7041,3.66,3.6321,3.5982,3.5569,3.6176,3.6545,3.6609,3.7203,3.6993,3.6074,3.5201,3.4636,3.4333,3.4553,3.5164,3.6057,3.6588,3.7229,3.7872,3.7398,3.7686,3.8345,3.8345,3.8826,3.9595,0.0,0.0,0.0,0.0,0.0,0.0,0.0,0.0,0.0,1.3899,1.4328,1.4267,0.0,0.0,0.0,1.3565,1.3521,1.3564,1.3745,1.3759,1.4091,1.486,1.5334,1.6149,1.7302,1.7599,1.7366,1.6689,1.7366,1.7552,1.7191,1.7631,1.7798,1.7798,1.8367,1.7699,1.6103,1.5975,1.5843,1.5739,1.5808,1.6261,1.6834,1.6468,0.0,0.0,0.0,0.0,0.0,0.0,0.0,0.0,1.7857,1.8032,1.8453,2.0488,2.2784,2.4997,2.6672,2.8151,2.9493,3.0555,3.0118,2.9808,3.1474,3.2103,3.2199,3.1692,3.1527,3.1511,3.1511,3.1979,3.2398,3.2398,3.2841,3.3419,3.4083,3.4659,3.525,3.5898,3.6523,3.6936,3.7003,3.7682,3.8146,3.8212,3.8967,3.917,3.8629,3.8595,3.8144,3.7101,3.7041,3.7011,3.7011,3.7175,3.7847,3.8935,3.8493,3.8179,3.7949,3.6658,3.5675,3.5003,3.557,3.6631,3.7956,3.7286,3.7415,3.8091,3.8041,3.8447,3.9089,3.9046,3.9561,4.0305,0.0,0.0,0.0,0.0,0.0,0.0,0.0,0.0,1.3504,1.3945,1.4487,1.4596,1.3945,1.421,0.0,1.3901,1.3556,1.3366,1.3401,1.3447,1.3894,1.4873,1.6189,1.7125,1.7695,1.7199,1.684,1.6689,1.684,1.6778,1.646,1.735,1.7679,1.7416,1.7247,1.6483,1.5332,1.4228,1.4015,1.4454,1.5094,1.5583,1.5992,1.6265,1.63,0.0,0.0,0.0,0.0,0.0,0.0,0.0,1.7857,1.825,1.8553,1.8707,2.0939,2.3414,2.3475,2.6006,2.8786,2.9506,2.987,3.0193,3.0624,3.0851,3.117,3.1968,3.1781,3.1511,3.1511,3.1979,3.2398,3.2398,3.2841,3.3419,3.4024,3.4235,3.4527,3.5087,3.529,3.5595,3.6174,3.6987,3.7693,3.8162,3.9601,4.0137,3.9342,3.9418,3.914,3.8346,3.7946,3.7774,3.7774,3.8418,3.8876,3.9135,3.9502,3.9345,3.8717,3.7287,3.6531,3.6413,3.7097,3.7922,3.8751,3.8582,3.8954,3.9571,3.8988,3.9208,3.9808,3.9331,3.9634,4.033,0.0,0.0,0.0,0.0,0.0,0.0,0.0,0.0,1.3967,1.3982,1.4275,1.4296,1.3806,1.3901,0.0,0.0,1.3665,1.36,1.3813,1.3863,1.4284,1.5221,1.657,1.7278,1.727,1.6754,1.6557,1.6745,1.6431,1.6238,1.6222,1.7343,1.7886,1.7886,1.8146,1.7525,1.6158,1.4862,1.4819,1.567,1.5555,1.6239,1.7298,1.7177,1.7049,1.6875,1.6555,0.0,0.0,0.0,0.0,0.0,0.0,0.0,1.8214,1.904,2.0913,2.3048,2.4484,2.6828,2.9048,2.9912,2.9966,3.0008,3.0698,3.0477,3.0486,3.1655,3.1708,3.1511,3.1511,3.2188,3.2761,3.2761,3.3475,3.4127,3.4448,3.4472,3.4594,3.4875,3.4899,3.5072,3.5542,3.6612,3.7611,3.8326,3.9883,4.0632,4.023,4.03,3.9918,3.8974,3.8707,3.8569,3.8569,3.8984,3.9339,3.9627,3.9944,3.9723,3.8954,3.7838,3.733,3.733,3.7347,3.7787,3.8464,3.8464,3.8903,3.9588,3.9604,3.9849,4.0162,3.9912,4.0112,4.0502,0.0,0.0,0.0,0.0,0.0,0.0,0.0,0.0,0.0,1.4122,1.4108,1.396,1.3697,1.3616,1.3653,0.0,0.0,0.0,1.4317,1.4488,1.4898,1.5737,1.6675,1.7114,1.699,1.6613,1.6571,1.6977,1.625,1.6096,1.6552,1.7672,1.8391,1.8832,1.9454,1.8894,1.7388,1.6088,1.6129,1.7066,1.6192,1.6995,1.8623,1.8061,1.7677,1.7437,1.7162,1.7172,1.7306,1.7306,0.0,0.0,0.0,0.0,1.7677,1.9572,2.1127,2.2843,2.5649,2.7657,2.9301,3.0647,3.0124,0.0,3.1021,3.0545,3.0133,3.1336,3.1597,3.1597,3.1568,3.2422,3.3172,3.3235,3.4152,3.4875,3.4947,3.497,3.497,3.4947,3.4923,3.507,3.5438,3.6595,3.7786,3.8907,4.0266,4.11,4.1206,4.1216,4.0704,3.9581,3.9432,3.9365,3.9365,3.9365,3.9618,4.0096,4.0096,3.9791,3.9157,3.843,3.8024,3.7872,3.7381,3.7449,3.7905,3.7905,3.8345,3.9105,3.9814,4.0211,4.0337,4.0485,4.0607,4.0697,0.0,0.0,0.0,0.0,0.0,0.0,0.0,0.0,0.0,0.0,1.4445,1.443,1.4379,1.4122,1.3954,1.3954,1.402,1.4101,1.4129,0.0,0.0,1.6103,1.6571,1.7211,1.8129,1.7481,1.7368,1.7747,1.6665,1.6719,1.7875,1.8605,1.9345,2.0021,1.9167,1.8434,1.7733,1.5942,1.5383,1.5703,1.5955,1.6477,1.7125,1.745,1.7474,1.7309,1.7272,1.7278,1.7306,1.7306,1.7306,0.0,0.0,0.0,1.7367,1.7666,1.9593,0.0,0.0,0.0,2.8281,0.0,3.0124,2.9671,0.0,0.0,3.0194,3.1625,3.194,3.1912,3.1784,3.237,3.3013,3.3453,3.4127,3.4732,3.5175,3.5245,3.5198,3.5105,3.5065,3.5588,3.6895,3.7293,3.8321,4.0347,4.1492,4.2044,4.1954,4.2071,4.176,4.0965,4.0307,3.9969,3.9969,3.9969,4.002,4.0096,4.0096,4.0045,3.9943,3.9174,3.8497,3.7939,3.8464,3.8396,3.7905,3.7905,3.8417,3.9193,3.9295,3.9817,4.0485,4.0624,4.0673,4.0721,0.0,0.0,0.0,0.0,0.0,0.0,0.0,0.0,0.0,0.0,0.0,1.4438,1.4254,1.4108,1.3984,1.3874,1.4011,1.4165,1.4382,1.4909,1.5541,1.6211,1.6575,1.7061,1.7698,1.7213,1.7126,1.7439,1.6751,1.7317,1.9059,1.935,1.9811,2.0387,1.9354,1.8756,1.8443,1.6213,1.5723,1.6402,1.5624,1.6546,1.8254,1.7148,1.7238,1.7861,1.7119,1.6688,1.6514,1.6765,1.6852,1.6852,1.6852,0.0,0.0,0.0,1.8437,0.0,2.3341,2.5994,2.8512,0.0,3.0543,3.021,3.1405,3.1087,3.0825,3.1786,3.2122,3.2163,3.194,3.2398,3.2895,3.3119,3.3901,3.457,3.4828,3.5111,3.5268,3.5222,3.5222,3.5663,3.6812,3.7347,3.8555,4.0853,4.1827,4.226,4.2223,4.2665,4.2405,4.1238,4.0882,4.0713,4.0713,4.0316,4.0096,4.0096,4.0096,4.0096,4.0096,3.9774,3.8988,3.7905,3.7804,3.733,3.6654,3.7146,3.7827,3.8646,3.9157,3.9867,4.0648,4.0769,4.0817,4.0847,0.0,0.0,0.0,0.0,0.0,0.0,0.0,0.0,0.0,0.0,0.0,1.4416,1.4128,0.0,0.0,0.0,1.3799,1.4004,1.4281,1.4768,1.5391,1.6146,1.6566,1.6942,1.7356,1.7123,1.7056,1.7255,1.6995,1.7875,1.9793,1.9793,2.016,2.0797,1.9961,1.9492,1.9137,1.695,1.6495,1.7132,1.6021,1.6999,1.8977,1.7846,1.8115,1.8915,1.7538,0.0,0.0,0.0,1.6323,1.6323,1.6323,1.6392,0.0,0.0,0.0,0.0,0.0,0.0,2.7472,2.9996,3.0296,3.0303,0.0,0.0,3.1279,3.1955,3.2242,3.2342,3.215,3.2425,3.2749,3.2895,3.3604,3.4267,3.4529,3.493,3.5205,3.5337,3.5337,3.5753,3.6771,3.7384,3.8654,4.1009,4.188,4.2371,4.2574,4.3115,4.2885,4.1796,4.1576,4.139,4.1204,4.0485,4.0096,4.0096,4.0096,4.0096,4.0096,3.9723,3.8937,3.7872,3.7313,3.6541,3.5735,3.6571,3.7427,3.8269,3.9168,4.0034,4.0769,4.0989,4.0989,4.0965,0.0,0.0,0.0,0.0,0.0,0.0,0.0,0.0,0.0,0.0,0.0,1.4496,1.4482,1.421,1.3726,1.3089,1.3214,1.3366,1.346,1.4197,1.501,1.5798,1.6395,0.0,1.775,1.7765,1.7734,1.7667,1.7647,1.8391,1.9793,1.9793,2.0493,2.17,2.1211,2.0534,1.9668,0.0,0.0,0.0,1.7743,1.7892,1.7969,2.0168,2.0921,2.0588,0.0,0.0,0.0,0.0,0.0,0.0,0.0,1.6154,1.6498,0.0,0.0,0.0,0.0,2.2662,0.0,2.7795,2.8805,2.9318,0.0,0.0,3.1333,3.2184,3.2376,3.2398,3.237,3.2398,3.2602,3.3093,3.3251,3.3624,3.4649,3.4809,3.4991,3.5446,3.5492,3.6064,3.7494,3.7679,3.8654,4.1009,4.188,4.2608,4.3291,4.3375,4.3358,4.3274,4.2608,4.1914,4.1221,4.0485,4.0096,4.0096,4.0096,4.0096,4.0045,3.865,3.7973,3.7905,3.7872,3.7055,3.5863,3.6667,3.7541,3.8465,3.9278,4.0145,4.0942,4.1328,4.1232,4.1035,0.0,0.0,0.0,0.0,0.0,0.0,0.0,0.0,0.0,0.0,0.0,0.0,0.0,1.4238,1.3819,1.3362,1.3705,1.3996,1.4156,1.4787,1.5521,1.6295,1.6501,1.6841,1.7293,1.7283,1.7155,1.687,1.687,1.7554,1.8911,1.8911,1.9526,2.0625,2.0041,1.9858,1.9815,1.777,0.0,0.0,0.0,0.0,0.0,0.0,0.0,0.0,0.0,0.0,0.0,0.0,0.0,0.0,0.0,0.0,0.0,0.0,0.0,0.0,0.0,0.0,0.0,2.6352,2.804,2.9255,3.0627,3.111,3.1457,3.2227,3.2074,3.1936,3.2342,3.2398,3.2465,3.2641,3.2975,3.3339,3.3726,3.4366,3.4857,3.5015,3.535,3.6162,3.7682,3.7834,3.8956,4.1694,4.2151,4.2625,4.3341,4.3893,4.3927,4.3409,4.3122,4.2422,4.1221,4.0933,4.0561,4.0096,4.0096,4.0096,4.0079,3.9056,3.8376,3.7939,3.7464,3.6707,3.5851,3.63,3.7232,3.8437,3.882,3.9893,4.1305,4.1445,4.16,4.1817,0.0,0.0,0.0,0.0,0.0,0.0,0.0,0.0,1.508,1.4506,0.0,0.0,0.0,0.0,1.3983,1.342,1.3744,1.4008,1.416,1.4966,1.5751,1.6393,1.662,1.6809,1.6987,1.7017,1.68,1.6413,1.6529,1.714,1.8164,1.8341,1.8977,1.9944,1.9038,1.9154,0.0,0.0,0.0,1.7918,0.0,0.0,2.0651,0.0,0.0,0.0,0.0,0.0,0.0,0.0,0.0,0.0,0.0,0.0,0.0,0.0,1.6806,1.7904,1.9664,0.0,0.0,0.0,0.0,2.7875,3.0185,0.0,3.1043,3.2145,3.2049,3.1908,3.2342,3.2398,3.2398,3.2398,3.2695,3.2986,3.3156,3.3953,3.4601,3.4769,3.527,3.6208,3.7753,3.7905,3.892,4.1399,4.1999,4.2506,4.3014,4.4028,4.435,4.3826,4.3527,4.2919,4.1965,4.1694,4.1204,4.0485,4.0485,4.0214,3.9706,3.8986,3.8296,3.7585,3.6962,3.6387,3.6,3.6671,3.7548,3.8544,3.9287,4.0354,4.1539,4.1864,4.2074,4.2297,0.0,0.0,0.0,0.0,0.0,0.0,0.0,0.0,1.5256,1.429,0.0,0.0,0.0,0.0,0.0,1.3273,1.3321,1.3385,1.3376,1.4677,1.5625,1.6086,1.6657,1.6996,1.7017,1.6996,1.6789,1.6423,1.6789,1.7223,1.7688,1.8143,1.8925,1.9894,1.8383,1.8529,1.9873,0.0,1.8584,1.8133,0.0,2.0357,1.9045,0.0,0.0,0.0,2.1958,2.175,0.0,2.0599,0.0,0.0,0.0,0.0,0.0,0.0,1.5905,1.6526,0.0,0.0,0.0,0.0,0.0,0.0,3.0005,0.0,2.9972,3.1852,3.2258,3.2293,3.2382,3.2398,3.2398,3.2398,3.2398,3.2574,3.3093,3.364,3.4185,3.4697,3.5247,3.6168,3.7696,3.7882,3.8514,3.9994,4.1484,4.2303,4.232,4.3785,4.4615,4.4615,4.3842,4.3409,4.3392,4.2692,4.1948,4.1204,4.1204,4.0426,3.8971,3.832,3.7602,3.6871,3.6405,3.6204,3.6307,3.7767,3.8453,3.88,4.0704,4.1499,4.1648,4.2557,4.2614,4.236,0.0,0.0,0.0,0.0,0.0,1.5653,1.556,1.5818,1.585,0.0,0.0,0.0,1.5893,1.6134,1.6148,1.5599,1.573,1.5687,1.5345,1.5831,1.6195,1.6318,1.6473,1.6715,1.6977,1.6696,1.6663,1.6831,1.6663,1.6788,1.7203,1.7478,1.7946,1.8533,1.832,1.8213,1.8141,1.7191,0.0,0.0,1.9489,2.0433,0.0,0.0,0.0,0.0,0.0,2.5875,2.4956,0.0,2.298,2.0382,0.0,0.0,0.0,0.0,1.5622,1.6507,1.6705,0.0,0.0,0.0,0.0,0.0,0.0,0.0,2.6652,3.0241,2.9971,2.9744,3.1983,3.2398,3.2398,3.2398,3.2398,3.2437,3.2586,3.3066,3.3469,3.3624,3.4464,3.5404,3.6436,3.7352,3.8514,0.0,4.1484,4.2523,4.3081,4.4045,4.4615,4.4615,4.4395,4.3995,4.3392,4.3217,4.2472,4.1204,4.1204,4.0426,3.8971,3.832,3.7648,3.7024,3.6444,3.6229,3.6345,3.7327,3.8291,3.921,4.0297,4.1449,4.2537,4.2806,4.2995,4.316,0.0,0.0,1.6727,1.7259,1.7506,1.7647,1.7647,1.7719,1.7596,0.0,0.0,0.0,1.7415,1.7497,1.7448,1.7048,1.6898,1.6596,1.6124,1.6302,1.6413,1.6413,1.6413,1.6591,1.6996,1.6612,1.6649,1.7136,1.6707,1.6642,1.6932,1.7048,1.7273,1.7586,1.7472,1.7324,1.7002,0.0,0.0,0.0,2.0498,0.0,0.0,2.5222,2.6376,0.0,0.0,0.0,2.6033,2.6879,2.4572,0.0,0.0,0.0,0.0,0.0,1.587,1.72,1.7023,1.7889,1.9105,2.0038,0.0,0.0,2.5328,2.5313,2.5824,0.0,3.0434,3.028,3.2057,3.2398,3.2398,3.2398,3.2398,3.2398,3.2398,3.2868,3.3182,3.3182,3.4144,3.5131,3.5925,3.7146,3.8379,3.9554,4.1001,4.2303,4.3341,4.4147,4.4615,4.4615,4.4615,4.435,4.391,4.3589,4.2801,4.1644,4.1086,4.0027,3.8577,3.7978,3.7342,3.6713,3.6376,3.6255,3.6391,3.7342,3.8356,3.9417,4.0658,4.1884,4.292,4.3105,4.3304,4.3515,0.0,0.0,1.8523,1.9329,1.9774,2.0055,2.0148,2.007,1.9792,0.0,1.9075,1.9152,1.9333,1.8958,1.8541,1.8128,1.7406,1.6789,1.6315,1.6351,1.6413,1.6413,1.6413,1.6591,1.6996,1.6612,1.6678,1.7273,1.6801,1.6637,1.6779,1.6779,1.686,1.6942,1.6395,1.6283,1.6411,1.5593,0.0,1.8383,2.2262,2.3225,0.0,0.0,2.6688,2.6186,2.7115,2.6773,2.6201,2.7827,2.5767,0.0,0.0,0.0,0.0,0.0,1.6665,1.846,1.7849,1.8591,1.9777,2.0857,0.0,0.0,2.5686,2.5692,2.5908,0.0,3.1477,3.1566,3.1823,3.1986,3.2059,3.2059,3.2182,3.2305,3.2382,3.2815,3.3119,3.3119,3.4003,3.4937,3.5712,3.6956,3.8002,3.8819,4.0324,4.1813,4.3189,4.4028,4.4479,4.4479,4.4564,4.4615,4.4615,4.3809,4.3031,4.2269,4.1011,3.9574,3.7976,3.7592,3.6989,3.6187,3.6276,3.6301,3.6395,3.7595,3.8608,3.9556,4.1421,4.2485,4.2995,4.3375,4.3515,4.3515,1.8252,1.8526,1.893,1.9721,1.9678,1.9734,2.0412,2.0236,2.0048,2.0255,2.0531,2.1164,2.225,2.1275,2.0524,2.0443,1.9015,1.7903,1.741,1.677,1.6413,1.6413,1.6413,1.6591,1.6996,1.6612,1.663,1.7076,1.6649,1.6506,1.6637,1.6761,1.68,1.6844,1.6557,1.6387,1.6393,1.7157,0.0,2.0167,2.0639,0.0,2.4189,2.6979,2.8412,2.9013,2.9895,3.0081,2.9746,2.872,2.724,2.5299,0.0,0.0,0.0,1.7599,0.0,0.0,0.0,0.0,0.0,0.0,0.0,0.0,2.11,2.134,2.2223,0.0,2.5714,2.6238,2.8243,2.9358,2.9997,2.9997,3.0889,3.1767,3.2321,3.2492,3.2547,3.2547,3.3119,3.3739,3.4331,3.5605,3.6874,3.8034,4.0037,4.1593,4.2472,4.3234,4.3639,4.3639,4.4248,4.4615,4.4615,4.3809,4.3031,4.2286,4.1545,4.0067,3.7993,3.8145,3.747,3.6187,3.6276,3.6301,3.6395,3.7595,3.8755,3.9893,4.1208,4.2395,4.3392,4.3462,4.3515,4.3515,1.9336,2.0039,2.0797,2.1465,2.1635,2.1852,2.2448,2.2183,2.2028,2.2203,2.2238,2.2473,2.3123,2.2149,2.1362,2.1135,1.9437,1.8195,1.773,1.6881,1.6413,1.6413,1.6413,1.6649,1.7155,1.6707,1.6783,1.7351,1.6916,1.6779,1.6948,1.6978,1.7495,1.8343,1.7085,1.6965,1.7724,0.0,1.7891,1.9607,2.1897,0.0,2.6554,2.8781,2.9943,3.0432,3.0823,3.0986,3.0764,2.9349,2.768,0.0,0.0,2.357,2.2431,0.0,2.0656,2.2014,0.0,0.0,0.0,2.0161,0.0,0.0,0.0,0.0,2.224,0.0,2.5399,2.5782,2.733,2.8039,2.8519,2.8858,3.0027,3.0905,3.0905,3.1767,3.2398,3.2398,3.2868,3.3329,3.3572,3.5053,3.6693,3.8338,4.0155,4.1373,4.1728,4.2811,4.3392,4.3392,4.4247,4.4682,4.4615,4.3573,4.2836,4.2392,4.1086,3.9665,3.8196,3.8036,3.7335,3.6255,3.628,3.6409,3.6673,3.7476,3.8733,4.0292,4.1233,4.2395,4.3515,4.3515,4.3515,4.3515,2.0336,2.1372,2.2468,2.297,2.3432,2.3867,2.4187,2.3971,2.3784,2.3784,2.3494,2.335,2.3443,2.2625,2.1952,2.1673,2.0048,1.8775,1.8164,1.7357,1.689,1.6796,1.6547,1.6751,1.7495,1.6906,1.6892,1.7477,1.712,1.7062,1.7252,1.7182,1.7967,1.9392,1.7864,0.0,0.0,0.0,0.0,1.9922,0.0,2.6261,2.7528,2.9684,3.0477,3.0529,3.0869,3.0986,3.0817,2.9666,2.8033,2.6478,2.6373,2.5586,0.0,0.0,0.0,0.0,0.0,0.0,0.0,0.0,0.0,2.0557,0.0,0.0,0.0,0.0,0.0,0.0,0.0,0.0,0.0,0.0,0.0,0.0,0.0,0.0,0.0,3.1813,3.2554,3.3045,3.3008,3.4544,3.6428,3.8478,3.9699,4.0544,4.0967,4.2405,4.32,4.3227,4.4217,4.472,4.4682,4.3333,4.2619,4.2507,4.0466,3.918,3.858,3.7843,3.715,3.6525,3.637,3.6533,3.6956,3.7499,3.8834,4.0564,4.1252,4.2321,4.3515,4.3515,4.3515,4.3515,2.1511,2.1737,2.2033,2.2511,2.2956,2.3277,2.3339,2.3298,2.3267,2.3267,2.3618,2.395,2.4301,2.3577,2.3174,0.0,2.2242,2.0876,1.9647,1.9088,1.8611,1.8206,1.7045,1.6993,1.8269,1.7172,1.663,1.6711,1.6772,1.6889,1.7032,1.7029,1.7186,1.7583,1.8972,0.0,0.0,0.0,2.2046,0.0,2.5023,2.451,0.0,2.7439,2.8708,2.8917,3.0461,3.0986,3.0817,0.0,2.9104,2.8486,0.0,2.6901,2.8067,2.3687,0.0,0.0,0.0,0.0,0.0,0.0,2.1304,0.0,0.0,0.0,0.0,2.0543,0.0,0.0,0.0,0.0,0.0,0.0,0.0,0.0,0.0,0.0,0.0,0.0,0.0,3.2435,3.2325,3.3307,3.489,3.7145,3.7312,3.8166,4.013,4.161,4.2485,4.2617,4.3936,4.4737,4.4951,4.3333,4.2567,4.2663,4.0514,3.9455,3.9317,3.8084,3.7461,3.7323,3.6611,3.6533,3.6992,3.8106,3.9337,4.0545,4.0984,4.2124,4.3515,4.3515,4.3515,4.3515,2.0855,2.1435,2.1787,2.1704,2.2304,2.278,2.278,2.3246,2.3588,2.3588,2.3525,2.3753,0.0,0.0,0.0,0.0,0.0,2.1445,0.0,1.9907,1.9295,1.8839,1.7603,1.7497,1.8723,1.7824,1.7567,1.7995,1.8034,1.7932,1.7634,1.7645,1.8373,1.9723,2.018,0.0,2.24,0.0,2.2159,0.0,0.0,0.0,0.0,2.7918,2.9925,2.998,3.0725,3.0986,3.0908,0.0,2.9379,0.0,0.0,0.0,0.0,0.0,0.0,0.0,0.0,0.0,0.0,0.0,0.0,0.0,1.9838,0.0,2.0962,0.0,0.0,0.0,0.0,0.0,0.0,0.0,2.4724,0.0,0.0,0.0,0.0,0.0,0.0,0.0,3.2104,3.2689,3.3982,3.629,3.6482,3.7415,3.9459,4.0977,4.203,4.2585,4.3729,4.4319,4.4373,4.2929,4.22,4.2141,4.0453,3.9382,3.8975,3.8382,3.7668,3.6766,3.6439,3.6658,3.7282,3.7789,3.9121,4.0859,4.1027,4.2084,4.3515,4.3515,4.3515,4.3515,1.9706,2.071,2.1362,2.1155,2.1776,2.2356,2.248,2.2853,2.3215,2.3463,2.3205,2.3391,2.4383,2.3309,0.0,0.0,2.3691,2.2811,0.0,2.1083,2.0544,2.0486,1.8574,1.8269,1.9931,1.8739,1.8351,1.8922,1.896,1.8762,1.8322,1.8164,1.8981,2.0589,0.0,2.2323,2.4246,0.0,2.3223,2.3121,2.4021,2.4282,2.4557,2.8699,3.0568,3.0986,3.0986,3.0986,3.0934,3.062,2.9405,2.8242,2.9614,0.0,0.0,0.0,0.0,0.0,2.4691,0.0,0.0,0.0,0.0,0.0,0.0,0.0,0.0,0.0,0.0,0.0,0.0,0.0,0.0,0.0,0.0,0.0,0.0,0.0,0.0,0.0,0.0,0.0,0.0,0.0,0.0,3.5365,0.0,3.6552,3.9105,4.0644,4.1776,4.2433,4.328,4.3614,4.3383,4.2437,4.1815,4.1535,4.0289,3.9526,3.9221,3.8784,3.8094,3.7215,3.7157,3.7386,3.7826,3.8187,3.9279,4.0802,4.126,4.2139,4.3185,4.3423,4.3515,4.3515,1.8361,1.9541,2.0571,2.1005,2.1507,2.1983,2.2428,2.1756,2.1528,2.2418,2.2532,0.0,0.0,0.0,0.0,0.0,0.0,2.5844,2.4476,0.0,2.291,2.401,2.0152,1.9383,0.0,1.9924,1.8619,1.8715,1.8883,1.8958,1.8858,1.8333,1.8137,1.834,2.1119,2.2387,2.261,2.4779,2.6987,2.8943,2.7824,2.8712,3.0516,0.0,2.9545,3.0986,3.0986,0.0,0.0,2.9742,2.9287,2.9039,2.7968,0.0,0.0,0.0,0.0,0.0,0.0,0.0,0.0,2.2444,0.0,0.0,0.0,0.0,2.0706,0.0,0.0,0.0,0.0,0.0,0.0,0.0,0.0,0.0,0.0,0.0,0.0,0.0,0.0,0.0,0.0,0.0,0.0,0.0,0.0,0.0,3.9187,4.0785,4.168,4.1805,4.2415,4.2526,4.2078,4.1904,4.1508,4.0905,4.0077,4.0095,4.0791,3.9267,3.8957,3.9566,3.9324,3.8949,3.8665,3.9896,4.0228,4.0084,4.1644,4.2286,4.2433,4.3221,4.3515,4.3515,1.8383,1.9036,1.9572,1.9737,2.0389,2.1041,2.1507,2.1838,2.2366,0.0,2.3412,0.0,0.0,2.5942,2.6265,0.0,0.0,2.6945,2.5516,2.4157,0.0,2.5546,2.2147,2.1538,0.0,2.1813,2.0523,2.0549,2.0284,1.9913,1.9471,1.8892,1.8623,1.8741,0.0,2.3041,0.0,0.0,0.0,0.0,0.0,2.8124,2.9876,0.0,3.0477,3.0986,3.0986,3.0986,3.0921,3.0529,2.9902,2.9375,2.9706,2.918,2.8618,2.9651,2.9805,2.9632,2.9489,3.0133,2.9906,2.6019,0.0,0.0,0.0,0.0,0.0,0.0,0.0,0.0,0.0,0.0,0.0,0.0,0.0,0.0,0.0,0.0,0.0,0.0,0.0,0.0,0.0,0.0,0.0,0.0,0.0,0.0,0.0,3.9408,4.0518,4.1185,4.1412,4.1436,4.1274,4.0685,4.0306,4.0095,3.9819,3.9836,4.0077,3.956,3.9198,3.8984,3.9206,3.904,3.8665,3.9409,3.979,3.9937,4.0487,4.135,4.2396,4.3185,4.3515,4.3515,1.8414,1.8847,1.9249,1.9318,1.9924,2.055,2.1041,2.2185,2.3281,0.0,2.4746,0.0,2.7209,0.0,2.7679,0.0,2.8648,2.8309,2.7005,2.6117,0.0,2.7383,2.486,2.4458,0.0,0.0,0.0,0.0,2.1681,2.0909,2.0087,1.9277,1.8911,1.8989,0.0,2.2858,2.4792,0.0,2.7785,0.0,0.0,2.8917,0.0,0.0,3.0738,3.0461,3.0843,3.0986,3.0986,3.0986,3.0564,3.0188,3.1169,3.061,2.9869,3.1525,3.1542,3.108,3.1353,3.2112,3.1924,2.8228,2.7173,2.6148,2.2615,0.0,2.3444,0.0,0.0,0.0,0.0,0.0,0.0,0.0,0.0,0.0,0.0,0.0,0.0,0.0,0.0,0.0,0.0,0.0,0.0,0.0,0.0,0.0,0.0,0.0,3.9451,4.0066,4.0083,3.9963,3.9687,3.9698,3.956,3.9319,3.9853,3.9974,3.9698,3.9698,3.9531,3.9264,3.9736,3.9846,3.9713,4.0164,4.0346,4.0359,4.0634,4.1387,4.2359,4.2873,4.324,4.3515,1.8425,1.9019,1.9608,1.9876,2.0215,2.0652,2.1141,2.2794,2.4161,0.0,2.6308,2.7817,2.878,2.8927,2.9277,3.0123,3.0463,3.0134,2.8985,2.885,0.0,0.0,2.8041,2.7937,2.9651,0.0,0.0,0.0,0.0,0.0,2.0725,1.9496,1.8911,0.0,2.0151,0.0,2.424,2.6524,2.8869,3.0986,3.0986,3.0947,3.0945,3.1035,3.0341,2.9489,3.0605,3.0986,3.0986,3.1024,3.1161,3.1482,3.2196,3.2569,3.2938,3.3788,3.4061,3.3869,3.2961,3.3127,3.2706,2.9197,2.8618,2.7921,2.422,0.0,2.58,0.0,0.0,0.0,0.0,0.0,0.0,0.0,0.0,0.0,0.0,0.0,0.0,0.0,0.0,0.0,0.0,0.0,0.0,0.0,0.0,0.0,0.0,0.0,3.8422,3.8525,3.8565,3.8198,3.7512,3.8922,3.9284,3.8612,4.0193,4.0504,3.9698,3.9727,3.9998,4.0414,4.0915,4.1293,4.1633,4.2115,4.1827,4.1168,4.1937,4.2268,4.2304,4.2341,4.2837,4.3515,1.8738,2.0061,2.1277,2.134,2.1408,2.1766,2.2756,2.3917,2.5146,0.0,2.7633,2.8815,2.9754,3.0623,3.0949,3.0485,3.1311,0.0,0.0,0.0,0.0,3.1737,2.9902,2.9591,3.1203,2.7635,0.0,2.5349,0.0,0.0,2.125,0.0,0.0,0.0,0.0,0.0,2.424,2.6524,2.8869,3.0986,3.0986,3.0477,2.9882,0.0,3.1119,3.021,3.0777,3.0986,3.1024,3.1161,3.1505,3.1992,3.2475,3.303,3.3679,3.4566,3.4912,3.5083,3.5392,3.5598,3.5248,3.3296,3.1541,2.9773,2.7791,2.7289,2.7257,0.0,0.0,0.0,0.0,0.0,0.0,0.0,0.0,0.0,0.0,0.0,0.0,0.0,0.0,0.0,0.0,0.0,0.0,0.0,0.0,0.0,0.0,0.0,0.0,3.7737,3.7789,3.7702,3.7512,3.8427,3.8784,3.8634,4.0461,4.0769,3.9721,4.0379,4.0567,4.0436,4.1158,4.1522,4.1633,4.2115,4.1827,4.1113,4.1334,4.1772,4.2378,4.2965,4.3331,4.3515,2.0117,2.1768,2.3271,2.3469,2.3977,2.4288,2.4199,2.5112,2.6294,2.7582,2.9023,3.0157,3.0671,3.1858,3.237,3.1809,3.2562,0.0,3.1546,0.0,0.0,3.2599,3.1998,3.2064,3.2907,3.0241,0.0,2.6537,0.0,0.0,2.1132,0.0,0.0,0.0,0.0,2.1681,2.3563,2.6883,2.9052,3.0281,3.079,3.0803,0.0,3.1699,3.1902,3.1668,3.1964,3.1909,3.1629,3.174,3.2078,3.2541,3.3087,3.3837,3.4662,3.5464,3.58,3.5975,3.6383,3.6492,3.6168,3.4844,3.3439,3.1909,2.9946,2.9215,2.8941,2.8941,2.9245,2.955,0.0,0.0,0.0,0.0,0.0,0.0,0.0,0.0,0.0,0.0,0.0,0.0,0.0,0.0,0.0,0.0,0.0,0.0,0.0,0.0,0.0,3.6922,3.6646,3.6667,3.6956,3.7754,3.8267,3.8634,4.0577,4.0801,3.9494,4.0182,4.0501,4.0481,4.0923,4.1615,4.2449,4.2714,4.2561,4.2158,4.2158,4.2433,4.2873,4.3331,4.3515,4.3515,2.2016,0.0,0.0,0.0,2.6784,2.7287,2.5988,2.6702,2.7831,2.8892,3.0574,3.1682,3.1682,3.276,3.3484,3.3484,3.3907,3.3703,3.2718,3.3766,3.3953,3.296,3.3862,3.4397,3.4397,3.313,3.0882,0.0,0.0,2.3903,2.0673,0.0,0.0,0.0,0.0,0.0,0.0,2.7452,2.9287,2.9624,3.0729,3.1529,3.211,3.2326,3.2791,3.3388,3.3679,3.3262,3.2547,3.2583,3.2854,3.3269,3.3959,3.478,3.564,3.632,3.6492,3.6492,3.6492,3.6492,3.6184,3.4951,3.4566,3.3858,3.134,3.0725,3.0663,3.0663,2.975,2.9566,3.1628,0.0,0.0,0.0,0.0,0.0,0.0,0.0,0.0,0.0,0.0,0.0,0.0,0.0,0.0,0.0,0.0,0.0,0.0,0.0,0.0,3.6228,3.568,3.5645,3.6284,3.718,3.8,3.8723,4.0666,4.0774,3.9317,3.9822,4.0165,4.0347,4.0508,4.1628,4.3349,4.346,4.3515,4.3515,4.3515,4.3515,4.3515,4.3515,4.3515,4.3515,2.3421,0.0,0.0,0.0,0.0,2.854,2.934,2.9895,3.0448,3.1143,3.2438,3.3292,3.3292,3.3694,3.3992,3.3992,3.4189,3.4277,0.0,0.0,0.0,3.411,3.4293,3.4397,3.4397,3.2346,3.0281,0.0,0.0,2.3132,2.0673,1.946,0.0,0.0,0.0,0.0,2.6681,2.7994,0.0,3.0773,3.1596,3.1978,3.2218,3.3443,3.3993,3.4211,3.5026,3.4461,3.3367,3.363,3.4075,3.4629,3.5026,3.5561,3.6101,3.6414,3.6492,3.6492,3.6492,3.6492,3.6307,3.5537,3.4921,3.4227,3.3121,3.2444,3.2044,3.2044,3.1859,3.1336,3.0151,0.0,0.0,0.0,0.0,0.0,0.0,0.0,0.0,0.0,0.0,0.0,0.0,0.0,0.0,0.0,0.0,0.0,0.0,0.0,0.0,0.0,3.6163,0.0,0.0,0.0,3.8677,3.9203,4.1159,4.1256,3.98,4.0545,4.0391,3.9584,4.0567,4.1559,4.2561,4.3222,4.3515,4.3515,4.3515,4.3515,4.3515,4.3515,4.3515,4.3515,2.5875,0.0,0.0,0.0,0.0,3.0317,3.1138,3.201,3.2418,3.2005,3.2467,3.2883,3.2883,3.3588,3.4118,3.4118,3.4272,3.4397,3.4397,3.4397,3.4397,3.4397,3.4397,3.4397,3.4397,3.3313,3.1169,2.7941,2.6524,2.3942,2.0216,1.9316,1.8754,1.8571,0.0,2.3134,0.0,0.0,2.9362,3.0223,3.1567,3.2398,3.2932,3.4041,3.4762,3.5237,3.5769,3.5497,3.4861,3.4695,3.4861,3.5204,3.5367,3.5832,3.6383,3.646,3.6492,3.6492,3.6492,3.6492,3.6245,3.5244,3.4751,3.4227,3.3121,3.2628,3.2398,3.2398,3.2398,3.1809,2.9842,2.7907,0.0,0.0,0.0,0.0,0.0,0.0,0.0,0.0,0.0,0.0,0.0,0.0,0.0,0.0,0.0,0.0,0.0,0.0,0.0,0.0,0.0,0.0,3.6904,0.0,3.887,3.9888,4.1703,4.173,4.0165,4.0806,4.0555,3.9674,4.0663,4.157,4.2359,4.3167,4.3515,4.3515,4.3515,4.3515,4.3515,4.3515,4.3515,4.3515,0.0,2.8723,0.0,0.0,3.0842,3.1745,3.2183,3.3338,3.3752,3.2684,3.2555,3.2596,3.2596,3.3532,3.416,3.416,3.4314,3.4397,3.4397,3.4397,3.4397,3.4397,3.4397,3.4397,3.4397,3.4397,3.2385,0.0,2.7738,2.5101,2.0505,1.9538,1.9133,1.9277,0.0,0.0,2.5612,2.8425,2.9859,3.0321,3.2028,3.3143,3.3885,3.4629,3.535,3.6037,3.6148,3.6196,3.6148,3.5623,3.5559,3.5625,3.5625,3.6038,3.6492,3.6492,3.6492,3.6492,3.6492,3.6492,3.6199,3.5013,3.4613,3.4181,3.289,3.249,3.2398,3.2398,3.2425,3.1863,2.9968,2.8723,2.7795,0.0,0.0,0.0,0.0,0.0,0.0,0.0,0.0,0.0,0.0,0.0,0.0,0.0,0.0,0.0,0.0,0.0,0.0,0.0,0.0,3.5808,3.7033,0.0,3.9244,4.0581,4.2158,4.2068,4.0562,4.0926,4.0579,3.968,4.0506,4.1405,4.2359,4.2983,4.3349,4.3515,4.3515,4.3515,4.3515,4.3515,4.3515,4.3515,2.9123,0.0,0.0,3.0493,3.1396,3.2183,3.2593,3.3625,3.4233,3.3975,3.4074,3.4199,3.4199,3.429,3.4356,3.4356,3.4397,3.4397,3.4397,3.4397,3.4397,3.4397,3.4397,3.4397,3.4397,3.4397,3.3169,0.0,2.8556,2.591,2.2858,2.0714,2.0806,2.2781,2.3757,2.6306,2.9828,3.0485,3.1665,3.3198,3.4201,3.471,3.4843,3.5591,3.5926,3.6037,3.6148,3.6196,3.6211,3.6352,3.6398,3.6383,3.6383,3.6445,3.6492,3.6492,3.6492,3.6492,3.6492,3.6492,3.6307,3.5598,3.4951,3.4305,3.349,3.2844,3.2398,3.2398,3.2496,3.1986,3.0052,3.1226,3.1504,0.0,0.0,0.0,0.0,0.0,0.0,0.0,0.0,0.0,0.0,0.0,0.0,0.0,0.0,0.0,0.0,0.0,0.0,3.4296,0.0,3.5351,3.5506,3.8629,4.0464,4.1054,4.2294,4.225,4.1027,4.1079,4.0251,3.8854,3.9662,4.0873,4.2304,4.2378,4.2837,4.3515,4.3515,4.3515,4.3515,4.3515,4.3515,4.3515,3.0891,3.0854,3.1111,3.2043,3.233,3.2748,3.3613,3.411,3.4356,3.4272,3.4356,3.4397,3.4397,3.4397,3.4397,3.4397,3.4397,3.4397,3.4397,3.4397,3.4397,3.4397,3.4397,3.4397,3.4397,3.4397,3.3273,3.0986,2.866,2.6015,2.3169,2.243,2.3001,2.4704,2.6489,2.8177,2.9817,3.1754,3.2986,3.3685,3.4562,3.4942,3.5091,3.5847,3.6179,3.6304,3.6352,3.6383,3.6383,3.646,3.6492,3.6492,3.6492,3.6492,3.6492,3.6492,3.6492,3.6492,3.6492,3.6492,3.6322,3.5675,3.5013,3.432,3.3567,3.2875,3.2398,3.2398,3.2523,3.24,3.1737,3.1408,3.1247,3.1214,0.0,0.0,0.0,0.0,0.0,0.0,0.0,0.0,0.0,0.0,0.0,0.0,0.0,0.0,0.0,0.0,0.0,3.212,0.0,3.6437,3.6028,3.9218,4.1146,4.1772,4.2794,4.2498,4.1095,4.1095,4.0506,3.9441,3.9753,4.0799,4.2304,4.2304,4.2763,4.3515,4.3515,4.3515,4.3515,4.3515,4.3515,4.3515,3.2305,3.2143,3.2262,3.3353,3.3307,3.3388,3.428,3.4397,3.4397,3.4397,3.4397,3.4397,3.4397,3.4397,3.4397,3.4397,3.4397,3.4397,3.4397,3.4397,3.4397,3.4397,3.4397,3.4397,3.4397,3.4397,3.36,3.1993,2.968,2.753,2.5577,2.5147,2.5737,2.7274,2.9209,3.0358,3.102,3.3415,3.4432,3.4485,3.5139,3.5447,3.5561,3.6101,3.6383,3.6492,3.6492,3.6492,3.6492,3.6492,3.6492,3.6492,3.6492,3.6492,3.6492,3.6492,3.6492,3.6492,3.6492,3.6492,3.6384,3.5891,3.5306,3.4613,3.3875,3.3183,3.2656,3.2499,3.2605,3.2784,3.2924,3.1877,3.136,3.2493,0.0,0.0,0.0,0.0,0.0,0.0,0.0,0.0,0.0,0.0,0.0,0.0,0.0,0.0,0.0,0.0,0.0,0.0,0.0,0.0,3.6946,4.0099,4.1884,4.23,4.316,4.2737,4.114,4.0662,4.0129,3.9598,3.9853,4.0735,4.1989,4.2228,4.2797,4.3515,4.3515,4.3515,4.3515,4.3515,4.3515,4.3515,3.3146,3.3073,3.3199,3.4197,3.423,3.4134,3.4356,3.4397,3.4397,3.4397,3.4397,3.4397,3.4397,3.4397,3.4397,3.4397,3.4397,3.4397,3.4397,3.4397,3.4397,3.4397,3.4397,3.4397,3.4397,3.4397,3.4384,3.4358,3.2058,3.1033,3.1164,2.9105,2.9157,3.0965,3.1734,3.309,3.4898,3.58,3.6164,3.6196,3.6383,3.6492,3.6492,3.6492,3.6492,3.6492,3.6492,3.6492,3.6492,3.6492,3.6492,3.6492,3.6492,3.6492,3.6492,3.6492,3.6492,3.6492,3.6492,3.6492,3.6492,3.6476,3.5968,3.5321,3.4643,3.3906,3.3242,3.2717,3.2854,3.3096,3.3096,3.3187,3.2819,3.1435,3.2376,0.0,0.0,0.0,0.0,0.0,2.8531,2.785,3.1803,0.0,0.0,0.0,0.0,0.0,0.0,0.0,0.0,3.6616,3.7929,0.0,3.7996,4.1373,4.2886,4.2503,4.3374,4.2918,4.1237,3.9649,3.8885,3.8862,3.973,4.0526,4.1277,4.2069,4.2829,4.3515,4.3515,4.3515,4.3515,4.3515,4.3515,4.3515,3.3502,3.3624,3.3814,3.4121,3.4285,3.4314,3.4397,3.4397,3.4397,3.4397,3.4397,3.4397,3.4397,3.4397,3.4397,3.4397,3.4397,3.4397,3.4397,3.4397,3.4397,3.4397,3.4397,3.4397,3.4397,3.4397,3.4397,3.4397,3.211,3.1431,3.2326,3.1977,3.2806,3.455,3.4896,3.5088,3.5302,3.607,3.6383,3.6414,3.646,3.6492,3.6492,3.6492,3.6492,3.6492,3.6492,3.6492,3.6492,3.6492,3.6492,3.6492,3.6492,3.6492,3.6492,3.6492,3.6492,3.6492,3.6492,3.6492,3.6492,3.6492,3.5984,3.546,3.5348,3.4833,3.4221,3.3609,3.4025,3.4227,3.3285,3.3565,3.3688,3.2787,3.3008,3.3504,3.4118,0.0,0.0,0.0,3.4818,3.4742,0.0,3.3106,0.0,0.0,0.0,0.0,0.0,0.0,0.0,0.0,3.8123,0.0,3.8428,4.1523,4.3032,4.2922,4.3512,4.2918,4.1237,3.963,3.8896,3.8918,3.9726,4.0539,4.1335,4.2184,4.2998,4.3703,4.3703,4.3651,4.3565,4.3565,4.3531,4.3515,3.3966,3.4105,3.4202,3.4202,3.4314,3.4397,3.4397,3.4397,3.4397,3.4397,3.4397,3.4397,3.4397,3.4397,3.4397,3.4397,3.4397,3.4397,3.4397,3.4397,3.4397,3.4397,3.4397,3.4397,3.4397,3.4397,3.4397,3.4397,3.3462,3.3581,3.4685,3.5049,3.574,3.6623,3.6707,3.6385,3.5847,3.632,3.6492,3.6492,3.6492,3.6492,3.6492,3.6492,3.6492,3.6492,3.6492,3.6492,3.6492,3.6492,3.6492,3.6492,3.6492,3.6492,3.6492,3.6492,3.6492,3.6492,3.6492,3.6492,3.6492,3.6492,3.6184,3.5845,3.5733,3.535,3.4885,3.4476,3.4855,3.5002,3.412,3.4535,3.4878,3.4463,3.4593,3.5095,3.6088,0.0,3.6323,0.0,0.0,0.0,0.0,3.5737,3.4903,0.0,0.0,0.0,0.0,0.0,0.0,3.671,3.9992,4.1221,4.0194,4.2357,4.337,4.3212,4.3056,4.2405,4.132,3.9704,3.8964,3.8991,3.9834,4.0648,4.1431,4.2297,4.3098,4.3804,4.3804,4.3736,4.3667,4.3615,4.3565,4.3494,3.4397,3.4397,3.4397,3.4397,3.4397,3.4397,3.4397,3.4397,3.4397,3.4397,3.4397,3.4397,3.4397,3.4397,3.4397,3.4397,3.4397,3.4397,3.4397,3.4397,3.4397,3.4397,3.4397,3.4397,3.4397,3.4397,3.4439,3.4522,3.5816,3.6933,3.7898,3.8138,3.7958,3.7454,3.7409,3.7071,3.6553,3.6507,3.6492,3.6492,3.6492,3.6492,3.6492,3.6492,3.6492,3.6492,3.6492,3.6492,3.6492,3.6492,3.6492,3.6492,3.6492,3.6492,3.6492,3.6492,3.6492,3.6492,3.6492,3.6492,3.6492,3.6492,3.6523,3.6415,3.5918,3.5562,3.5338,3.5276,3.542,3.5533,3.5466,3.5915,3.6285,3.6263,3.6732,3.731,3.7983,3.7909,3.7286,3.5955,3.5626,3.5525,3.5576,3.5734,3.6655,0.0,0.0,0.0,0.0,0.0,3.6128,4.2019,4.2977,4.3212,4.2847,4.361,4.3809,4.3422,4.2181,4.1579,4.1452,3.9853,3.9078,3.9063,3.9983,4.0822,4.1563,4.2378,4.3146,4.382,4.382,4.3804,4.3804,4.3667,4.3599,4.3471,3.4397,3.4397,3.4397,3.4397,3.4397,3.4397,3.4397,3.4397,3.4397,3.4397,3.4397,3.4397,3.4397,3.4397,3.4397,3.4397,3.4397,3.4397,3.4397,3.4397,3.4397,3.4397,3.4397,3.4397,3.4397,3.4397,3.4799,3.5629,3.7319,3.8339,3.873,3.9535,3.9599,3.8962,3.8442,3.7868,3.723,3.6707,3.6492,3.6492,3.6492,3.6492,3.6492,3.6492,3.6492,3.6492,3.6492,3.6492,3.6492,3.6492,3.6492,3.6492,3.6492,3.6492,3.6492,3.6492,3.6492,3.6492,3.6492,3.6492,3.6492,3.6492,3.6677,3.6892,3.684,3.6908,3.6803,3.6237,3.6582,3.6816,3.6141,3.6573,3.7009,3.6882,3.7019,3.7295,3.7797,3.7831,3.8044,3.8625,3.8665,3.887,3.9497,3.9713,3.9077,0.0,0.0,0.0,3.7868,3.7864,3.9193,4.2109,4.2977,4.3353,4.3248,4.3761,4.3939,4.3841,4.2322,4.159,4.1505,3.9863,3.9087,3.9129,4.0011,4.0847,4.1635,4.2433,4.3234,4.3942,4.3942,4.3929,4.3883,4.3832,4.3734,4.3488,3.4397,3.4397,3.4397,3.4397,3.4397,3.4397,3.4397,3.4397,3.4397,3.4397,3.4397,3.4397,3.4397,3.4397,3.4397,3.4397,3.4397,3.4397,3.4397,3.4397,3.4592,3.4991,3.4991,3.5182,3.5521,3.5521,3.6108,3.7242,3.8302,3.9124,3.9692,4.025,3.9967,3.9046,3.8677,3.7969,3.7015,3.6645,3.6492,3.6492,3.6492,3.6492,3.6492,3.6492,3.6492,3.6492,3.6492,3.6492,3.6492,3.6492,3.6492,3.6492,3.6492,3.6492,3.6492,3.6492,3.6492,3.6492,3.6492,3.6492,3.6523,3.6585,3.6598,3.6729,3.7115,3.7313,3.7377,3.7297,3.7814,3.8128,3.767,3.8101,3.8513,3.8447,3.8647,3.8933,3.918,3.9228,3.9476,4.0158,4.0296,4.0516,4.0948,4.1175,4.0598,3.892,3.9375,0.0,3.9111,4.0286,4.1433,4.2446,4.3248,4.3677,4.3677,4.3892,4.4005,4.3986,4.237,4.159,4.1534,3.9863,3.9101,3.9138,4.0011,4.0861,4.1664,4.2463,4.3262,4.4005,4.4005,4.3974,4.3889,4.3505,4.3262,4.2965,3.4397,3.4397,3.4397,3.4397,3.4397,3.4397,3.4397,3.4397,3.4397,3.4397,3.4397,3.4397,3.4397,3.4397,3.4397,3.4397,3.4397,3.4397,3.4397,3.4397,3.4799,3.5669,3.5709,3.6082,3.6919,3.7074,3.7686,3.8686,3.9015,3.9642,4.0489,4.0489,3.9828,3.8662,3.8554,3.7815,3.663,3.6538,3.6492,3.6492,3.6492,3.6492,3.6492,3.6492,3.6492,3.6492,3.6492,3.6492,3.6492,3.6492,3.6492,3.6492,3.6492,3.6492,3.6492,3.6523,3.66,3.6631,3.6523,3.6523,3.6554,3.6723,3.6513,3.6479,3.72,3.7303,3.7476,3.8272,3.8739,3.9083,3.9279,3.9697,3.9943,3.9815,4.0419,4.0825,4.0601,4.0756,4.0912,4.0935,4.1047,4.1093,4.1117,4.1307,4.1403,4.1403,4.1515,4.1626,4.1697,4.24,4.2829,4.2903,4.361,4.4005,4.4005,4.4005,4.4005,4.3986,4.237,4.159,4.1534,3.9863,3.9101,3.9138,3.9881,4.0717,4.1646,4.2333,4.315,4.4005,4.4005,4.3931,4.3729,4.3129,4.2699,4.2232,3.4397,3.4397,3.4397,3.4397,3.4397,3.4397,3.4397,3.4397,3.4397,3.4397,3.4397,3.4397,3.4397,3.4397,3.4397,3.4397,3.4397,3.4397,3.4397,3.4397,3.4799,3.5669,3.5709,3.6162,3.7127,3.8003,3.8502,3.8686,3.9651,4.0246,4.0489,4.0489,4.0074,3.9305,3.8769,3.8077,3.7307,3.6738,3.6492,3.6492,3.6492,3.6492,3.6492,3.6492,3.6492,3.6492,3.6492,3.6492,3.6492,3.6492,3.6492,3.6492,3.6492,3.6492,3.6523,3.6631,3.7012,3.728,3.6662,3.6569,3.6723,3.6908,3.6882,3.7046,3.7935,3.7519,3.736,3.8791,3.857,3.8531,3.9656,3.9952,3.9746,3.8946,3.9979,4.0446,3.9152,4.0083,4.0935,4.1047,4.1087,4.1123,4.118,4.1318,4.1403,4.1403,4.1515,4.1762,4.2092,4.2541,4.2959,4.3301,4.3761,4.4005,4.4005,4.4005,4.4005,4.3986,4.237,4.159,4.1534,3.9863,3.9101,3.9101,3.9231,4.0178,4.1609,4.172,4.2649,4.4005,4.4005,4.3578,4.3058,4.3599,4.2888,4.1718,3.4397,3.4397,3.4397,3.4397,3.4397,3.4397,3.4397,3.4397,3.4397,3.4397,3.4397,3.4397,3.4397,3.4397,3.4397,3.4397,3.4397,3.4397,3.4397,3.4397,3.5019,3.6439,3.6517,3.7204,3.8679,3.9277,3.9565,3.9565,4.0141,4.0436,4.0489,4.0489,3.9936,3.897,3.8646,3.7938,3.6938,3.663,3.6492,3.6492,3.6492,3.6492,3.6492,3.6492,3.6492,3.6492,3.6492,3.6492,3.6492,3.6492,3.6492,3.6492,3.6492,3.6769,3.7103,3.7177,3.7429,3.7618,3.7296,3.7546,3.7822,3.7623,3.7581,3.7741,3.8603,3.8055,3.7685,3.8815,3.8647,3.8628,3.9641,3.9843,3.9829,3.9847,4.0446,4.0653,3.9945,4.0463,4.0959,4.107,4.1123,4.118,4.1295,4.1431,4.1515,4.1515,4.156,4.1784,4.2177,4.258,4.2978,4.3388,4.3793,4.4005,4.4005,4.4005,4.3782,4.3336,4.2166,4.1367,4.0903,3.9658,3.9101,3.912,3.9602,4.0476,4.1627,4.2073,4.2946,4.4005,4.4005,4.3763,4.3448,4.3373,4.2844,4.2119,3.4397,3.4397,3.4397,3.4397,3.4397,3.4397,3.4397,3.4397,3.4397,3.4397,3.4397,3.4397,3.4397,3.4397,3.4397,3.4397,3.4397,3.4439,3.4481,3.4675,3.5494,3.7127,3.7663,3.859,3.996,4.0242,4.0331,4.0312,4.0436,4.0489,4.0489,4.0489,3.9859,3.8739,3.8585,3.7846,3.6722,3.6553,3.6492,3.6492,3.6492,3.6492,3.6492,3.6492,3.6492,3.6492,3.6492,3.6492,3.6492,3.6492,3.6492,3.6523,3.6554,3.7042,3.7618,3.7693,3.7994,3.829,3.8064,3.8442,3.8799,3.8379,3.829,3.8494,3.9235,3.8521,3.7999,3.8887,3.8682,3.8582,3.9301,3.9439,3.9577,4.0049,4.0411,4.0567,4.0394,4.067,4.0959,4.107,4.1175,4.1255,4.1403,4.1515,4.1604,4.1604,4.1697,4.192,4.232,4.2734,4.3123,4.3525,4.3825,4.4005,4.4005,4.4005,4.3596,4.2797,4.198,4.1181,4.0378,3.9491,3.9101,3.9138,3.9807,4.0661,4.1646,4.2259,4.3113,4.4005,4.4005,4.3893,4.367,4.3243,4.2804,4.2406,3.4397,3.4397,3.4397,3.4397,3.4397,3.4397,3.4397,3.4397,3.4397,3.4397,3.4397,3.4397,3.4397,3.4397,3.4397,3.4397,3.4397,3.4494,3.4756,3.5494,3.6281,3.7165,3.9045,4.0051,4.0011,4.0331,4.0436,4.0312,4.0436,4.0489,4.0489,4.0489,4.0105,3.9382,3.8785,3.8108,3.7384,3.6753,3.6492,3.6492,3.6492,3.6492,3.6492,3.6492,3.6492,3.6492,3.6492,3.6492,3.6492,3.6492,3.6492,3.6523,3.6662,3.7103,3.7663,3.7969,3.8914,3.9664,3.8854,3.8772,3.8881,3.8854,3.8844,3.9032,3.9758,3.8696,3.7929,3.9359,3.8537,3.7823,3.8565,3.8663,3.8496,3.7858,3.8888,3.9543,3.8876,4.0014,4.0959,4.107,4.1175,4.1255,4.1403,4.1515,4.1604,4.1604,4.1941,4.234,4.2716,4.3141,4.3525,4.3939,4.3971,4.4005,4.4005,4.4005,4.3596,4.2797,4.198,4.1181,4.0378,3.9491,3.9101,3.9101,3.9175,4.0104,4.159,4.1664,4.2593,4.4005,4.4005,4.354,4.2965,4.3652,4.2965,4.1872,3.4397,3.4397,3.4397,3.4397,3.4397,3.4397,3.4397,3.4397,3.4397,3.4397,3.4397,3.4397,3.4397,3.4397,3.4397,3.4397,3.4535,3.4895,3.5481,3.607,3.6933,3.825,3.9672,4.0401,4.0296,4.042,4.047,4.0436,4.047,4.0489,4.0489,4.0489,4.0136,3.9459,3.8816,3.8138,3.7461,3.6784,3.6492,3.6492,3.6492,3.6492,3.6492,3.6492,3.6492,3.6492,3.6492,3.6492,3.6492,3.6492,3.6554,3.6693,3.7117,3.7793,3.858,3.9568,4.0187,4.05,4.0153,4.0103,4.0053,3.968,3.985,4.0069,3.9864,3.8958,3.8198,3.8323,3.7473,3.6991,3.7771,3.7927,3.7996,3.8146,3.8646,3.8905,3.8629,3.9117,3.9675,4.0291,4.0462,4.0749,4.1328,4.1515,4.1697,4.1963,4.2113,4.2482,4.3141,4.3542,4.3841,4.4005,4.4005,4.4005,4.4005,4.4005,4.3355,4.2054,4.1739,4.0903,3.9584,3.925,3.9101,3.912,3.9658,4.055,4.1627,4.2129,4.3002,4.4005,4.4005,4.3819,4.3578,4.3893,4.3615,4.3169,3.4397,3.4397,3.4397,3.4397,3.4397,3.4397,3.4397,3.4397,3.4397,3.4397,3.4397,3.4397,3.4397,3.4481,3.4535,3.4535,3.4743,3.5154,3.5763,3.6596,3.7701,3.9037,3.999,4.0489,4.0489,4.0489,4.0489,4.0489,4.0489,4.0489,4.0489,4.0489,4.0136,3.9459,3.9031,3.8323,3.7477,3.7015,3.6676,3.6492,3.6492,3.6492,3.6492,3.6492,3.6492,3.6492,3.6492,3.6492,3.6523,3.6554,3.6739,3.7072,3.7576,3.8458,3.9456,4.0573,4.0912,4.0912,4.0912,4.0912,4.0799,4.0385,4.0384,4.0394,3.9819,3.8939,3.8116,3.7616,3.6853,3.6473,3.7008,3.7133,3.7374,3.8112,3.8254,3.8336,3.8582,3.8594,3.8829,3.9415,3.9641,4.0087,4.0922,4.1165,4.1472,4.1969,4.2133,4.256,4.3371,4.3777,4.3875,4.3633,4.3615,4.3503,4.3243,4.3503,4.2946,4.159,4.133,4.0476,3.9101,3.9101,3.925,3.9547,4.0141,4.0996,4.2017,4.2575,4.3262,4.4005,4.4005,4.4005,4.4005,4.4005,4.4005,4.4005,3.4397,3.4397,3.4397,3.4397,3.4397,3.4397,3.4397,3.4397,3.4397,3.4397,3.4397,3.4397,3.4397,3.4618,3.4797,3.4797,3.5003,3.5195,3.544,3.7127,3.8473,3.9269,4.0076,4.0489,4.0489,4.0489,4.0489,4.0489,4.0489,4.0489,4.0489,4.0489,4.0136,3.949,3.949,3.8769,3.7507,3.7507,3.7107,3.6492,3.6492,3.6492,3.6492,3.6492,3.6492,3.6523,3.6523,3.6523,3.6554,3.6662,3.7103,3.7677,3.8014,3.8984,4.0103,4.071,4.0912,4.0912,4.0912,4.0912,4.0894,4.0894,4.0284,3.9698,3.9681,3.8565,3.7512,3.7495,3.6853,3.6301,3.6301,3.6301,3.6559,3.7374,3.7495,3.7754,3.8496,3.8577,3.8577,3.8599,3.8816,3.9282,4.003,4.0337,4.0801,4.1534,4.1966,4.2542,4.3353,4.3758,4.3615,4.2816,4.2797,4.2407,4.1609,4.2389,4.2389,4.1571,4.0773,3.9937,3.9101,3.9101,3.9584,4.0416,4.0416,4.1311,4.2797,4.2816,4.328,4.4005,4.4005,4.4005,4.4005,4.4005,4.4005,4.3989,3.4397,3.4397,3.4397,3.4397,3.4397,3.4397,3.4397,3.4397,3.4397,3.4397,3.4397,3.4481,3.466,3.4756,3.4839,3.5003,3.5696,3.6727,3.804,3.8635,3.9305,4.0111,4.037,4.0489,4.0489,4.0489,4.0489,4.0489,4.0489,4.0489,4.0489,4.0489,4.0382,4.0151,3.9231,3.8585,3.8138,3.72,3.6676,3.6492,3.6492,3.6492,3.6492,3.6492,3.6754,3.7118,3.7118,3.7445,3.7924,3.7953,3.8206,3.8608,3.9246,3.9978,4.0662,4.0847,4.0912,4.0912,4.0912,4.0498,4.0043,4.0043,3.9871,3.9422,3.8387,3.7823,3.734,3.6766,3.6473,3.6301,3.6301,3.6301,3.6387,3.6611,3.6663,3.6732,3.6956,3.6991,3.7198,3.7771,3.7988,3.8412,3.9264,3.9446,3.9751,4.0354,4.1034,4.1873,4.2924,4.2566,4.2203,4.1962,4.1962,4.1832,4.159,4.1832,4.1553,4.0754,4.0494,3.9937,3.9101,3.9101,3.9584,4.0434,4.0996,4.1832,4.2835,4.341,4.3782,4.4005,4.4005,4.4005,4.4005,4.4005,4.4005,4.3989,3.4397,3.4397,3.4397,3.4397,3.4397,3.4397,3.4397,3.4397,3.4397,3.4397,3.4397,3.4481,3.4756,3.488,3.5003,3.5195,3.6123,3.7448,3.9196,3.9305,3.9657,4.0455,4.0489,4.0489,4.0489,4.0489,4.0489,4.0489,4.0489,4.0489,4.0489,4.0489,4.0351,4.0059,3.9244,3.8616,3.8061,3.723,3.6738,3.6492,3.6492,3.6492,3.6492,3.6492,3.6861,3.7417,3.746,3.7924,3.8502,3.864,3.8951,3.9456,4.0145,4.0614,4.0912,4.0912,4.0912,4.0843,4.0515,4.006,3.956,3.8974,3.8819,3.8594,3.7702,3.7254,3.6887,3.6404,3.6301,3.6301,3.6301,3.6301,3.6301,3.6301,3.6301,3.6301,3.6301,3.6301,3.6473,3.6978,3.7132,3.7567,3.8395,3.8579,3.8998,3.9804,4.0455,4.1189,4.2044,4.179,4.1441,4.1126,4.1126,4.0958,4.0606,4.0606,4.0531,4.0416,4.0048,3.9602,3.9101,3.9454,4.0067,4.0936,4.172,4.2519,4.3318,4.3801,4.4005,4.4005,4.4005,4.4005,4.4005,4.4005,4.3974,4.3961,3.4397,3.4397,3.4397,3.4397,3.4397,3.4397,3.4397,3.4397,3.4397,3.4397,3.4439,3.4535,3.4797,3.5003,3.5195,3.5399,3.6322,3.7563,3.9196,3.9305,3.9657,4.0455,4.0489,4.0489,4.0489,4.0489,4.0489,4.0489,4.0489,4.0489,4.0489,4.0489,4.0166,3.9567,3.9444,3.8739,3.7584,3.7461,3.7061,3.6492,3.6492,3.6492,3.6523,3.6554,3.6952,3.7519,3.7677,3.8165,3.8723,3.9005,3.9534,4.017,4.0734,4.0912,4.0912,4.0912,4.0912,4.0722,3.9905,3.9646,3.925,3.7858,3.7461,3.7392,3.7392,3.6818,3.6301,3.6301,3.6301,3.6301,3.6301,3.6301,3.6301,3.6301,3.6301,3.6301,3.6301,3.6301,3.6301,3.6301,3.6402,3.678,3.7507,3.777,3.8403,3.9645,4.0004,4.0413,4.091,4.1221,4.1033,4.0323,4.0285,3.99,3.9101,3.9101,3.9491,4.0285,3.9472,3.9138,3.9231,3.9955,4.0791,4.1739,4.2333,4.3113,4.3986,4.3912,4.3949,4.4005,4.4005,4.4005,4.4005,4.3989,4.3942,4.3899,3.4397,3.4397,3.4397,3.4397,3.4397,3.4397,3.4397,3.4397,3.4397,3.4397,3.4577,3.4797,3.5003,3.5195,3.544,3.5642,3.6401,3.7563,3.9196,3.9305,3.9657,4.0455,4.0489,4.0489,4.0489,4.0489,4.0489,4.0489,4.0489,4.0489,4.0489,4.0489,4.0413,4.0228,3.92,3.8569,3.8215,3.7153,3.663,3.6492,3.6492,3.6492,3.6554,3.7013,3.7578,3.8165,3.8805,3.9463,4.0112,4.036,4.0573,4.0734,4.0847,4.0912,4.0912,4.0912,4.0912,4.0722,3.9905,3.9267,3.8612,3.7719,3.7047,3.6559,3.6559,3.6422,3.6301,3.6301,3.6301,3.6301,3.6301,3.6301,3.6301,3.6301,3.6301,3.6301,3.6301,3.6301,3.6301,3.6301,3.6322,3.645,3.6745,3.6931,3.7674,3.9139,3.8848,3.9165,4.0456,3.9968,3.9565,3.938,3.938,3.9287,3.9101,3.9101,3.9194,3.938,3.9194,3.9454,4.0085,3.9602,4.0531,4.2482,4.1386,4.2092,4.3949,4.3318,4.3429,4.4005,4.4005,4.4005,4.3989,4.3945,4.3913,4.3883,3.4397,3.4397,3.4397,3.4397,3.4397,3.4397,3.4397,3.4397,3.4452,3.4577,3.4714,3.4921,3.5195,3.5358,3.5629,3.6203,3.6986,3.8003,3.9233,3.9657,4.0076,4.0489,4.0489,4.0489,4.0489,4.0489,4.0489,4.0489,4.0489,4.0489,4.0489,4.0489,4.0489,4.0428,3.9108,3.8508,3.8415,3.7076,3.6492,3.6492,3.6492,3.6662,3.6952,3.7268,3.7982,3.8887,3.9332,3.9995,4.0704,4.0847,4.0912,4.0912,4.0912,4.0912,4.0912,4.0912,4.0912,4.0653,3.9491,3.8888,3.8318,3.7198,3.6611,3.6301,3.6301,3.6301,3.6301,3.6301,3.6301,3.6301,3.6301,3.6301,3.6301,3.6301,3.6301,3.6301,3.6301,3.6301,3.6301,3.6301,3.6301,3.6343,3.6502,3.6606,3.7152,3.8384,3.8164,3.8463,3.9608,3.9291,3.9045,3.9045,3.9073,3.9101,3.9101,3.9101,3.9101,3.9101,3.9101,3.9342,3.977,3.9733,4.042,4.1627,4.1163,4.1906,4.3392,4.2965,4.3262,4.4005,4.4005,4.3892,4.3728,4.3846,4.3832,4.3751,3.4397,3.4397,3.4397,3.4397,3.4397,3.4397,3.4397,3.4439,3.4535,3.4756,3.4839,3.5044,3.5358,3.544,3.5857,3.6819,3.7625,3.8436,3.9233,4.0025,4.0489,4.0489,4.0489,4.0489,4.0489,4.0489,4.0489,4.0489,4.0489,4.0489,4.0489,4.0489,4.0489,4.0428,3.9108,3.8508,3.8415,3.7076,3.6492,3.6523,3.66,3.6952,3.7447,3.765,3.8418,3.9437,3.9688,4.0279,4.0912,4.0912,4.0912,4.0912,4.0912,4.0912,4.0912,4.0912,4.0912,4.0601,3.9163,3.8703,3.8249,3.6853,3.6404,3.6301,3.6301,3.6301,3.6301,3.6301,3.6301,3.6301,3.6301,3.6301,3.6301,3.6301,3.6301,3.6301,3.6301,3.6301,3.6301,3.6301,3.6301,3.6343,3.6461,3.6502,3.6856,3.7703,3.7791,3.8115,3.8862,3.895,3.8993,3.8993,3.9078,3.9101,3.9101,3.9101,3.9101,3.9101,3.9101,3.9175,3.9342,3.9918,4.0327,4.0624,4.1014,4.1794,4.2797,4.2649,4.312,4.3892,4.3857,4.3627,4.3283,4.3545,4.3511,4.3355,3.4397,3.4397,3.4397,3.4397,3.4397,3.4397,3.4397,3.4577,3.4756,3.4797,3.5086,3.5358,3.5399,3.5562,3.5977,3.6819,3.7625,3.8436,3.9233,4.0025,4.0489,4.0489,4.0489,4.0489,4.0489,4.0489,4.0489,4.0489,4.0489,4.0489,4.0489,4.0489,4.0489,4.0428,3.9108,3.8508,3.8415,3.7076,3.6492,3.6554,3.7074,3.7328,3.7519,3.8695,3.9236,3.9489,4.0254,4.0704,4.0912,4.0912,4.0912,4.0912,4.0912,4.0912,4.0912,4.0912,4.0912,4.0705,3.9784,3.9077,3.841,3.7564,3.6801,3.6301,3.6301,3.6301,3.6301,3.6301,3.6301,3.6301,3.6301,3.6301,3.6301,3.6301,3.6301,3.6301,3.6301,3.6301,3.6301,3.6301,3.6301,3.6301,3.6322,3.6423,3.6816,3.7578,3.7738,3.8115,3.8862,3.895,3.8993,3.8993,3.9078,3.9101,3.9101,3.9101,3.9101,3.9101,3.9101,3.9491,4.0197,3.9565,4.0067,4.1349,4.0011,4.0717,4.2742,4.2054,4.2442,4.3474,4.3352,4.3051,4.2698,4.2563,4.2464,4.244,3.4463,3.4397,3.4397,3.4397,3.4397,3.4439,3.4577,3.4714,3.488,3.5127,3.5277,3.544,3.5562,3.5642,3.6017,3.6819,3.7625,3.8436,3.9233,4.0025,4.0489,4.0489,4.0489,4.0489,4.0489,4.0489,4.0489,4.0489,4.0489,4.0489,4.0489,4.0489,4.0489,4.0428,3.9108,3.8508,3.8415,3.7076,3.6492,3.6554,3.7148,3.7666,3.8124,3.9049,3.9697,4.0179,4.0655,4.0864,4.0912,4.0912,4.0912,4.0912,4.0912,4.0912,4.0912,4.0912,4.0912,4.0722,3.9905,3.9457,3.8922,3.7806,3.7215,3.6853,3.6404,3.6301,3.6301,3.6301,3.6301,3.6301,3.6301,3.6301,3.6301,3.6301,3.6301,3.6301,3.6301,3.6301,3.6301,3.6301,3.6301,3.6301,3.6301,3.6343,3.6698,3.7487,3.7614,3.7964,3.8747,3.8851,3.8896,3.8896,3.9394,3.9452,3.905,3.9495,3.9523,3.9101,3.9584,3.977,3.9658,3.9268,3.9491,4.0178,3.9937,4.0578,4.1815,4.1907,4.2343,4.2959,4.2886,4.2736,4.2503,4.2101,4.2098,4.2378]}]]